     2              OBSERVATION DATA    GPS                 RINEX VERSION / TYPE
ASRINEXO V2.2.0 UX USGS 19-MAY-94 13:20                     PGM / RUN BY / DATE
                                                            COMMENT
Original Marker Name: sanh                                  COMMENT
Campaign Name: usgs.socal.monit                             COMMENT
4-Character Station Name: SANH                              COMMENT
6-Character Antenna Code: ASHP12                            COMMENT
Vertical Measurement Point: EGP                             COMMENT
Vertical Offset to Rinex Ref. Point: 0.0593                 COMMENT
Radial Measurement Point: EGP                               COMMENT
Radial Offset to Rinex Ref. Point: 0.1425                   COMMENT
Antenna Height from Field Measurement: 1.3980 m             COMMENT
Additional Antenna Identification Info.:                    COMMENT
Ashtech L1/L2 Revision B                                    COMMENT
Original XYZ: -2336833.5300 -4732606.2200 3570299.1900      COMMENT
New XYZ position is based on association with SCEC monument COMMENT
E1F2G8K4+0012. Position of that monument is believed to be  COMMENT
valid to within 1 m horizontally; vertical accuracy         COMMENT
should be no worse than 3-times this value.                 COMMENT
                                                            COMMENT
Revised Rinex header created by UCSD GPS archive for        COMMENT
GSAC on 11-Nov-1999 (1999:315) 15:38:22 GMT                 COMMENT
For assistance contact dagnew@ucsd.edu or hjohnson@ucsd.edu COMMENT
                                                            COMMENT
SANH                                                        MARKER NAME
                                                            MARKER NUMBER
GDH US GEOLOGICAL SURVEY                                    OBSERVER / AGENCY
831 ASHTECH L-XII 7A                                        REC # / TYPE / VERS
27 ASHTECH GEODETIC P                                       ANT # / TYPE
 -2336820.0000 -4732587.0000  3570330.0000                  APPROX POSITION XYZ
        1.3314        0.0000        0.0000                  ANTENNA: DELTA H/E/N
     1     2     0                                          WAVELENGTH FACT L1/2
     3    C1    L1    L2                                    # / TYPES OF OBSERV
    30                                                      INTERVAL
  1994     5    15    15     7   30.000000                  TIME OF FIRST OBS
  1994     5    15    21    34   30.000000                  TIME OF LAST OBS
                                                            END OF HEADER
 94  5 15 15  7 30.0000000  0  2 18 19
  20398508.946      -40891.35718    -29155.730
  21218692.365    19289925.11218    -91909.872
 94  5 15 15  8  0.0000000  0  2 18 19
  20396445.145      -51742.387 9    -37603.168 1
  21209881.135    19243625.342 8   -127982.755
 94  5 15 15  8 30.0000000  0  6 27 18 19 31 28 29
  22910458.020    -2084943.23516   -186573.974
  20394561.459      -61631.768 8    -45328.295 1
  21201194.379    19197975.221 8   -163553.891 3
  22664659.053    18068637.79916   -172867.960
  23369126.930     -254263.75016    -55673.849
  21509285.392    11600440.91618     77548.432
 94  5 15 15  9  0.0000000  0  6 27 18 19 31 28 29
  22894201.804    -2170378.612 6   -253147.057 1
  20392873.717      -70516.329 8    -52251.357 5
  21192645.917    19153045.493 8   -198564.081 5
  22650444.933    17993950.582 6   -231065.873 2
  23364991.353     -275961.608 6    -72581.275 1
  21516606.833    11638920.087 8    107528.978
 94  5 15 15  9 30.0000000  0  6 27 18 19 31 28 29
  22878065.295    -2255176.761 6   -319223.513 2
  20391375.924      -78386.577 8    -58384.016 6
  21184237.368    19108865.699 8   -232989.889 6
  22636419.413    17920230.400 6   -288510.153 2
  23361072.286     -296564.571 6    -88635.508 2
  21524108.480    11678332.279 8    138240.960 1
 94  5 15 15 10  0.0000000  0  6 27 18 19 31 28 29
  22862049.842    -2339340.553 6   -384805.634 3
  20390067.240      -85245.806 8    -63728.871 7
  21175976.916    19065451.377 8   -266819.232 7
  22622572.989    17847467.712 6   -345208.338 2
  23357364.333     -316072.592 6   -103836.529 2
  21531785.565    11718682.090 8    169682.268 3
 94  5 15 15 10 30.0000000  0  6 27 18 19 31 28 29
  22846151.249    -2422883.877 6   -449904.355 3
  20388954.471      -91106.069 8    -68295.321 8
  21167857.187    19022793.595 8   -300059.067 7
  22608909.618    17775654.549 6   -401166.595 3
  23353855.532     -334505.177 6   -118199.621 2
  21539638.628    11759956.437 8    201844.059 4
 94  5 15 15 11  0.0000000  0  6 27 18 19 31 28 29
  22830369.994    -2505813.460 6   -514524.748 4
  20388028.232      -95970.221 8    -72085.575 9
  21159879.470    18980864.996 8   -332730.708 8
  22595417.548    17704778.284 6   -456394.863 3
  23350551.639     -351873.434 6   -131733.300 3
  21547670.518    11802151.942 8    234723.669 5
 94  5 15 15 11 30.0000000  0  6 27 18 19 31 28 29
  22814711.654    -2588113.882 6   -578654.908 4
  20387294.430      -99826.574 8    -75090.538 9
  21152037.439    18939651.148 8   -364845.380 8
  22582114.827    17634846.251 6   -510887.338 3
  23347445.760     -368184.635 6   -144443.326 3
  21555875.868    11845274.479 8    268325.604 6
 94  5 15 15 12  0.0000000  0  6 27 18 19 31 28 29
  22799169.513    -2669784.187 6   -642294.135 4
  20386748.388     -102675.065 8    -77310.143 9
  21144329.505    18899144.316 8   -396409.149 8
  22568987.215    17565866.940 6   -564637.418 3
  23344541.970     -383437.923 6   -156329.040 3
  21564259.834    11889327.976 8    302652.969 6
 94  5 15 15 12 30.0000000  0  6 27 18 19 31 28 29
  22783745.281    -2750835.559 6   -705450.996 4
  20386402.757     -104508.385 8    -78738.717 9
  21136753.570    18859330.432 8   -427432.950 8
  22556043.736    17497851.401 6   -617636.542 3
  23341842.729     -397630.444 6   -167388.123 3
  21572816.300    11934302.200 8    337697.807 6
 94  5 15 15 13  0.0000000  0  6 27 18 19 31 28 29
  22768441.416    -2831259.091 6   -768118.652 4
  20386250.373     -105312.420 8    -79365.254 9
  21129306.485    18820207.626 8   -457918.257 8
  22543283.340    17430801.086 6   -669883.524 4
  23339344.378     -410757.244 6   -177616.826 3
  21581551.833    11980209.295 8    373469.514 6
 94  5 15 15 13 30.0000000  0  6 27 18 19 31 28 29
  22753253.271    -2911054.439 6   -830296.888 4
  20386294.262     -105079.306 8    -79183.613 9
  21121997.695    18781789.275 8   -487854.633 8
  22530711.063    17364725.536 6   -721370.924 4
  23337055.283     -422805.265 6   -187004.932 3
  21590470.179    12027056.017 8    409973.423 6
 94  5 15 15 14  0.0000000  0  6 27 18 19 31 28 29
  22738190.019    -2990234.793 6   -891995.800 4
  20386534.516     -103808.969 8    -78193.744 9
  21114820.544    18744075.769 8   -517241.780 9
  22518325.108    17299636.981 6   -772089.296 4
  23334963.991     -433771.949 6   -195550.356 3
  21599558.627    12074825.429 8    447196.326 6
 94  5 15 15 14 30.0000000  0  6 27 18 19 31 28 29
  22723240.598    -3068794.343 6   -953211.015 4
  20386973.622     -101505.144 8    -76398.568 9
  21107778.389    18707063.501 8   -546082.500 9
  22506122.835    17235540.557 6   -822034.530 4
  23333084.562     -443657.454 6   -203253.369 3
  21608821.974    12123504.404 8    485127.956 6
 94  5 15 15 15  0.0000000  0  6 27 18 19 31 28 29
  22708412.263    -3146715.558 6  -1013928.852 4
  20387607.143      -98178.923 8    -73806.708 9
  21100868.083    18670754.764 8   -574375.027 9
  22494118.276    17172426.837 6   -871214.031 4
  23331409.651     -452472.823 6   -210122.500 3
  21618258.331    12173098.258 8    523772.473 6
 94  5 15 15 15 30.0000000  0  6 27 18 19 31 28 29
  22693705.914    -3223995.189 6  -1074146.701 4
  20388435.770      -93837.279 8    -70423.611 9
  21094094.962    18635164.285 8   -602107.859 9
  22482298.149    17110320.209 6   -919608.810 4
  23329929.816     -460216.932 6   -216156.845 3
  21627870.637    12223603.557 8    563127.222 6
 94  5 15 15 16  0.0000000  0  6 27 18 19 31 28 29
  22679120.142    -3300640.657 6  -1133870.436 4
  20389446.790      -88507.872 8    -66270.842 9
  21087456.268    18600285.238 8   -629286.328 9
  22470671.478    17049216.130 6   -967222.350 4
  23328658.906     -466907.329 6   -221370.168 3
  21637650.256    12274997.284 8    603174.246 6
 94  5 15 15 16 30.0000000  0  6 27 18 19 31 28 29
  22664658.244    -3376649.755 6  -1193098.294 4
  20390648.178      -82201.465 8    -61356.768 9
  21080953.050    18566108.236 8   -655917.764 9
  22459236.134    16989100.830 6  -1014065.428 4
  23327585.079     -472557.822 6   -225773.113 3
  21647601.747    12327293.079 8    643924.199 6
 94  5 15 15 17  0.0000000  0  6 27 18 19 31 28 29
  22650309.547    -3452049.408 6  -1251851.228 5
  20392034.508      -74923.846 8    -55685.905 9
  21074583.180    18532615.394 8   -682016.072 9
  22447979.647    16929958.440 6  -1060150.385 4
  23326702.400     -477197.518 6   -229388.450 3
  21657722.381    12380481.300 8    685369.542 6
 94  5 15 15 17 30.0000000  0  6 27 18 19 31 28 29
  22636065.748    -3526874.877 6  -1310156.789 5
  20393599.035      -66695.564 8    -49274.258 9
  21068335.235    18499790.999 8   -707593.527 9
  22436908.402    16871784.215 6  -1105480.928 4
  23326014.856     -480835.966 6   -232223.638 3
  21668009.219    12434548.855 8    727500.076 6
 94  5 15 15 18  0.0000000  0  6 27 18 19 31 28 29
  22621936.799    -3601148.321 6  -1368032.201 5
  20395347.245      -57517.246 8    -42122.340 9
  21062211.704    18467618.767 8   -732662.805 9
  22426017.601    16814548.091 6  -1150080.491 4
  23325506.618     -483469.535 6   -234275.743 3
  21678465.830    12489494.103 8    770314.538 6
 94  5 15 15 18 30.0000000  0  6 27 18 19 31 28 29
  22607905.733    -3674874.501 6  -1425481.137 5
  20397274.221      -47379.022 8    -34222.445 9
  21056214.176    18436090.309 8   -757230.430 9
  22415299.241    16758239.250 6  -1193957.504 4
  23325201.009     -485097.133 6   -235544.021 3
  21689094.522    12545332.784 7    813825.177 6
 94  5 15 15 19  0.0000000  0  6 27 18 19 31 28 29
  22593975.306    -3748066.309 6  -1482513.707 5
  20399384.790      -36282.825 8    -25576.065 9
  21050338.814    18405214.342 8   -781289.623 9
  22404761.836    16702863.419 6  -1237107.469 4
  23325085.230     -485701.918 6   -236015.313 3
  21699883.693    12602049.740 7    858020.162 6
 94  5 15 15 19 30.0000000  0  6 27 18 19 31 28 29
  22580148.968    -3820726.149 7  -1539131.739 5
  20401677.962      -24242.393 8    -16193.922 9
  21044582.499    18374981.499 8   -804847.698 9
  22394400.979    16648416.469 6  -1279533.647 4
  23325166.323     -485262.557 6   -235672.932 3
  21710843.596    12659624.750 7    902883.768 6
 94  5 15 15 20  0.0000000  0  6 27 18 19 31 28 29
  22566430.225    -3892835.345 6  -1595320.713 5
  20404151.340      -11248.429 8     -6068.760 9
  21038952.726    18345385.203 8   -827909.731 9
  22384216.849    16594893.105 6  -1321240.157 4
  23325447.319     -483784.217 6   -234520.979 3
  21721954.983    12718031.900 7    948395.794 6
 94  5 15 15 20 30.0000000  0  6 27 18 19 31 28 29
  22552813.982    -3964371.391 6  -1651063.071 5
  20406800.846        2700.231 8      4800.311 9
  21033441.372    18316420.641 8   -850479.522 9
  22374214.124    16542319.639 6  -1362206.470 4
  23325924.439     -481280.439 6   -232570.026 3
  21733227.839    12777258.218 7    994546.111 6
 94  5 15 15 21  0.0000000  0  6 27 18 19 31 28 29
  22539310.820    -4035339.265 7  -1706362.676 5
  20409636.163       17597.369 8     16408.459 9
  21028049.424    18288085.871 8   -872558.560 9
  22364392.923    16490700.322 6  -1402429.299 4
  23326598.462     -477747.645 6   -229817.166 3
  21744645.255    12837276.830 7   1041313.832 6
 94  5 15 15 21 30.0000000  0  6 27 18 19 31 28 29
  22525913.904    -4105746.492 7  -1761225.454 5
  20412650.456       33426.637 8     28742.938 9
  21022770.559    18260352.527 8   -894168.961 9
  22354743.053    16440011.036 6  -1441927.453 4
  23327457.577     -473226.226 6   -226293.973 3
  21756215.415    12898070.800 7   1088685.702 6
 94  5 15 15 22  0.0000000  0  6 27 18 19 31 28 29
  22512619.128    -4175618.928 7  -1815671.477 5
  20415836.351       50166.357 8     41786.872 9
  21017605.704    18233206.243 8   -915321.920 9
  22345268.592    16390223.949 6  -1480722.559 4
  23328495.998     -467760.753 6   -222035.225 3
  21767931.275    12959629.996 7   1136653.889 6
 94  5 15 15 22 30.0000000  0  6 27 18 19 31 28 29
  22499414.050    -4244994.526 7  -1869730.367 5
  20419193.367       67790.118 8     55519.644 9
  21012547.486    18206633.734 8   -936027.784 9
  22335962.855    16341322.220 6  -1518827.788 4
  23329719.481     -461360.036 6   -217047.641 4
  21779789.895    13021952.385 7   1185216.777 6
 94  5 15 15 23  0.0000000  0  6 27 18 19 31 28 29
  22486304.935    -4313901.562 7  -1923424.162 5
  20422711.971       86285.308 8     69931.467 9
  21007599.921    18180628.311 8   -956291.742 9
  22326821.133    16293278.476 6  -1556264.464 4
  23331110.518     -454028.654 6   -211334.856 4
  21791791.247    13085021.520 7   1234361.521 6
 94  5 15 15 23 30.0000000  0  6 27 18 19 31 28 29
  22473276.944    -4382358.253 7  -1976767.008 5
  20426391.084      105629.750 8     85005.049 9
  21002756.234    18155168.994 8   -976130.167 9
  22317837.613    16246069.148 6  -1593050.943 4
  23332679.302     -445797.101 6   -204920.730 3
  21803930.053    13148824.216 7   1284077.857 6
 94  5 15 15 24  0.0000000  0  6 27 18 19 31 28 29
  22460333.585    -4450378.825 7  -2029770.025 5
  20430232.384      125809.417 8    100729.452 9
  20998013.937    18130249.371 8   -995548.064 9
  22309011.603    16199689.985 6  -1629190.542 4
  23334419.388     -436661.290 6   -197801.886 4
  21816213.000    13213351.033 7   1334358.472 6
 94  5 15 15 24 30.0000000  0  6 27 18 19 31 28 29
  22447470.899    -4517974.567 6  -2082442.019 5
  20434227.119      146815.753 8    117098.010 9
  20993366.825    18105840.299 8  -1014568.115 9
  22300336.688    16154124.547 6  -1664696.054 4
  23336320.282     -426640.436 6   -189993.408 4
  21828625.637    13278573.053 7   1385180.785 6
 94  5 15 15 25  0.0000000  0  6 27 18 19 31 28 29
  22434685.620    -4585163.277 6  -2134796.837 5
  20438376.127      168625.228 8    134092.391 9
  20988816.994    18081920.307 8  -1033207.061 9
  22291821.083    16109361.400 6  -1699576.438 4
  23338388.370     -415769.568 6   -181522.657 3
  21841161.099    13344472.779 7   1436531.166 6
 94  5 15 15 25 30.0000000  0  8  2 27 18 19 31 28 29 16
  24359132.763     -351651.09815   -213092.729 1
  22421968.544    -4651967.715 6  -2186852.217 5
  20442675.930      191204.179 8    151686.364 9
  20984352.665    18058462.148 8  -1051486.160 9
  22283453.606    16065386.460 6  -1733842.605 4
  23340615.288     -404085.068 6   -172417.821 4
  21853830.778    13411045.538 7   1488406.015 6
  24909114.889    14877293.67714  -1864556.113 2
 94  5 15 15 26  0.0000000  0  8  2 27 18 19 31 28 29 16
  24341340.321     -445192.472 5   -285982.084 1
  22409328.425    -4718401.462 6  -2238618.771 5
  20447117.085      214545.190 8    169874.151 9
  20979973.626    18035448.300 8  -1069418.998 9
  22275233.477    16022197.081 6  -1767496.654 4
  23342990.514     -391603.914 6   -162692.242 4
  21866628.828    13478295.104 7   1540808.238 6
  24895894.611    14807893.749 4  -1918633.955 2
 94  5 15 15 26 30.0000000  0  8  2 27 18 19 31 28 29 16
  24323619.559     -538292.086 5   -358527.179 1
  22396754.470    -4784493.365 6  -2290118.928 5
  20451697.734      238620.476 8    188634.104 9
  20975672.084    18012855.497 8  -1087023.817 9
  22267164.803    15979778.156 6  -1800550.350 4
  23345506.192     -378360.858 6   -152373.025 3
  21879552.191    13546199.550 7   1593720.773 6
  24882825.818    14739176.985 5  -1972179.451 2
 94  5 15 15 27  0.0000000  0  8  2 27 18 19 31 28 29 16
  24305983.038     -630980.496 5   -430751.869 2
  22384235.047    -4850269.806 7  -2341373.270 5
  20456416.348      263405.537 8    207947.124 9
  20971454.004    17990680.389 8  -1104303.117 9
  22259235.442    15938120.670 6  -1833010.732 4
  23348174.015     -364358.778 6   -141462.328 3
  21892596.011    13614744.732 7   1647132.568 6
  24869868.758    14671133.931 4  -2025200.005 2
 94  5 15 15 27 30.0000000  0  8  2 27 18 19 31 28 29 16
  24288418.018     -723260.286 5   -502658.138 2
  22371784.426    -4915702.129 7  -2392359.514 5
  20461272.176      288934.324 8    227839.663 9
  20967317.048    17968947.212 8  -1121238.061 9
  22251459.335    15897241.203 6  -1864864.846 4
  23350987.838     -349567.078 6   -129936.288 4
  21905761.967    13683936.172 7   1701047.930 6
  24857072.717    14603781.438 5  -2077682.455 2
 94  5 15 15 28  0.0000000  0  8  2 27 18 19 31 28 29 16
  24270934.662     -815121.529 5   -574238.311 2
  22359400.899    -4980779.145 7  -2443068.833 5
  20466275.173      315225.443 8    248326.243 9
  20963269.880    17947671.959 8  -1137816.174 9
  22243824.701    15857144.182 6  -1896109.261 4
  23353959.170     -333960.785 6   -117775.580 4
  21919046.520    13753757.265 7   1755453.938 6
  24844369.881    14537123.089 5  -2129623.948 2
 94  5 15 15 28 30.0000000  0  8  2 27 18 19 31 28 29 16
  24253531.739     -906570.213 5   -645496.917 2
  22347086.774    -5045490.769 7  -2493493.470 5
  20471425.817      342286.977 8    269413.131 9
  20959310.491    17926867.856 8  -1154027.167 9
  22236346.198    15817829.664 7  -1926743.961 4
  23357091.042     -317511.305 6   -104957.832 4
  21932450.061    13824179.667 7   1810328.495 6
  24831821.797    14471147.476 5  -2181033.555 2
 94  5 15 15 29  0.0000000  0  8  2 27 18 19 31 28 29 16
  24236219.444     -997605.532 4   -716433.451 2
  22334840.881    -5109841.066 7  -2543636.551 5
  20476721.980      370113.762 8    291096.309 9
  20955437.233    17906522.448 8  -1169880.736 9
  22229009.047    15779275.557 7  -1956786.085 4
  23360378.027     -300225.106 6    -91488.057 4
  21945957.270    13895180.803 7   1865653.988 6
  24819394.141    14405848.768 5  -2231915.685 2
 94  5 15 15 29 30.0000000  0  8  2 27 18 19 31 28 29 16
  24218966.418    -1088230.992 4   -787050.645 2
  22322663.522    -5173829.832 7  -2593497.908 5
  20482158.477      398689.956 8    313363.466 9
  20951647.316    17886610.546 8  -1185396.506 9
  22221820.414    15741476.928 7  -1986239.556 5
  23363820.723     -282125.974 6    -77384.825 4
  21959578.010    13966748.820 7   1921421.219 5
  24807091.648    14341212.456 5  -2282281.640 2
 94  5 15 15 30  0.0000000  0  8  2 27 18 19 31 28 29 16
  24201800.032    -1178447.835 4   -857349.480 2
  22310554.844    -5237464.144 7  -2643083.072 5
  20487731.349      427985.608 8    336191.235 9
  20947940.323    17867105.741 8  -1200595.064 9
  22214765.098    15704426.031 7  -2015110.400 4
  23367417.663     -263226.057 6    -62657.681 4
  21973306.107    14038881.660 7   1977628.602 5
  24794921.933    14277229.189 5  -2332138.729 2
 94  5 15 15 30 30.0000000  0  8  2 27 18 19 31 28 29 16
  24184701.999    -1268276.371 4   -927345.638 2
  22298514.490    -5300753.509 7  -2692399.469 5
  20493440.896      457983.834 8    359566.451 9
  20944302.341    17847995.558 8  -1215486.117 9
  22207855.991    15668121.068 7  -2043399.964 5
  23371162.161     -243547.969 6    -47324.098 4
  21987140.210    14111582.991 7   2034278.931 5
  24782866.798    14213888.373 5  -2381495.149 2
 94  5 15 15 31  0.0000000  0  8  2 27 18 19 31 28 29 16
  24167683.771    -1357715.839 5   -997038.678 2
  22286533.974    -5363708.351 7  -2741455.153 5
  20499279.924      488666.726 8    383475.193 9
  20940738.948    17829261.927 8  -1230083.755 9
  22201094.232    15632567.663 7  -2071103.898 5
  23375049.270     -223121.926 6    -31407.692 4
  22001086.645    14184877.728 7   2091391.674 5
  24770941.114    14151187.767 5  -2430352.754 2
 94  5 15 15 31 30.0000000  0  8  2 27 18 19 31 28 29 16
  24150747.475    -1446773.478 5  -1066434.184 2
  22274612.697    -5426340.298 7  -2790259.248 5
  20505244.205      520026.000 8    407910.963 9
  20937242.768    17810889.872 8  -1244399.640 9
  22194471.367    15597772.773 7  -2098216.797 5
  23379078.271     -201950.386 6    -14910.442 4
  22015151.408    14258769.158 7   2148969.379 5
  24759123.865    14089115.862 5  -2478720.450 2
 94  5 15 15 32  0.0000000  0  8  2 27 18 19 31 28 29 16
  24133868.441    -1535433.448 5  -1135519.891 2
  22262756.684    -5488650.115 7  -2838812.367 5
  20511346.570      552082.712 8    432890.202 9
  20933815.781    17792889.418 8  -1258425.978 9
  22187994.741    15563736.478 6  -2124738.572 5
  23383250.962     -180032.081 6      2168.740 4
  22029323.407    14333263.388 7   2207016.813 5
  24747435.197    14027672.793 5  -2526598.164 2
 94  5 15 15 32 30.0000000  0  8  2 27 18 19 31 28 29 16
  24117073.168    -1623696.650 5  -1204296.352 2
  22250955.444    -5550656.912 7  -2887129.323 5
  20517580.545      584845.561 8    458419.688 9
  20930461.883    17775267.145 8  -1272157.620 9
  22181660.066    15530451.096 6  -2150675.229 5
  23387559.010     -157383.603 6     19816.926 4
  22043614.273    14408353.650 7   2265528.651 5
  24735853.615    13966846.475 5  -2573995.207 2
 94  5 15 15 33  0.0000000  0  8  2 27 18 19 31 28 29 16
  24100351.644    -1711555.461 5  -1272757.650 2
  22239211.404    -5612377.781 7  -2935223.475 5
  20523951.914      618310.728 8    484496.417 9
  20927177.956    17758010.294 8  -1285604.522 9
  22175466.624    15497907.787 6  -2176033.643 5
  23392004.452     -134016.312 6     38025.149 4
  22058012.346    14484025.580 7   2324493.755 5
  24724402.322    13906651.742 5  -2620900.134 2
 94  5 15 15 33 30.0000000  0  8  2 27 18 19 31 28 29 16
  24083710.554    -1799010.815 5  -1340904.784 2
  22227519.558    -5673822.066 7  -2983102.154 5
  20530454.622      652484.249 8    511125.110 9
  20923967.479    17741128.339 8  -1298759.301 9
  22169406.889    15466081.106 6  -2200833.652 5
  23396594.904     -109935.463 6     56789.451 4
  22072516.365    14560246.627 7   2383886.753 5
  24713064.112    13847089.946 5  -2667311.933 2
 94  5 15 15 34  0.0000000  0  8  2 27 18 19 31 28 29 16
  24067144.353    -1886073.975 5  -1408746.087 2
  22215879.247    -5734996.399 7  -3030770.442 6
  20537089.449      687353.718 8    538296.092 9
  20920827.363    17724635.453 8  -1311610.900 9
  22163486.168    15434953.523 6  -2225088.905 5
  23401306.263      -85158.186 6     76096.434 4
  22087124.532    14636999.794 7   2443694.348 5
  24701857.420    13788156.826 5  -2713233.791 2
 94  5 15 15 34 30.0000000  0  8  2 27 18 19 31 28 29 16
  24050651.990    -1972771.478 5  -1476302.503 2
  22204285.823    -5795914.906 7  -3078239.396 5
  20543850.099      722883.570 8    565981.687 9
  20917759.137    17708524.760 8  -1324164.680 9
  22157693.848    15404510.065 6  -2248811.081 5
  23406155.796      -59687.117 6     95943.972 4
  22101826.204    14714264.966 7   2503900.936 5
  24690751.728    13729863.296 5  -2758657.279 2
 94  5 15 15 35  0.0000000  0  8  2 27 18 19 31 28 29 16
  24034222.974    -2059102.734 5  -1543573.698 2
  22192742.884    -5856562.623 7  -3125497.384 5
  20550734.353      759063.333 8    594173.681 9
  20914770.146    17692796.608 8  -1336420.386 9
  22152035.655    15374761.637 6  -2271991.678 5
  23411134.479      -33511.675 6    116340.444 4
  22116627.168    14792031.443 7   2564498.147 5
  24679782.952    13672211.440 5  -2803580.860 2
 94  5 15 15 35 30.0000000  0  8  2 27 18 19 31 28 29 16
  24017854.126    -2145078.950 5  -1610568.052 2
  22181257.235    -5916921.525 7  -3172530.262 5
  20557739.273      795876.669 8    622859.370 9
  20911849.478    17677449.121 8  -1348379.469 9
  22146504.724    15345697.971 7  -2294638.675 5
  23416248.578       -6626.110 6    137290.226 4
  22131520.257    14870288.212 7   2625477.398 5
  24668932.054    13615173.824 5  -2848025.722 2
 94  5 15 15 36  0.0000000  0  8  2 27 18 19 31 28 29 16
  24001559.476    -2230713.587 5  -1677296.310 2
  22169824.590    -5976988.497 7  -3219335.690 5
  20564864.141      833316.378 8    652033.150 9
  20908997.432    17662458.287 8  -1360060.641 9
  22141107.260    15317341.216 7  -2316734.853 5
  23421499.473       20977.050 6    158799.163 4
  22146504.124    14949041.829 7   2686843.800 5
  24658193.158    13558749.218 5  -2891992.880 2
 94  5 15 15 36 30.0000000  0  8  2 27 18 19 31 28 29 16
  23985335.548    -2315998.476 5  -1743752.082 2
  22158452.772    -6036760.055 7  -3265910.939 5
  20572110.994      871386.966 8    681698.522 9
  20906207.084    17647804.680 8  -1371479.045 9
  22135844.314    15289707.890 7  -2338267.320 5
  23426889.712       49308.793 6    180875.794 4
  22161586.053    15028290.865 7   2748596.264 5
  24647585.811    13502941.870 5  -2935479.205 2
 94  5 15 15 37  0.0000000  0  8  2 27 18 19 31 28 29 16
  23969168.490    -2400926.102 5  -1809929.385 2
  22147137.106    -6096228.382 7  -3312249.864 6
  20579477.015      910099.755 8    711864.297 9
  20903481.761    17633484.092 8  -1382637.940 9
  22130724.338    15262797.076 7  -2359236.780 5
  23432423.071       78360.114 6    203513.223 4
  22176758.550    15108033.081 7   2810732.991 5
  24637077.486    13447738.441 5  -2978494.823 2
 94  5 15 15 37 30.0000000  0  8  2 27 18 19 31 28 29 16
  23953076.110    -2485501.416 5  -1875832.164 2
  22135874.803    -6155414.998 7  -3358369.303 6
  20586963.851      949451.318 8    742527.841 9
  20900817.865    17619490.330 8  -1393542.174 9
  22125745.805    15236606.967 7  -2379644.653 5
  23438083.243      108122.431 6    226704.611 4
  22192029.108    15188270.956 7   2873255.959 5
  24626680.744    13393147.288 5  -3021033.365 2
 94  5 15 15 38  0.0000000  0  8  2 27 18 19 31 28 29 16
  23937043.600    -2569736.896 5  -1941470.227 2
  22124659.447    -6214354.609 7  -3404296.272 6
  20594573.903      989434.081 8    773683.215 9
  20898217.345    17605815.038 8  -1404198.255 9
  22120898.161    15211137.690 7  -2399490.839 5
  23443878.351      138579.601 6    250437.430 4
  22207390.324    15268996.398 7   2936158.871 5
  24616405.957    13339171.359 5  -3063092.568 2
 94  5 15 15 38 30.0000000  0  8  2 27 18 19 31 28 29 16
  23921082.289    -2653626.425 5  -2006838.621 2
  22113489.780    -6273049.679 7  -3450032.670 6
  20602299.135     1030031.240 8    805317.344 9
  20895679.542    17592475.391 8  -1414592.787 9
  22116181.766    15186368.193 7  -2418791.728 5
  23449805.787      169721.310 6    274703.666 4
  22222841.867    15350196.410 7   2999431.555 5
  24606251.507    13285801.795 5  -3104679.168 2
 94  5 15 15 39  0.0000000  0  8  2 27 18 19 31 28 29 16
  23905180.518    -2737175.063 5  -2071941.390 2
  22102367.270    -6331505.661 7  -3495582.764 6
  20610144.134     1071257.630 8    837441.779 9
  20893207.603    17579485.725 9  -1424714.603 9
  22111601.956    15162294.815 7  -2437550.196 5
  23455863.723      201543.946 6    299500.553 4
  22238382.298    15431877.286 7   3063078.949 5
  24596229.954    13233043.311 5  -3145789.628 2
 94  5 15 15 39 30.0000000  0  8  2 27 18 19 31 28 29 16
  23889352.016    -2820393.820 5  -2136787.144 2
  22091287.150    -6389728.961 7  -3540951.581 6
  20618108.481     1113111.934 8    870055.510 9
  20890800.690    17566839.681 9  -1434568.665 9
  22107153.456    15138927.154 7  -2455758.788 5
  23462049.251      234054.978 6    324833.771 3
  22254020.912    15514039.026 7   3127101.052 5
  24586296.961    13180900.212 4  -3186420.701 2
 94  5 15 15 40  0.0000000  0  8  2 27 18 19 31 28 29 16
  23873571.750    -2903283.824 5  -2201376.734 2
  22080255.028    -6447696.024 7  -3586120.700 6
  20626197.091     1155610.429 8    903171.195 9
  20888460.450    17554539.335 9  -1444153.371 9
  22102842.531    15116270.176 7  -2473413.543 5
  23468365.669      267262.140 6    350709.483 3
  22269744.757    15596682.057 7   3191498.149 5
  24576494.407    13129376.477 4  -3226569.001 2
 94  5 15 15 40 30.0000000  0  8  2 27 18 19 31 28 29 16
  23857865.893    -2985837.189 5  -2265703.976 3
  22069276.148    -6505388.616 7  -3631075.942 6
  20634407.507     1198770.325 8    936802.255 9
  20886185.055     1779511.90518     -4929.412
  22098673.557    15094336.840 7  -2490504.449 5
  23474820.410      301170.930 6    377131.888 3
  22285565.104    15679821.632 7   3256282.198 5
  24566799.688    13078478.708 4  -3266229.541 2
 94  5 15 15 41  0.0000000  0  8  2 27 18 19 31 28 29 16
  23842217.117    -3068074.478 5  -2329784.940 3
  22058344.936    -6562832.598 7  -3675837.495 6
  20642742.787     1242582.907 8    970941.908 9
  20883971.088     1767879.006 8    -13989.923
  22094632.384    15073121.833 7  -2507035.652 5
  23481405.651      335757.469 6    404082.409 3
  22301483.574    15763451.557 7   3321448.326 5
  24557236.309    13028191.569 4  -3305414.389 2
 94  5 15 15 41 30.0000000  0  8  2 27 18 19 31 28 29 16
  23826632.286    -3149980.666 5  -2393607.940 2
  22047460.641    -6620024.474 7  -3720402.578 6
  20651203.200     1287024.943 8   1005572.044 9
  20881814.920     1756550.403 8    -22814.209
  22090731.185    15052627.953 7  -2523004.881 5
  23488110.809      371021.385 6    431560.773 3
  22317487.365    15847568.743 7   3386994.121 5
  24547778.966    12978508.315 4  -3344128.540 2
 94  5 15 15 42  0.0000000  0  8  2 27 18 19 31 28 29 16
  23811107.353    -3231539.061 5  -2457159.845 3
  22036622.724    -6676972.221 7  -3764777.436 6
  20659780.711     1332094.946 8   1040691.507 9
  20879717.512     1745527.766 8    -31389.575
  22086965.102    15032843.770 7  -2538421.131 5
  23494951.024      406956.581 6    459562.202 3
  22333584.091    15932170.856 7   3452917.820 5
  24538443.099    12929413.898 4  -3382383.848 2
 94  5 15 15 42 30.0000000  0  8  2 27 18 19 31 28 29 16
  23795660.727    -3312738.942 5  -2520432.426 3
  22025830.975    -6733695.037 7  -3808977.031 6
  20668475.142     1377784.032 8   1076293.373 9
  20877678.114     1734806.034 8    -39749.459 1
  22083335.755    15013756.119 7  -2553294.620 5
  23501914.513      443547.557 6    488074.622 3
  22349779.570    16017260.396 7   3519221.316 5
  24529206.554    12880892.206 4  -3420192.917 2
 94  5 15 15 43  0.0000000  0  8  2 27 18 19 31 28 29 16
  23780277.506    -3393577.452 5  -2583423.454 3
  22015080.567    -6790197.406 7  -3853004.828 6
  20677284.034     1424083.237 8   1112370.644 9
  20875693.668     1724378.003 8    -47875.641 3
  22079832.560    14995351.136 7  -2567636.146 5
  23509003.885      480789.392 6    517094.204 3
  22366060.608    16102824.920 7   3585894.911 5
  24520082.100    12832948.043 4  -3457552.035 2
 94  5 15 15 43 30.0000000  0  8  2 27 18 19 31 28 29 16
  23764959.221    -3474055.703 5  -2646133.798 3
  22004370.961    -6846472.301 7  -3896855.392 6
  20686211.524     1470994.510 8   1148924.865 9
  20873766.512     1714248.992 8    -55768.382 5
  22076461.634    14977624.509 7  -2581449.095 5
  23516210.746      518678.714 6    546618.349 3
  22382432.664    16188851.571 7   3652928.615 5
  24511071.808    12785590.079 4  -3494454.294 2
 94  5 15 15 44  0.0000000  0  8  2 27 18 19 31 28 29 16
  23749713.965    -3554187.910 5  -2708574.368 3
  21993706.264    -6902510.169 7  -3940521.274 6
  20695257.222     1518531.672 8   1185966.783 9
  20871897.096     1704432.721 8    -63417.433 7
  22073218.689    14960578.204 7  -2594731.940 5
  23523546.128      557220.496 6    576650.871 3
  22398892.290    16275346.650 7   3720327.341 5
  24502177.116    12738831.589 4  -3530889.445 2
 94  5 15 15 44 30.0000000  0  8  2 27 18 19 31 28 29 16
  23734528.848    -3633979.375 5  -2770749.526 3
  21983090.763    -6958297.238 7  -3983991.703 6
  20704421.667     1566687.617 8   1223490.867 9
  20870093.095     1694932.227 8    -70820.416 7
  22070102.526    14944220.144 7  -2607478.484 5
  23531004.305      596411.723 6    607189.475 3
  22415440.473    16362304.244 6   3788086.479 5
  24493391.218    12692694.890 4  -3566840.148 2
 94  5 15 15 45  0.0000000  0  8  2 27 18 19 31 28 29 16
  23719409.205    -3713435.400 5  -2832663.342 2
  21972525.057    -7013821.660 7  -4027257.503 6
  20713702.582     1615451.600 8   1261488.739 9
  20868344.226     1685756.310 8    -77970.484 8
  22067122.109    14928560.942 7  -2619680.447 5
  23538582.998      636257.245 6    638237.925 3
  22432070.471    16449702.305 7   3856188.787 5
  24484737.799    12647187.615 5  -3602300.347 2
 94  5 15 15 45 30.0000000  0  8  2 27 18 19 31 28 29 16
  23704351.799    -3792551.821 6  -2894312.442 3
  21962008.668    -7069079.629 7  -4070315.644 6
  20723094.900     1664814.851 8   1299953.580 9
  20866660.951     1676914.156 8    -84860.481 8
  22064273.661    14913599.675 7  -2631338.586 5
  23546292.821      676762.003 6    669800.039 3
  22448783.750    16537525.540 7   3924622.455 5
  24476198.061    12602288.861 5  -3637286.379 2
 94  5 15 15 46  0.0000000  0  8  2 27 18 19 31 28 29 16
  23689362.146    -3871339.673 6  -2955705.526 2
  21951541.564    -7124090.920 7  -4113181.584 6
  20732597.541     1714756.319 8   1338868.985 9
  20865040.573     1668395.555 8    -91498.353 9
  22061563.088    14899326.534 7  -2642460.507 5
  23554124.809      717919.532 6    701870.804 3
  22465573.627    16625760.721 7   3993377.091 5
  24467761.391    12557976.772 5  -3671815.275 2
 94  5 15 15 46 30.0000000  0  8  2 27 18 19 31 28 29 16
  23674428.854    -3949789.201 5  -3016835.059 2
  21941119.159    -7178866.327 7  -4155863.717 6
  20742209.787     1765268.157 8   1378228.819 9
  20863476.676     1660195.339 8    -97888.133 9
  22058977.318    14885742.490 7  -2653045.469 5
  23562075.784      759711.990 6    734436.358 3
  22482440.790    16714388.621 7   4062437.726 4
  24459430.998    12514242.634 5  -3705893.846 2
 94  5 15 15 47  0.0000000  0  8  2 27 18 19 31 28 29 16
  23659568.951    -4027909.093 6  -3077707.628 2
  21930735.368    -7233424.788 7  -4198376.799 6
  20751929.178     1816346.813 8   1418030.354 9
  20861979.542     1652309.800 8   -104032.711 9
  22056521.958    14872838.152 7  -2663100.789 5
  23570153.362      802138.841 6    767496.182 3
  22499376.006    16803402.023 7   4131798.783 4
  24451221.392    12471077.090 5  -3739529.284 2
 94  5 15 15 47 30.0000000  0  8  2 27 18 19 31 28 29 16
  23644762.262    -4105707.721 6  -3138329.917 2
  21920389.110    -7287787.459 7  -4240737.308 6
  20761757.185     1867991.746 8   1458273.124 9
  20860538.500     1644729.145 8   -109939.712 9
  22054195.118    14860615.561 7  -2672624.883 5
  23578350.797      845202.669 6    801052.385 3
  22516392.616    16892817.720 7   4201473.334 4
  24443117.582    12428490.465 5  -3772713.715 2
 94  5 15 15 48  0.0000000  0  8  2 27 18 19 31 28 29 16
  23630018.678    -4183194.545 6  -3198709.266 3
  21910082.875    -7341958.898 7  -4282948.821 6
  20771693.026     1920208.358 8   1498961.371 9
  20859149.381     1637441.920 8   -115618.080 9
  22051997.460    14849084.818 7  -2681609.871 5
  23586659.186      888889.583 6    835094.137 3
  22533489.390    16982653.377 7   4271475.082 4
  24435130.841    12386505.135 5  -3805429.539 2
 94  5 15 15 48 30.0000000  0  8  2 27 18 19 31 28 29 16
  23615333.645    -4260356.509 6  -3258835.429 3
  21899812.765    -7395921.833 7  -4324997.849 6
  20781741.710     1973009.463 8   1540105.061 9
  20857818.573     1630448.331 8   -121067.628 9
  22049938.875    14838250.388 7  -2690052.284 5
  23595097.924      933207.557 6    869627.597 3
  22550662.581    17072912.946 7   4341807.181 4
  24427256.043    12345135.349 5  -3837665.683 2
 94  5 15 15 49  0.0000000  0  8  2 27 18 19 31 28 29 16
  23600707.790    -4337204.029 6  -3318716.578 3
  21889585.225    -7449672.076 7  -4366881.145 6
  20791901.106     2026391.254 8   1581701.242 9
  20856541.637     1623742.093 8   -126293.282 9
  22048008.002    14828106.621 7  -2697956.509 5
  23603644.347      978159.617 6    904655.145 3
  22567920.614    17163601.864 7   4412473.843 4
  24419495.465    12304379.159 5  -3869423.773 2
 94  5 15 15 49 30.0000000  0  8  2 27 18 19 31 28 29 16
  23586145.042    -4413737.843 6  -3378353.305 3
  21879401.665    -7503187.185 7  -4408581.225 6
  20802169.358     2080357.333 8   1623752.707 9
  20855322.591     1617323.589 8   -131294.709 9
  22046211.765    14818659.032 7  -2705318.266 5
  23612317.553     1023731.895 6    940166.005 2
  22585261.029    17254722.299 6   4483476.752 4
  24411855.044    12264227.422 5  -3900710.820 2
 94  5 15 15 50  0.0000000  0  8  2 27 18 19 31 28 29 16
  23571645.879    -4489953.204 6  -3437741.858 3
  21869265.383    -7556444.662 7  -4450080.550 7
  20812551.291     2134910.600 8   1666261.718 8
  20854153.490     1611196.447 8   -136069.105 9
  22044543.840    14809895.626 7  -2712146.877 5
  23621105.039     1069906.282 6    976146.013 2
  22602680.740    17346259.214 6   4554804.160 4
  24404330.913    12224656.396 5  -3931545.370 2
 94  5 15 15 50 30.0000000  0  8  2 27 18 19 31 28 29 16
  23557203.018    -4565850.667 6  -3496882.674 3
  21859184.651    -7609440.904 7  -4491376.314 7
  20823044.356     2190047.450 8   1709225.493 8
  20853043.418     1605365.201 8   -140612.937 9
  22043009.862    14801814.163 7  -2718444.126 5
  23630008.785     1116687.601 6   1012598.968 2
  22620175.099    17438198.054 6   4626444.780 4
  24396907.183    12185653.172 5  -3961937.510 2
 94  5 15 15 51  0.0000000  0  8  2 27 18 19 31 28 29 16
  23542815.708    -4641438.339 6  -3555782.134 3
  21849145.981    -7662188.769 7  -4532478.537 7
  20833644.388     2245758.797 8   1752636.897 8
  20851991.717     1599828.883 8   -144926.951 9
  22041596.101    14794408.166 7  -2724215.033 5
  23639025.643     1164063.194 6   1049515.005 2
  22637748.873    17530542.173 6   4698401.220 4
  24389591.797    12147214.470 6  -3991889.749 2
 94  5 15 15 51 30.0000000  0  8  2 27 18 19 31 28 29 16
  23528491.324    -4716706.515 6  -3614432.666 3
  21839153.179    -7714696.529 7  -4573393.677 7
  20844355.553     2302044.399 8   1796495.780 8
  20850995.656     1594586.587 8   -149011.861 9
  22040315.387    14787683.729 7  -2729454.842 5
  23648150.366     1212041.333 6   1086900.533 2
  22655395.976    17623297.484 6   4770677.996 4
  24382386.315    12109347.937 6  -4021396.092 2
 94  5 15 15 52  0.0000000  0  8  2 27 18 19 31 28 29 16
  23514231.456    -4791655.503 6  -3672834.407 3
  21829204.986    -7766984.992 7  -4614137.921 7
  20855174.703     2358902.339 8   1840800.653 8
  20850053.169     1589624.344 8   -152878.557 9
  22039166.163    14781644.812 7  -2734160.506 5
  23657401.422     1260640.327 6   1124769.847 2
  22673128.580    17716466.802 6   4843277.452 4
  24375294.185    12072066.568 6  -4050446.496 2
 94  5 15 15 52 30.0000000  0  8  2 27 18 19 31 28 29 16
  23500028.429    -4866279.430 6  -3730982.877 3
  21819295.076    -7819059.429 7  -4654715.401 7
  20866103.187     2416338.996 8   1885556.491 8
  20849159.098     1584937.262 8   -156530.823 9
  22038151.665    14776306.052 7  -2738320.575 5
  23666774.403     1309882.245 6   1163140.200 2
  22690936.192    17810052.042 6   4916200.962 4
  24368312.258    12035391.689 5  -4079024.370 2
 94  5 15 15 53  0.0000000  0  8  2 27 18 19 31 28 29 16
  23485890.157    -4940574.880 6  -3788875.431 3
  21809422.491    -7870934.934 7  -4695137.870 7
  20877143.884     2474345.175 8   1930756.079 8
  20848319.499     1580519.560 8   -159973.203 9
  22037269.766    14771662.310 7  -2741939.095 5
  23676259.716     1359759.015 5   1202005.141 2
  22708825.377    17904041.749 6   4989439.611 4
  24361441.375    11999329.378 6  -4107124.812 3
 94  5 15 15 53 30.0000000  0  8  2 27 18 19 31 28 29 16
  23471816.550    -5014541.753 6  -3846511.913 3
  21799588.849    -7922604.753 7  -4735400.076 7
  20888291.397     2532921.585 8   1976400.030 8
  20847528.556     1576368.140 8   -163208.069 9
  22036519.355    14767723.840 7  -2745008.011 5
  23685876.609     1410266.103 5   1241361.296 2
  22726783.665    17998425.190 6   5062985.095 4
  24354703.689    11963878.149 5  -4134749.167 3
 94  5 15 15 54  0.0000000  0  8  2 27 18 19 31 28 29 16
  23457804.640    -5088176.070 6  -3903889.280 3
  21789798.436    -7974060.694 7  -4775495.598 7
  20899548.723     2592073.756 8   2022492.624 8
  20846790.887     1572490.662 8   -166229.487 9
  22035899.114    14764480.936 7  -2747534.940 5
  23695602.506     1461379.856 5   1281190.181 2
  22744812.674    18093186.488 6   5136825.018 4
  24348070.302    11929034.920 5  -4161899.738 3
 94  5 15 15 54 30.0000000  0  8  2 27 18 19 31 28 29 16
  23443855.866    -5161476.380 6  -3961006.402 3
  21780045.708    -8025307.645 7  -4815428.281 7
  20910909.688     2651779.762 8   2069016.759 8
  20846106.401     1568898.482 8   -169028.601 9
  22035412.461    14761911.045 7  -2749537.466 5
  23705440.975     1513064.454 5   1321463.871 2
  22762916.391    18188305.815 6   5210943.908 4
  24341555.512    11894797.762 5  -4188577.998 3
 94  5 15 15 55  0.0000000  0  8  2 27 18 19 31 28 29 16
  23429972.448    -5234444.217 6  -4017864.415 3
  21770334.321    -8076345.065 7  -4855197.697 7
  20922374.232     2712030.135 8   2115965.084 8
  20845479.325     1565603.570 8   -171596.059 9
  22035052.860    14760011.100 7  -2751017.956 5
  23715376.756     1565303.243 5   1362169.381 3
  22781089.720    18283796.908 6   5285352.518 4
  24335163.127    11861168.172 5  -4214782.861 3
 94  5 15 15 55 30.0000000  0  8  2 27 18 19 31 28 29 16
  23416146.649    -5307082.433 6  -4074465.581 3
  21760664.755    -8127158.911 7  -4894792.898 7
  20933944.812     2772832.558 8   2163343.558 8
  20844909.599     1562614.135 8   -173925.500 9
  22034814.345    14758776.940 7  -2751979.649 5
  23725427.808     1618093.428 5   1403304.566 3
  22799332.960    18379673.019 6   5360061.111 4
  24328878.068    11828144.090 5  -4240515.975 3
 94  5 15 15 56  0.0000000  0  8  2 27 18 19 31 28 29 16
  23402386.745    -5379393.533 6  -4130811.873 3
  21751033.683    -8177763.759 7  -4934225.239 7
  20945617.980     2834178.871 8   2211145.868 8
  20844401.211     1559939.599 8   -176009.563 9
  22034704.621    14758203.834 7  -2752426.225 5
  23735575.633     1671436.475 5   1444870.556 3
  22817650.429    18475926.680 6   5435063.902 4
  24322710.198    11795718.569 5  -4265782.571 3
 94  5 15 15 56 30.0000000  0  8  2 27 18 19 31 28 29 16
  23388686.289    -5451389.613 6  -4186912.696 3
  21741443.922    -8228164.357 7  -4973498.437 7
  20957394.008     2896059.667 8   2259364.645 8
  20843951.103     1557577.612 8   -177850.065 9
  22034727.885    14758300.565 7  -2752350.863 5
  23745831.983     1725356.984 5   1486886.493 3
  22836038.739    18572559.922 6   5510362.473 4
  24316646.056    11763880.488 5  -4290591.460 3
 94  5 15 15 57  0.0000000  0  8  2 27 18 19 31 28 29 16
  23375050.080    -5523072.264 6  -4242769.258 3
  21731894.842    -8278353.717 7  -5012607.011 7
  20969273.914     2958493.539 8   2308014.392 8
  20843559.544     1555514.914 8   -179457.381 9
  22034877.212    14759091.587 7  -2751734.502 5
  23756209.149     1779880.370 5   1529372.228 3
  22854499.149    18669576.028 6   5585959.410 4
  24310696.075    11732615.364 5  -4314953.940 2
 94  5 15 15 57 30.0000000  0  8  2 27 18 19 31 28 29 16
  23361463.905    -5594449.407 6  -4298387.789 3
  21722381.918    -8328330.638 7  -5051550.066 7
  20981262.224     3021487.479 8   2357100.560 8
  20843222.367     1553743.879 8   -180837.409 9
  22035156.678    14760570.584 7  -2750582.038 5
  23766699.456     1835017.019 5   1572335.837 3
  22873029.231    18766952.549 6   5661837.147 4
  24304852.011    11701909.125 5  -4338880.843 3
 94  5 15 15 58  0.0000000  0  8  2 27 18 19 31 28 29 16
  23347937.659    -5665534.116 6  -4353778.467 3
  21712908.926    -8378109.909 7  -5090339.108 7
  20993355.642     3085037.487 8   2406620.042 8
  20842937.505     1552249.607 8   -182001.773 9
  22035569.373    14762742.153 7  -2748889.893 5
  23777316.786     1890777.635 5   1615785.626 3
  22891626.767    18864687.880 6   5737994.492 4
  24299107.238    11671752.774 5  -4362379.310 3
 94  5 15 15 58 30.0000000  0  8  2 27 18 19 31 28 29 16
  23334460.489    -5736326.310 6  -4408941.166 3
  21703479.314    -8427677.904 7  -5128963.517 7
  21005552.039     3149136.132 8   2456567.014 8
  20842704.656     1551018.300 8   -182961.254 9
  22036114.246    14765601.122 7  -2746662.141 5
  23788043.120     1947169.261 5   1659727.108 3
  22910294.033    18962787.587 6   5814435.771 4
  24293482.532    11642161.458 5  -4385437.455 2
 94  5 15 15 59  0.0000000  0  8  2 27 18 19 31 28 29 16
  23321049.903    -5806821.021 6  -4463872.066 3
  21694083.099    -8477037.904 7  -5167425.839 7
  21017857.170     3213784.358 8   2506942.220 8
  20842522.142     1550054.262 8   -183712.456 9
  22036787.849    14769131.349 7  -2743911.316 5
  23798892.130     2004170.565 5   1704143.699 3
  22929032.411    19061252.802 6   5891161.859 4
  24287964.432    11613147.568 5  -4408045.694 3
 94  5 15 15 59 30.0000000  0  8  2 27 18 19 31 28 29 16
  23307694.899    -5877010.873 6  -4518565.455 3
  21684728.615    -8526202.151 7  -5205735.644 7
  21030259.015     3278973.647 8   2557739.055 8
  20842391.882     1549373.644 8   -184242.808 9
  22037584.128    14773324.882 7  -2740643.649 5
  23809846.276     2061757.373 6   1749016.498 3
  22947840.161    19160090.739 6   5968178.384 4
  24282559.054    11584721.664 5  -4430195.719 3
 94  5 15 16  0  0.0000000  0  8  2 27 18 19 31 28 29 16
  23294396.105    -5946884.762 6  -4573012.589 4
  21675408.607    -8575182.922 7  -5243902.457 7
  21042761.919     3344678.450 8   2608937.572 8
  20842315.855     1548971.106 8   -184556.486 9
  22038504.311    14778182.830 7  -2736858.242 5
  23820914.674     2119901.487 5   1794323.553 3
  22966718.092    19259296.013 6   6045481.146 4
  24277254.976    11556894.139 5  -4451879.522 2
 94  5 15 16  0 30.0000000  0  8  2 27 18 19 31 28 29 16
  23281162.696    -6016421.453 6  -4627197.007 4
  21666123.735    -8623967.610 7  -5281916.508 7
  21055362.556     3410891.274 8   2660531.942 8
  20842289.443     1548847.414 8   -184652.884 9
  22039559.550    14783700.541 7  -2732558.731 5
  23832083.232     2178575.808 6   1840043.792 3
  22985659.729    19358840.598 6   6123048.311 4
  24272073.273    11529671.773 5  -4473091.777 2
 94  5 15 16  1  0.0000000  0  8  2 27 18 19 31 28 29 16
  23267994.343    -6085631.821 6  -4681127.143 4
  21656876.007    -8672562.318 7  -5319782.513 7
  21068061.854     3477626.435 8   2712533.357 8
  20842321.011     1549000.532 8   -184533.567 9
  22040735.396    14789893.189 7  -2727733.302 5
  23843345.056     2237760.547 6   1886161.764 3
  23004667.170    19458715.819 6   6200873.084 4
  24267010.168    11503038.552 5  -4493844.867 2
 94  5 15 16  1 30.0000000  0  8  2 27 18 19 31 28 29 16
  23254887.716    -6154528.691 6  -4734812.989 4
  21647668.661    -8720952.766 7  -5357489.349 7
  21080856.787     3544869.560 8   2764930.568 7
  20842400.007     1549409.349 8   -184215.019 9
  22042047.138    14796774.205 7  -2722371.483 5
  23854701.764     2297454.565 6   1932676.540 3
  23023731.842    19558905.740 6   6278943.086 4
  24262050.822    11476981.807 5  -4514148.873 2
 94  5 15 16  2  0.0000000  0  8  2 27 18 19 31 28 29 16
  23241828.727    -6223119.164 6  -4788260.064 4
  21638505.085    -8769115.132 7  -5395018.465 7
  21093751.849     3612615.129 8   2817719.304 7
  20842519.024     1550061.437 8   -183706.905 9
  22043488.660    14804348.170 7  -2716469.708 5
  23866166.067     2357680.109 6   1979605.484 3
  23042856.922    19659395.894 6   6357247.059 3
  24257209.533    11451509.023 5  -4533997.820 2
 94  5 15 16  2 30.0000000  0  8  2 27 18 19 31 28 29 16
  23228835.632    -6291413.826 6  -4841476.677 4
  21629382.670    -8817045.708 7  -5432366.962 7
  21106738.229     3680873.547 8   2870907.665 7
  20842693.983     1550960.859 8   -183006.060 9
  22045061.462    14812622.338 7  -2710022.333 5
  23877728.523     2418455.258 6   2026962.763 3
  23062036.804    19760193.403 6   6435790.503 3
  24252462.230    11426614.030 5  -4553396.474 2
 94  5 15 16  3  0.0000000  0  8  2 27 18 19 31 28 29 16
  23215889.754    -6359432.920 6  -4894478.543 4
  21620305.554    -8864752.946 7  -5469541.422 7
  21119821.382     3749630.208 8   2924484.241 7
  20842912.622     1552104.945 8   -182114.562 9
  22046769.649    14821597.971 7  -2703028.333 5
  23889394.256     2479775.184 6   2074744.451 3
  23081280.602    19861316.357 6   6514587.564 3
  24247836.882    11402294.576 5  -4572346.690 2
 94  5 15 16  3 30.0000000  0  8  2 27 18 19 31 28 29 16
  23203005.843    -6427152.187 6  -4947246.759 4
  21611269.090    -8912239.660 7  -5506544.066 7
  21132997.710     3818870.089 8   2978437.359 7
  20843176.859     1553505.917 8   -181022.915 9
  22048606.987    14831252.616 7  -2695505.234 5
  23901165.038     2541633.072 6   2122945.413 3
  23100588.555    19962769.785 6   6593642.132 3
  24243325.845    11378567.030 5  -4590835.719 2
 94  5 15 16  4  0.0000000  0  8  2 27 18 19 31 28 29 16
  23190178.803    -6494553.923 6  -4999767.579 4
  21602271.179    -8959523.127 7  -5543388.323 7
  21146268.113     3888601.800 8   3032773.712 7
  20843495.029     1555178.816 8   -179719.361 9
  22050568.109    14841578.810 7  -2687458.863 5
  23913040.986     2604029.737 6   2171566.176 3
  23119957.936    20064561.913 6   6672960.612 3
  24238924.412    11355443.634 5  -4608853.921 2
 94  5 15 16  4 30.0000000  0  8  2 27 18 19 31 28 29 16
  23177418.077    -6561627.172 6  -5052032.412 4
  21593310.172    -9006612.996 7  -5580081.729 7
  21159630.613     3958823.422 8   3087491.844 7
  20843870.669     1557130.401 8   -178198.642 9
  22052656.913    14852559.799 7  -2678902.265 5
  23925014.307     2666942.283 6   2220588.917 3
  23139393.301    20166698.105 6   6752547.184 3
  24234638.909    11332913.895 5  -4626409.570 2
 94  5 15 16  5  0.0000000  0  8  2 27 18 19 31 28 29 16
  23164716.560    -6628358.113 6  -5104030.533 4
  21584389.398    -9053490.655 7  -5616609.775 7
  21173088.506     4029546.596 8   3142600.776 7
  20844293.856     1559372.047 8   -176451.911 9
  22054875.617    14864192.094 7  -2669838.150 5
  23937081.463     2730371.448 6   2270014.192 3
  23158892.972    20269183.795 6   6832406.104 3
  24230463.219    11310988.506 5  -4643494.329 2
 94  5 15 16  5 30.0000000  0  8  2 27 18 19 31 28 29 16
  23152083.066    -6694748.866 6  -5155763.550 4
  21575506.967    -9100161.308 7  -5652976.522 7
  21186644.251     4100783.180 8   3198109.772 7
  20844776.551     1561896.823 8   -174484.558 9
  22057211.780    14876471.958 7  -2660269.440 5
  23949261.371     2794343.851 6   2319862.826 3
  23178455.479    20371992.682 6   6912516.866 3
  24226405.289    11289663.180 5  -4660111.450 2
 94  5 15 16  6  0.0000000  0  8  2 27 18 19 31 28 29 16
  23139511.360    -6760819.230 6  -5207246.902 4
  21566666.238    -9146618.474 7  -5689176.896 8
  21200298.299     4172531.771 8   3254017.725 7
  20845306.854     1564695.485 8   -172303.788 9
  22059673.886    14889411.049 7  -2650187.038 5
  23961538.622     2858876.322 6   2370147.878 3
  23198087.118    20475120.438 6   6992876.124 3
  24222458.341    11268917.151 5  -4676277.201 2
 94  5 15 16  6 30.0000000  0  8  2 27 18 19 31 28 29 16
  23126996.523    -6826589.368 6  -5258496.350 4
  21557867.329    -9192858.640 7  -5725208.185 8
  21214047.650     4244789.420 8   3310322.346 7
  20845892.439     1567762.266 8   -169914.094 9
  22062263.763    14903011.655 7  -2639589.181 5
  23973920.650     2923970.504 6   2420870.549 3
  23217769.902    20578558.260 6   7073476.947 3
  24218616.770    11248739.776 5  -4691999.886 2
 94  5 15 16  7  0.0000000  0  8  2 27 18 19 31 28 29 16
  23114532.142    -6892076.918 6  -5309525.578 4
  21549108.323    -9238888.621 7  -5761075.709 8
  21227896.653     4317562.417 8   3367028.559 7
  20846525.121     1571090.394 8   -167320.761 9
  22064975.685    14917291.680 7  -2628461.893 6
  23986422.235     2989641.896 6   2472043.131 3
  23237510.276    20682302.391 6   7154316.452 3
  24214894.637    11229130.984 5  -4707279.415 2
 94  5 15 16  7 30.0000000  0  8  2 27 18 19 31 28 29 16
  23102128.319    -6957272.131 6  -5360327.026 4
  21540386.761    -9284716.317 7  -5796785.586 8
  21241843.718     4390851.716 8   3424137.044 7
  20847208.828     1574688.805 8   -164516.812 9
  22067829.170    14932256.989 7  -2616800.632 6
  23999027.369     3055887.091 6   2523662.711 3
  23257313.697    20786357.713 6   7235398.482 3
  24211253.448    11210088.807 5  -4722117.508 2
 94  5 15 16  8  0.0000000  0  8  2 27 18 19 31 28 29 16
  23089775.491    -7022170.853 6  -5410897.447 4
  21531706.840    -9330342.648 7  -5832338.559 8
  21255887.046     4464656.735 8   3481647.423 7
  20847945.658     1578563.893 8   -161497.262 9
  22070801.102    14947896.061 7  -2604614.364 6
  24011743.606     3122681.218 6   2575710.050 3
  23277173.208    20890738.897 6   7316734.362 3
  24207739.611    11191600.478 5  -4736524.020 2
 94  5 15 16  8 30.0000000  0  8  2 27 18 19 31 28 29 16
  23077485.739    -7086764.100 6  -5461229.805 4
  21523058.637    -9375774.886 7  -5867740.307 8
  21270031.823     4538997.870 8   3539575.563 7
  20848741.037     1582723.595 8   -158255.947 9
  22073906.952    14964212.141 7  -2591900.552 6
  24024553.498     3190012.917 5   2628176.264 3
  23297099.514    20995453.352 6   7398329.993 3
  24204331.480    11173682.695 5  -4750485.914 2
 94  5 15 16  9  0.0000000  0  8  2 27 18 19 31 28 29 16
  23065253.607    -7151039.817 6  -5511314.779 4
  21514454.203    -9421005.971 7  -5902985.303 8
  21284284.646     4613879.846 8   3597925.113 7
  20849586.032     1587176.572 8   -154786.106 9
  22077138.145    14981201.349 7  -2578662.215 6
  24037455.306     3257869.285 5   2681051.376 3
  23317087.426    21100506.069 6   7480189.189 3
  24201032.054    11156340.424 5  -4763999.400 2
 94  5 15 16  9 30.0000000  0  8  2 27 18 19 31 28 29 16
  23053083.472    -7214989.082 6  -5561145.342 4
  21505886.045    -9466024.629 7  -5938064.788 8
  21298635.561     4689298.919 8   3656693.192 7
  20850491.315     1591935.804 8   -151077.609 9
  22080500.947    14998854.761 7  -2564906.345 6
  24050478.290     3326237.945 5   2734325.648 2
  23337148.428    21205896.194 6   7562311.303 3
  24197845.260    11139585.310 5  -4777055.360 2
 94  5 15 16 10  0.0000000  0  8  2 27 18 19 31 28 29 16
  23040975.485    -7278613.800 6  -5610723.023 4
  21497360.847    -9510819.567 7  -5972969.926 8
  21313089.065     4765249.107 8   3715875.109 7
  20851453.439     1596993.865 8   -147136.274 9
  22083986.514    15017175.332 7  -2550630.576 6
  24063585.007     3395119.771 5   2787999.732 2
  23357262.943    21311618.632 6   7644692.329 3
  24194778.743    11123437.755 5  -4789637.857 2
 94  5 15 16 10 30.0000000  0  8  2 27 18 19 31 28 29 16
  23028931.862    -7341916.616 6  -5660049.885 4
  21488880.408    -9555383.854 7  -6007695.336 8
  21327636.884     4841699.427 8   3775446.749 7
  20852474.442     1602353.793 8   -142959.713 9
  22087600.812    15036172.188 7  -2535827.838 6
  24076790.924     3464509.473 5   2842069.611 2
  23377441.104    21417658.483 6   7727320.740 3
  24191820.931    11107914.966 5  -4801733.574 2
 94  5 15 16 11  0.0000000  0  8  2 27 18 19 31 28 29 16
  23016946.310    -7404889.783 6  -5709119.873 4
  21480448.505    -9599705.123 7  -6042231.379 8
  21342275.540     4918621.158 8   3835385.716 7
  20853549.648     1608005.815 8   -138555.545 9
  22091344.710    15055843.429 7  -2520499.618 6
  24090089.268     3534411.908 5   2896539.069 2
  23397679.134    21524003.880 6   7810187.207 3
  24188982.586    11093011.689 5  -4813346.538 2
 94  5 15 16 11 30.0000000  0  8  2 27 18 19 31 28 29 16
  23005025.872    -7467534.332 6  -5757933.759 4
  21472058.513    -9643787.281 7  -6076581.121 8
  21356999.607     4996001.868 8   3895682.327 7
  20854677.767     1613931.112 8   -133938.437 9
  22095216.050    15076185.396 7  -2504648.729 6
  24103488.372     3604832.877 5   2951412.544 2
  23417973.015    21630642.894 6   7893282.469 3
  24186266.166    11078722.146 5  -4824481.236 2
 94  5 15 16 12  0.0000000  0  8  2 27 18 19 31 28 29 16
  22993167.252    -7529848.546 6  -5806490.281 4
  21463713.700    -9687636.105 8  -6110749.010 8
  21371811.153     5073841.731 8   3956336.717 7
  20855854.392     1620115.795 8   -129119.205 9
  22099210.335    15097200.900 7  -2488273.022 6
  24116987.187     3675780.181 5   3006696.100 2
  23438324.486    21737565.927 6   7976599.042 3
  24183652.426    11065030.461 5  -4835150.170 2
 94  5 15 16 12 30.0000000  0  8  2 27 18 19 31 28 29 16
  22981368.470    -7591846.559 6  -5854800.392 4
  21455412.957    -9731261.146 8  -6144742.558 8
  21386712.127     5152148.448 8   4017354.885 7
  20857082.462     1626560.500 8   -124097.367 9
  22103340.126    15118892.678 7  -2471370.344 6
  24130588.981     3747249.303 5   3062386.304 2
  23458719.876    21844761.385 6   8060127.903 3
  24181168.705    11051924.213 5  -4845362.838 2
 94  5 15 16 13  0.0000000  0  8  2 27 18 19 31 28 29 16
  22969636.302    -7653521.105 6  -5902858.462 4
  21447153.794    -9774667.868 8  -6178565.966 8
  21401708.226     5230950.380 8   4078758.922 7
  20858357.420     1633263.897 8   -118873.947 9
  22107596.519    15141260.861 7  -2453940.604 5
  24144287.877     3819247.160 5   3118488.541 2
  23479171.808    21952225.639 6   8143866.215 3
  24178779.150    11039401.659 5  -4855120.620 2
 94  5 15 16 13 30.0000000  0  8  2 27 18 19 31 28 29 16
  22957958.876    -7714872.243 6  -5950664.537 4
  21438932.886    -9817863.267 8  -6212224.708 8
  21416801.007     5310266.015 8   4140563.290 7
  20859686.040     1640248.725 8   -113431.226 9
  22111989.138    15164315.004 7  -2435976.340 5
  24158094.489     3891765.959 5   3174996.662 2
  23499668.738    22059954.161 6   8227810.425 3
  24176507.922    11027466.029 5  -4864421.171 2
 94  5 15 16 14  0.0000000  0  8  2 27 18 19 31 28 29 16
  22946345.306    -7775899.988 6  -5998218.588 4
  21430753.798    -9860853.496 8  -6245723.593 8
  21431992.570     5390083.866 8   4202758.957 7
  20861070.571     1647526.379 8   -107760.351 9
  22116504.223    15188059.840 7  -2417473.888 5
  24171984.623     3964783.904 5   3231893.704 2
  23520218.671    22167938.664 6   8311954.116 3
  24174349.026    11016106.873 5  -4873272.430 2
 94  5 15 16 14 30.0000000  0  8  2 27 18 19 31 28 29 16
  22934793.313    -7836609.287 6  -6045524.511 4
  21422611.465    -9903648.301 8  -6279070.200 8
  21447272.932     5470387.413 8   4265333.128 7
  20862508.376     1655085.948 8   -101869.772 9
  22121151.336    15212482.799 7  -2398443.013 6
  24185967.333     4038277.015 5   3289161.044 2
  23540814.143    22276175.258 6   8396294.229 3
  24172295.448    11005315.247 5  -4881681.508 2
 94  5 15 16 15  0.0000000  0  8  2 27 18 19 31 28 29 16
  22923304.367    -7896982.563 6  -6092568.615 4
  21414503.488    -9946249.024 8  -6312265.573 8
  21462641.822     5551157.409 8   4328270.741 7
  20863999.454     1662915.357 8    -95768.950 9
  22125927.779    15237567.576 7  -2378896.436 6
  24200043.219     4112242.271 5   3346796.283 2
  23561459.081    22384671.633 6   8480836.818 2
  24170350.784    10995079.575 5  -4889657.367 2
 94  5 15 16 15 30.0000000  0  8  2 27 18 19 31 28 29 16
  22911878.497    -7957028.873 6  -6139357.908 4
  21406431.156    -9988647.938 8  -6345303.694 8
  21478098.582     5632383.846 8   4391564.010 7
  20865539.548     1671008.049 8    -89462.961 9
  22130824.079    15263303.431 7  -2358842.548 5
  24214205.564     4186678.600 5   3404798.568 2
  23582157.622    22493440.005 6   8565591.272 2
  24168503.223    10985394.640 5  -4897204.077 2
 94  5 15 16 16  0.0000000  0  8  2 27 18 19 31 28 29 16
  22900510.816    -8016753.310 6  -6185896.411 4
  21398404.633   -10030837.970 8  -6378179.049 8
  21493642.761     5714059.820 7   4455207.591 7
  20867125.570     1679348.187 8    -82964.147 9
  22135842.695    15289677.674 7  -2338291.183 5
  24228463.034     4261600.670 5   3463179.394 2
  23602909.646    22602493.370 6   8650567.836 2
  24166771.292    10976276.133 5  -4904309.428 2
 94  5 15 16 16 30.0000000  0  8  2 27 18 19 31 28 29 16
  22889205.253    -8076184.359 6  -6232206.312 4
  21390411.416   -10072842.535 8  -6410909.858 8
  21509267.404     5796176.682 7   4519194.711 7
  20868753.203     1687912.374 8    -76290.761 9
  22140980.058    15316667.004 7  -2317260.552 5
  24242816.707     4337014.367 5   3521943.293 2
  23623718.210    22711828.705 6   8735764.143 2
  24165139.942    10967729.851 5  -4910968.891 2
 94  5 15 16 17  0.0000000  0  8  2 27 18 19 31 28 29 16
  22877949.635    -8135334.965 6  -6278297.670 4
  21382455.764   -10114653.015 8  -6443489.458 8
  21524978.418     5878733.172 7   4583524.414 7
  20870431.081     1696720.174 8    -69427.557 9
  22146234.971    15344281.772 7  -2295742.571 5
  24257260.078     4412934.325 5   3581101.647 2
  23644575.401    22821450.929 6   8821183.965 2
  24163628.268    10959763.794 5  -4917176.186 2
 94  5 15 16 17 30.0000000  0  8  2 27 18 19 31 28 29 16
  22866740.245    -8194230.009 6  -6324189.897 4
  21374537.825   -10156262.991 8  -6475912.804 8
  21540768.127     5961722.549 7   4648191.411 7
  20872154.528     1705777.342 8    -62370.027 9
  22151608.840    15372529.252 7  -2273731.557 5
  24271806.578     4489352.612 5   3640648.329 2
  23665490.272    22931348.345 5   8906818.230 2
  24162217.835    10952379.736 5  -4922930.001 2
 94  5 15 16 18  0.0000000  0  8  2 27 18 19 31 28 29 16
  22855582.959    -8252848.897 6  -6369866.935 4
  21366661.588   -10197661.835 8  -6508171.640 8
  21556646.754     6045152.185 7   4713201.482 6
  20873929.269     1715105.468 8    -55101.372 9
  22157106.314    15401430.514 7  -2251211.096 5
  24286445.654     4566270.838 5   3700584.603 3
  23686455.298    23041527.839 5   8992672.322 2
  24160932.385    10945596.434 5  -4928215.715 2
 94  5 15 16 18 30.0000000  0  8  2 27 18 19 31 28 29 16
  22844483.143    -8311172.173 6  -6415313.627 4
  21358826.152   -10238821.682 8  -6540244.244 8
  21572607.704     6129031.262 7   4778561.753 6
  20875760.732     1724735.471 8    -47597.485 9
  22162732.669    15430998.212 7  -2228171.339 5
  24301182.042     4643693.700 5   3760914.051 3
  23707480.883    23151988.515 5   9078745.473 2
  24159759.686    10939413.857 5  -4933033.310 2
 94  5 15 16 19  0.0000000  0  8  2 27 18 19 31 28 29 16
  22833448.293    -8369172.358 7  -6460508.549 4
  21351045.489   -10279714.334 8  -6572108.647 8
  21588660.961     6213373.662 7   4844283.053 6
  20877653.441     1734686.059 8    -39843.795 9
  22168488.325    15461239.502 7  -2204606.707 5
  24316001.982     4721605.846 5   3821624.758 3
  23728549.547    23262718.405 5   9165028.420 2
  24158686.669    10933836.997 5  -4937378.944 2
 94  5 15 16 19 30.0000000  0  8  2 27 18 19 31 28 29 16
  22822476.039    -8426838.714 7  -6505443.361 4
  21343312.013   -10320353.895 8  -6603775.830 8
  21604796.631     6298183.849 7   4910368.882 6
  20879608.987     1744941.987 8    -31852.169 9
  22174370.613    15492138.380 7  -2180529.664 5
  24330917.826     4799984.629 5   3882699.121 3
  23749664.799    23373696.550 5   9251504.801 3
  24157743.192    10928864.115 5  -4941253.905 2
 94  5 15 16 20  0.0000000  0  8  2 27 18 19 31 28 29 16
  22811568.480    -8484166.775 7  -6550114.569 4
  21335623.205   -10360767.771 8  -6635267.170 8
  21621025.416     6383463.003 7   4976820.119 6
  20881612.560     1755484.629 8    -23637.137 9
  22180371.348    15523678.208 7  -2155953.174 5
  24345919.920     4878815.925 5   3944126.079 3
  23770830.447    23484894.850 5   9338152.708 3
  24156911.328    10924479.634 5  -4944670.440 2
 94  5 15 16 20 30.0000000  0  8  2 27 18 19 31 28 29 16
  22800720.040    -8541177.632 7  -6594538.582 4
  21327970.943   -10400979.568 8  -6666601.030 8
  21637340.091     6469198.789 7   5043627.171 6
  20883669.137     1766291.887 8    -15215.903 9
  22186492.361    15555847.117 7  -2130886.507 5
  24361002.419     4958081.334 5   4005891.250 3
  23792027.812    23596297.521 5   9424959.894 3
  24156185.771    10920662.803 5  -4947644.566 2
 94  5 15 16 21  0.0000000  0  8  2 27 18 19 31 28 29 16
  22789929.010    -8597877.168 7  -6638720.012 4
  21320352.797   -10441009.984 8  -6697793.545 8
  21653740.867     6555393.347 7   5110791.713 6
  20885776.348     1777344.628 8     -6603.388 9
  22192736.108    15588656.995 7  -2105320.362 5
  24376168.740     5037765.660 5   4067982.919 3
  23813261.962    23707902.304 5   9511924.543 3
  24155566.459    10917402.036 5  -4950185.460 2
 94  5 15 16 21 30.0000000  0  8  2 27 18 19 31 28 29 16
  22779198.449    -8654274.993 7  -6682666.346 5
  21312764.960   -10480873.466 8  -6728855.991 8
  21670227.084     6642016.494 7   5178290.235 6
  20887920.014     1788629.933 8      2190.342 9
  22199102.411    15622116.280 7  -2079248.200 5
  24391411.507     5117875.595 5   4130406.264 3
  23834540.871    23819711.884 5   9599048.808 3
  24155047.219    10914671.811 5  -4952312.901 2
 94  5 15 16 22  0.0000000  0  8  2 27 18 19 31 28 29 16
  22768523.619    -8710373.932 7  -6726379.781 5
  21305216.486   -10520553.979 8  -6759775.871 8
  21686790.048     6729054.845 7   5246112.268 6
  20890114.495     1800162.068 8     11176.408 9
  22205593.338    15656229.943 7  -2052666.130 5
  24406737.797     5198419.891 5   4193167.951 3
  23855858.873    23931741.661 5   9686344.640 3
  24154635.454    10912481.093 5  -4954019.985 2
 94  5 15 16 22 30.0000000  0  8  2 27 18 19 31 28 29 16
  22757903.711    -8766170.486 7  -6769857.613 5
  21297705.755   -10560020.895 8  -6790529.292 8
  21703426.850     6816494.859 7   5314247.289 6
  20892361.619     1811960.091 8     20369.676 9
  22212211.406    15691007.306 7  -2025566.917 5
  24422151.986     5279404.845 5   4256273.101 3
  23877223.582    24044017.676 5   9773832.316 3
  24154315.905    10910835.340 5  -4955302.400 2
 94  5 15 16 23  0.0000000  0  8  2 27 18 19 31 28 29 16
  22747345.141    -8821658.154 7  -6813094.732 5
  21290239.934   -10599251.937 8  -6821098.951 8
  21720143.398     6904332.539 7   5382692.191 6
  20894658.419     1824037.410 8     29780.554 9
  22218959.974    15726448.888 7  -1997950.093 5
  24437648.378     5360843.225 5   4319731.581 3
  23898636.138    24156535.410 5   9861508.382 3
  24154109.078    10909736.432 5  -4956158.707 2
 94  5 15 16 23 30.0000000  0  8  2 27 18 19 31 28 29 16
  22736845.779    -8876837.441 7  -6856091.566 5
  21282824.657   -10638231.832 8  -6851472.899 8
  21736935.613     6992571.229 7   5451449.546 6
  20897012.329     1836408.587 8     39420.424 9
  22225824.622    15762543.869 7  -1969824.137 5
  24453233.089     5442753.863 5   4383558.001 3
  23920089.976    24269305.606 5   9949381.148 3
  24154006.699    10909209.635 5  -4956569.161 2
 94  5 15 16 24  0.0000000  0  8  2 27 18 19 31 28 29 16
  22726401.729    -8931718.770 7  -6898856.226 5
  21275455.039   -10676953.891 8  -6881645.922 8
  21753806.313     7081232.571 7   5520536.265 6
  20899421.522     1849078.984 8     49293.459 9
  22232817.131    15799275.961 7  -1941201.735 5
  24468904.680     5525125.723 5   4447743.822 3
  23941601.644    24382325.832 5  10037448.795 2
  24154020.040    10909267.970 5  -4956523.780 2
 94  5 15 16 24 30.0000000  0  8  2 27 18 19 31 28 29 16
  22716013.741    -8986303.418 7  -6941389.711 5
  21268132.548   -10715427.192 8  -6911625.124 8
  21770762.425     7170328.384 7   5589961.540 6
  20901891.062     1862038.773 8     59391.986 9
  22239925.330    15836641.957 7  -1912085.382 5
  24484672.174     5607955.201 5   4512286.281 3
  23963155.223    24495577.835 5  10125696.991 2
  24154140.197    10909891.311 5  -4956038.058 2
 94  5 15 16 25  0.0000000  0  8  2 27 18 19 31 28 29 16
  22705679.565    -9040614.387 7  -6983709.922 5
  21260852.778   -10753686.730 8  -6941437.739 8
  21787801.099     7259862.446 7   5659728.249 6
  20904407.910     1875260.373 8     69694.518 9
  22247152.217    15874618.691 7  -1882493.129 5
  24500516.835     5691229.942 5   4577175.664 3
  23984743.368    24609032.455 5  10214103.135 2
  24154364.681    10911065.727 5  -4955122.936 2
 94  5 15 16 25 30.0000000  0  8  2 27 18 19 31 28 29 16
  22695393.836    -9094654.331 7  -7025818.946 5
  21253608.083   -10791752.955 8  -6971099.734 8
  21804919.758     7349834.429 7   5729836.228 6
  20906969.126     1888730.897 8     80191.018 9
  22254496.173    15913193.725 7  -1852434.663 5
  24516447.057     5774933.685 5   4642399.222 2
  24006372.194    24722692.720 5  10302669.426 2
  24154686.089    10912780.686 5  -4953786.666 2
 94  5 15 16 26  0.0000000  0  8  2 27 18 19 31 28 29 16
  22685165.787    -9148404.718 7  -7067702.351 5
  21246402.542   -10829624.727 8  -7000610.201 8
  21822125.537     7440246.197 7   5800286.911 6
  20909578.070     1902445.107 8     90877.415 9
  22261948.174    15952373.302 7  -1821905.148 5
  24532456.544     5859059.180 5   4707951.555 2
  24028046.170    24836561.247 5  10391398.030 2
  24155112.993    10915027.747 5  -4952035.701 2
 94  5 15 16 26 30.0000000  0  8  2 27 18 19 31 28 29 16
  22674995.777    -9201853.251 7  -7109350.535 5
  21239231.716   -10867295.559 8  -7029964.093 8
  21839414.808     7531099.999 7   5871082.016 6
  20912234.921     1916400.961 8    101752.101 9
  22269518.563    15992169.249 7  -1790895.322 5
  24548547.214     5943611.742 5   4773836.669 2
  24049753.032    24950647.685 5  10480296.474 2
  24155645.635    10917811.310 5  -4949866.661 2
 94  5 15 16 27  0.0000000  0  8  2 27 18 19 31 28 29 16
  22664885.756    -9254993.867 7  -7150758.784 5
  21232103.311   -10904756.875 8  -7059154.728 9
  21856786.432     7622389.012 7   5942216.279 6
  20914936.381     1930598.062 8    112814.761 9
  22277211.957    16032586.818 7  -1759401.114 5
  24564714.722     6028581.100 4   4840046.414 2
  24071501.806    25064965.646 5  10569375.267 2
  24156277.897    10921146.490 5  -4947267.862 2
 94  5 15 16 27 30.0000000  0  8  2 27 18 19 31 28 29 16
  22654830.657    -9307818.933 7  -7191921.175 5
  21225015.498   -10942002.594 8  -7088177.361 9
  21874235.462     7714089.803 7   6013671.433 6
  20917688.236     1945045.474 8    124072.485 9
  22285021.820    16073623.418 7  -1727424.555 5
  24580953.370     6113949.604 4   4906567.351 2
  24093302.624    25179515.756 5  10658635.016 2
  24157020.213    10925041.443 5  -4944232.858 2
 94  5 15 16 28  0.0000000  0  8  2 27 18 19 31 28 29 16
  22644835.157    -9360340.989 7  -7232847.434 5
  21217972.114   -10979031.734 8  -7117031.232 9
  21891760.400     7806182.065 7   6085431.578 6
  20920482.122     1959743.403 8    135525.407 9
  22292951.391    16115283.164 7  -1694962.424 5
  24597275.630     6199704.570 4   4973389.428 2
  24115145.682    25294268.843 5  10748052.869 2
  24157871.683    10929494.643 5  -4940762.814 2
 94  5 15 16 28 30.0000000  0  8  2 27 18 19 31 28 29 16
  22634895.598    -9412578.080 7  -7273551.641 5
  21210964.765   -11015854.989 8  -7145724.663 9
  21909357.617     7898658.821 7   6157491.326 6
  20923330.809     1974699.964 8    147179.860 9
  22300998.390    16157569.970 7  -1662011.680 5
  24613666.723     6285843.895 4   5040510.951 2
  24137007.328    25409208.452 5  10837616.057 2
  24158820.317    10934492.263 5  -4936868.605 2
 94  5 15 16 29  0.0000000  0  8  2 27 18 19 31 28 29 16
  22625012.130    -9464524.767 7  -7314029.557 5
  21203990.783   -11052486.252 8  -7174268.508 9
  21927024.927     7991503.413 7   6229837.715 6
  20926226.595     1989918.188 8    159038.219 9
  22309164.377    16200472.981 7  -1628580.766 5
  24630125.119     6372368.439 5   5107932.526 2
  24158914.242    25524322.098 5  10927314.908 2
  24159872.378    10940034.223 5  -4932550.228 2
 94  5 15 16 29 30.0000000  0  8  2 27 18 19 31 28 29 16
  22615182.385    -9516187.816 7  -7354286.463 5
  21197057.393   -11088926.406 8  -7202663.436 9
  21944761.548     8084702.542 7   6302460.377 6
  20929168.728     2005394.701 8    171097.817 9
  22317442.066    16243990.708 7  -1594670.838 5
  24646672.014     6459284.869 5   5175659.651 2
  24180853.623    25639596.711 5  11017139.141 2
  24161032.515    10946108.918 5  -4927816.686 2
 94  5 15 16 30  0.0000000  0  8  2 27 18 19 31 28 29 16
  22605403.934    -9567561.143 7  -7394317.602 5
  21190161.267   -11125170.330 8  -7230905.449 9
  21962567.961     8178274.807 7   6375373.749 6
  20932164.494     2021129.237 8    183358.493 9
  22325841.292    16288132.557 7  -1560274.622 5
  24663284.204     6546612.776 5   5243707.427 2
  24202818.997    25755034.347 4  11107090.424 2
  24162292.093    10952712.401 5  -4922671.153 2
 94  5 15 16 30 30.0000000  0  8  2 27 18 19 31 28 29 16
  22595680.136    -9618633.982 7  -7434114.607 5
  21183300.786   -11161214.396 8  -7258991.734 9
  21980444.435     8272222.072 7   6448579.350 6
  20935204.689     2037110.923 8    195811.741 9
  22334355.278    16332880.584 7  -1525406.047 5
  24679992.627     6634356.281 5   5312079.301 2
  24224819.806    25870640.826 5  11197173.238 2
  24163637.082    10959852.253 5  -4917107.685 2
 94  5 15 16 31  0.0000000  0  8  2 27 18 19 31 28 29 16
  22586020.583    -9669397.778 7  -7473670.796 5
  21176482.996   -11197047.746 8  -7286913.833 9
  21998391.690     8366537.963 7   6522072.191 6
  20938294.950     2053337.276 8    208455.642 9
  22342986.842    16378222.056 7  -1490075.013 5
  24696767.004     6722506.312 5   5380767.656 2
  24246851.284    25986418.813 5  11287389.736 2
  24165106.065    10967552.831 5  -4911107.226 2
 94  5 15 16 31 30.0000000  0  8  2 27 18 19 31 28 29 16
  22576422.338    -9719859.485 7  -7512991.577 5
  21169707.446   -11232654.033 8  -7314658.987 9
  22016412.635     8461229.575 7   6595857.796 6
  20941430.509     2069819.836 8    221299.178 8
  22351728.640    16424157.875 7  -1454280.900 5
  24713613.451     6811062.593 5   5449772.569 2
  24268918.377    26102370.640 5  11377741.669 2
  24166682.434    10975810.546 5  -4904672.684 2
 94  5 15 16 32  0.0010000  0  8  2 27 18 19 31 28 29 16
  22566877.156    -9770020.857 7  -7552078.351 5
  21162976.057   -11268030.775 8  -7342225.278 9
  22034506.189     8556309.629 7   6669946.111 6
  20944616.883     2086568.025 8    234349.719 8
  22360579.533    16470686.908 7  -1418024.515 5
  24730545.250     6900022.697 5   5519092.028 2
  24291012.872    26218500.700 5  11468232.517 2
  24168358.693    10984631.423 5  -4897799.297 2
 94  5 15 16 32 30.0010000  0  8  2 27 18 19 31 28 29 16
  22557389.324    -9819882.900 7  -7590931.876 5
  21156291.404   -11303164.532 8  -7369602.236 9
  22052670.764     8651769.277 7   6744330.165 6
  20947855.601     2103591.650 8    247614.874 8
  22369548.784    16517804.672 7  -1381309.387 5
  24747544.082     6989362.651 5   5588707.514 2
  24313146.669    26334805.852 5  11558859.740 2
  24170149.474    10994018.147 5  -4890484.915 2
 94  5 15 16 33  0.0010000  0  8  2 27 18 19 31 28 29 16
  22547952.427    -9869456.488 7  -7629560.626 5
  21149651.031   -11338053.701 8  -7396788.590 9
  22070911.756     8747624.104 7   6819022.191 6
  20951150.740     2120911.391 8    261110.764 8
  22378631.596    16565533.667 7  -1344117.971 5
  24764618.611     7079082.508 5   5658619.083 2
  24335318.959    26451295.185 5  11649630.504 2
  24172032.140    11003960.398 5  -4882737.755 2
 94  5 15 16 33 30.0010000  0  8  2 27 18 19 31 28 29 16
  22538577.018    -9918745.823 7  -7667967.876 5
  21143058.655   -11372695.729 8  -7423782.389 9
  22089230.034     8843882.213 7   6894028.478 6
  20954504.458     2138530.270 8    274839.749 8
  22387829.318    16613885.110 7  -1306441.538 5
  24781762.303     7169187.913 5   5728831.078 2
  24357515.173    26567965.233 5  11740542.112 2
  24174030.077    11014438.990 5  -4874572.588 2
 94  5 15 16 34  0.0010000  0  8  2 27 18 19 31 28 29 16
  22529252.453    -9967753.604 7  -7706155.747 5
  21136509.899   -11407103.568 8  -7450593.693 9
  22107620.833     8940538.382 7   6969344.928 5
  20957910.970     2156436.316 8    288792.524 8
  22397149.746    16662861.430 7  -1268278.175 5
  24798984.121     7259667.698 5   5799334.700 2
  24379756.566    26684811.682 5  11831591.129 2
  24176128.265    11025452.502 5  -4865990.674 2
 94  5 15 16 34 30.0010000  0  8  2 27 18 19 31 28 29 16
  22519978.223   -10016479.211 7  -7744123.738 5
  21130004.792   -11441291.571 8  -7477233.691 9
  22126087.508     9037578.023 7   7044960.170 5
  20961373.423     2174621.816 8    302963.014 8
  22406589.161    16712453.538 7  -1229634.971 5
  24816272.672     7350511.258 5   5870121.872 2
  24402022.691    26801823.576 5  11922769.088 2
  24178324.754    11036990.620 5  -4856999.922 2
 94  5 15 16 35  0.0010000  0  8  2 27 18 19 31 28 29 16
  22510760.175   -10064920.834 7  -7781870.425 5
  21123541.776   -11475269.443 8  -7503709.959 9
  22144622.357     9134984.516 7   7120861.289 5
  20964883.933     2193075.451 8    317342.470 8
  22416138.540    16762650.006 7  -1190520.877 5
  24833625.289     7441729.039 5   5941200.637 2
  24424318.346    26918994.905 5  12014071.286 2
  24180625.631    11049050.880 5  -4847602.387 2
 94  5 15 16 35 30.0010000  0  8  2 27 18 19 31 28 29 16
  22501598.697   -10113057.799 7  -7819379.748 5
  21117118.003   -11509028.331 8  -7530015.584 9
  22163227.597     9232749.110 7   7197041.443 5
  20968447.626     2211797.616 8    331931.164 8
  22425806.637    16813443.998 7  -1150941.137 5
  24851057.741     7533334.501 5   6012581.437 2
  24446646.859    27036330.040 5  12105501.111 2
  24183019.654    11061651.261 5  -4837783.914 2
 94  5 15 16 36  0.0010000  0  8  2 27 18 19 31 28 29 16
  22492497.808   -10160881.971 7  -7856645.311 5
  21110733.593   -11542567.008 8  -7556149.630 9
  22181897.622     9330861.163 7   7273492.315 5
  20972058.266     2230786.371 8    346727.587 8
  22435583.379    16864819.850 7  -1110908.019 5
  24868565.290     7625323.332 5   6084261.038 2
  24469009.967    27153826.985 4  12197057.010 2
  24185519.323    11074793.584 5  -4827543.198 2
 94  5 15 16 36 30.0010000  0  8  2 27 18 19 31 28 29 16
  22483457.057   -10208393.430 7  -7893667.207 5
  21104396.011   -11575881.004 8  -7582108.572 9
  22200632.162     9429316.919 7   7350211.055 5
  20975725.717     2250040.654 8    361730.913 8
  22445465.737    16916771.830 7  -1070425.952 5
  24886142.542     7717701.698 5   6156244.126 3
  24491402.155    27271482.701 5  12288736.638 2
  24188122.151    11088480.174 5  -4816878.335 2
 94  5 15 16 37  0.0010000  0  8  2 27 18 19 31 28 29 16
  22474474.375   -10255601.535 7  -7930452.741 5
  21098097.821   -11608972.073 8  -7607893.831 9
  22219432.687     9528115.107 7   7427196.596 5
  20979439.186     2269555.632 8    376937.387 8
  22455462.467    16969295.073 6  -1029498.767 4
  24903792.253     7810463.743 5   6228526.136 3
  24513816.468    27389303.180 4  12380544.629 2
  24190830.447    11102712.991 5  -4805787.833 2
 94  5 15 16 37 30.0010000  0  8  2 27 18 19 31 28 29 16
  22465544.187   -10302519.313 7  -7967012.022 5
  21091840.493   -11641845.386 8  -7633509.396 9
  22238301.504     9627269.503 7   7504459.691 5
  20983200.892     2289321.064 8    392339.026 8
  22465567.151    17022393.306 7   -988123.540 4
  24921524.348     7903594.336 4   6301095.420 3
  24536260.910    27507279.174 4  12472473.802 2
  24193639.442    11117482.573 5  -4794279.041 2
 94  5 15 16 38  0.0010000  0  8  2 27 18 19 31 28 29 16
  22456672.639   -10349160.773 7  -8003355.999 6
  21085626.485   -11674507.841 8  -7658960.656 9
  22257240.173     9726786.213 7   7582005.144 5
  20987007.447     2309327.002 8    407928.050 8
  22475781.980    17076070.416 7   -946297.203 5
  24939309.775     7997079.469 4   6373940.920 3
  24558746.154    27625410.392 4  12564523.947 2
  24196553.575    11132779.020 5  -4782359.800 2
 94  5 15 16 38 30.0010000  0  8  2 27 18 19 31 28 29 16
  22447844.770   -10395533.536 7  -8039490.600 6
  21079452.978   -11706954.209 8  -7684243.554 9
  22276245.366     9826659.554 7   7659828.491 5
  20990854.174     2329572.503 8    423703.768 8
  22486108.991    17130328.152 7   -904018.480 4
  24957156.420     8090901.760 4   6447049.133 3
  24581247.257    27743690.021 4  12656689.751 2
  24199566.159    11148601.011 5  -4770030.978 2
 94  5 15 16 39  0.0010000  0  8  2 27 18 19 31 28 29 16
  22439072.274   -10441641.432 7  -8075418.838 6
  21073319.105   -11739189.194 8  -7709361.714 9
  22295316.154     9926878.817 7   7737921.367 5
  20994759.600     2350063.759 8    439670.974 8
  22496537.991    17185155.214 7   -861296.102 4
  24975073.307     8185047.247 3   6520409.209 3
  24603781.247    27862099.319 5  12748956.561 2
  24202674.917    11164927.341 5  -4757309.157 2
 94  5 15 16 39 30.0010000  0  8  2 27 18 19 31 28 29 16
  22430349.242   -10487485.538 7  -8111141.495 6
  21067224.834   -11771201.793 8  -7734306.597 9
  22314449.268    10027436.817 7   7816278.198 5
  20998705.409     2370803.327 8    455831.645 8
  22507082.681    17240554.501 7   -818127.848 5
  24993043.466     8279512.149 3   6594018.188 3
  24626337.062    27980614.085 4  12841305.563 2
  24205870.315    11181735.218 5  -4744212.176 2
 94  5 15 16 40  0.0010000  0  7  2 27 18 19 31 29 16
  22421679.664   -10533035.670 7  -8146635.069 6
  21061182.577   -11802973.748 8  -7759063.961 9
  22333649.176    10128324.104 7   7894891.617 5
  21002702.332     2391819.502 8    472207.894 8
  22517732.058    17296526.571 7   -774513.242 4
  24648907.177    28099243.567 5  12933743.961 2
  24209164.224    11199037.442 5  -4730729.939 2
 94  5 15 16 40 30.0010000  0  7  2 27 18 19 31 29 16
  22413068.995   -10578277.906 7  -8181888.772 6
  21055183.730   -11834491.252 8  -7783623.062 9
  22352910.512    10229548.273 7   7973767.555 5
  21006759.483     2413132.683 8    488815.559 8
  22528494.368    17353078.345 6   -730446.965 4
  24671508.920    28217990.558 5  13026273.900 2
  24212549.331    11216841.388 5  -4716856.748 2
 94  5 15 16 41  0.0010000  0  7  2 27 18 19 31 29 16
  22404520.413   -10623202.889 7  -8216895.236 6
  21049232.430   -11865756.514 8  -7807985.598 9
  22372243.078    10331137.824 7   8052928.177 5
  21010870.417     2434737.944 8    505650.817 8
  22539370.958    17410229.643 6   -685913.502 4
  24694136.265    28336871.381 5  13118908.166 2
  24216037.716    11235154.574 5  -4702586.766 2
 94  5 15 16 41 30.0010000  0  7  2 27 18 19 31 29 16
  22396030.261   -10667818.687 7  -8251660.781 6
  21043331.135   -11896765.305 8  -7832148.309 9
  22391648.614    10433089.892 7   8132371.305 5
  21015036.183     2456614.410 8    522697.396 8
  22550360.510    17467976.778 7   -640915.724 4
  24716770.026    28455889.682 5  13211649.501 2
  24219617.508    11253984.328 5  -4687914.273 2
 94  5 15 16 42  0.0010000  0  7  2 27 18 19 31 29 16
  22387597.189   -10712139.673 7  -8286196.599 6
  21037475.469   -11927539.942 8  -7856128.542 9
  22411112.580    10535392.232 7   8212087.359 5
  21019246.978     2478750.164 8    539946.029 8
  22561458.018    17526303.202 7   -595466.583 4
  24739459.818    28575041.411 5  13304494.925 2
  24223293.443    11273341.492 5  -4672830.802 2
 94  5 15 16 42 30.0010000  0  8  2  7 27 18 19 31 29 16
  22379218.080   -10756186.040 7  -8320518.431 6
  24888555.931      -45789.20713  -1081122.684 2
  21031662.973   -11958081.399 8  -7879927.072 9
  22430646.547    10638043.443 7   8292075.243 5
  21023504.661     2501125.695 8    557381.517 8
  22572668.517    17585202.665 7   -549570.957 4
  24762152.758    28694316.859 5  13397436.619 2
  24227084.349    11293225.668 5  -4657336.636 2
 94  5 15 16 43  0.0010000  0  8  2  7 27 18 19 31 29 16
  22370885.288   -10799960.229 7  -8354628.175 6
  24869802.834     -144333.402 3  -1157910.270 2
  21025896.435   -11988394.528 8  -7903547.713 9
  22450241.761    10741020.144 7   8372316.788 5
  21027808.391     2523741.292 8    575004.020 8
  22583981.995    17644663.593 7   -503237.764 4
  24784871.241    28813708.495 4  13490468.935 2
  24230968.250    11313640.283 5  -4641429.154 2
 94  5 15 16 43 30.0010000  0  8  2  7 27 18 19 31 29 16
  22362605.890   -10843465.827 7  -8388528.616 6
  24851054.743     -242899.406 4  -1234714.829 2
  21020172.407   -12018472.912 8  -7926985.400 9
  22469898.073    10844294.423 7   8452790.218 5
  21032165.485     2546628.464 8    592838.189 8
  22595401.149    17704672.109 7   -456477.902 4
  24807608.100    28933211.841 4  13583588.220 2
  24234949.404    11334597.978 5  -4625098.528 2
 94  5 15 16 44  0.0010000  0  8  2  7 27 18 19 31 29 16
  22354380.035   -10886700.818 7  -8422218.214 6
  24832294.330     -341476.242 4  -1311527.852 2
  21014491.490   -12048316.821 8  -7950240.398 9
  22489603.402    10947865.104 7   8533494.575 5
  21036572.824     2569796.660 8    610891.337 8
  22606924.512    17765233.420 7   -409287.295 4
  24830377.907    29052837.470 5  13676802.815 2
  24239053.742    11356102.657 5  -4608341.662 2
 94  5 15 16 44 30.0010000  0  8  2  7 27 18 19 31 29 16
  22346204.874   -10929660.112 7  -8455692.976 6
  24813521.477     -440038.906 4  -1388329.849 2
  21008859.859   -12077920.349 8  -7973308.099 9
  22509369.078    11051737.418 7   8614433.998 5
  21041034.215     2593248.141 8    629165.189 8
  22618556.759    17826363.130 7   -361653.768 4
  24853161.115    29172596.795 4  13770121.629 2
  24243243.792    11378144.063 5  -4591166.538 2
 94  5 15 16 45  0.0010000  0  8  2  7 27 18 19 31 29 16
  22338082.058   -10972342.398 7  -8488951.889 6
  24794779.441     -538592.525 4  -1465124.857 2
  21003268.610   -12107291.430 8  -7996194.659 9
  22529194.773    11155917.716 7   8695613.414 5
  21045555.895     2616996.956 8    647670.743 8
  22630300.649    17888071.538 6   -313569.324 4
  24875983.955    29292494.935 4  13863548.561 2
  24247532.233    11400708.281 5  -4573584.074 2
 94  5 15 16 45 30.0010000  0  8  2  7 27 18 19 31 29 16
  22330011.944   -11014746.740 7  -8521994.214 6
  24776028.173     -637121.922 4  -1541900.954 2
  20997727.516   -12136421.404 8  -8018893.326 9
  22549083.784    11260423.903 7   8777046.759 5
  21050127.310     2641036.123 8    666402.554 8
  22642155.492    17950355.056 7   -265036.703 4
  24898824.453    29412542.178 4  13957091.621 2
  24251931.177    11423783.574 5  -4555603.367 2
 94  5 15 16 46  0.0010000  0  8  2  7 27 18 19 31 29 16
  22321997.203   -11056863.632 7  -8554812.545 6
  24757281.401     -735629.528 4  -1618660.015 2
  20992226.564   -12165312.708 8  -8041406.037 9
  22569033.473    11365271.344 7   8858746.018 5
  21054756.525     2665354.183 8    685351.698 8
  22654115.112    18013214.833 6   -216055.114 4
  24921694.540    29532725.537 4  14050740.891 2
  24256412.115    11447346.212 5  -4537242.875 2
 94  5 15 16 46 30.0010000  0  8  2  7 27 18 19 31 29 16
  22314039.812   -11098684.115 7  -8587399.947 6
  24738541.164     -834125.618 4  -1695410.150 2
  20986773.699   -12193973.668 8  -8063739.253 9
  22589050.526    11470452.830 7   8940705.577 5
  21059440.573     2689960.789 8    704525.659 8
  22666180.860    18076627.398 7   -166642.733 4
  24944571.463    29653012.981 3  14144471.137 2
  24260985.299    11471380.840 5  -4518514.599 2
 94  5 15 16 47  0.0010000  0  7  2  7 27 18 19 31 16
  22306140.730   -11140196.432 7  -8619747.180 6
  24719797.870     -932614.445 5  -1772154.658 2
  20981368.981   -12222388.513 8  -8085880.685 9
  22609123.460    11575957.162 7   9022916.710 5
  21064176.484     2714861.308 8    723928.655 8
  22678350.095    18140568.795 7   -116818.242 4
  24265657.205    11495899.696 5  -4499409.014 2
 94  5 15 16 47 30.0010000  0  7  2  7 27 18 19 31 16
  22298303.076   -11181393.426 7  -8651848.724 6
  24701058.623    -1031082.691 5  -1848883.117 2
  20976005.394   -12250552.761 8  -8107826.870 9
  22629263.697    11681778.672 7   9105374.951 5
  21068971.395     2740047.526 8    743554.282 8
  22690617.542    18205031.828 7    -66587.351 4
  24270409.275    11520911.837 5  -4479919.045 2
 94  5 15 16 48  0.0010000  0  7  2  7 27 18 19 31 16
  22290520.973   -11222270.813 7  -8683701.222 6
  24682328.070    -1129527.744 5  -1925593.472 2
  20970692.951   -12278478.399 8  -8129587.103 9
  22649459.995    11787899.726 7   9188066.651 5
  21073813.463     2765504.887 8    763391.176 8
  22702984.791    18270019.837 6    -15947.388 4
  24275264.264    11546419.174 5  -4460043.273 2
 94  5 15 16 48 30.0010000  0  7  2  7 27 18 19 31 16
  22282800.538   -11262843.184 7  -8715316.049 6
  24663593.080    -1227946.847 5  -2002283.631 2
  20965422.810   -12306171.189 8  -8151165.878 9
  22669701.172    11894296.157 7   9270972.940 5
  21078705.956     2791210.646 8    783421.633 8
  22715450.881    18335529.089 6     35098.770 4
  24280212.429    11572426.922 5  -4439777.474 2
 94  5 15 16 49  0.0010000  0  7  2  7 27 18 19 31 16
  22275134.515   -11303129.928 7  -8746708.308 6
  24644877.876    -1326340.415 4  -2078953.930 2
  20960198.147   -12333623.433 8  -8172557.251 9
  22690000.390    12000956.943 7   9354085.178 4
  21083642.608     2817142.976 8    803628.642 8
  22728019.739    18401572.352 6     86561.052 4
  24285252.060    11598930.523 5  -4419125.355 2
 94  5 15 16 49 30.0010000  0  7  2  7 27 18 19 31 16
  22267520.356   -11343144.362 7  -8777888.361 6
  24626152.090    -1424717.116 4  -2155610.967 2
  20955019.682   -12360851.296 8  -8193773.759 9
  22710345.715    12107875.986 7   9437398.698 4
  21088617.394     2843289.470 8    824002.524 8
  22740685.551    18468151.622 6    138440.948 4
  24290390.652    11625900.252 5  -4398110.002 2
 94  5 15 16 50  0.0010000  0  7  2  7 27 18 19 31 16
  22259956.113   -11382897.713 7  -8808864.998 6
  24607430.620    -1523088.320 4  -2232263.787 2
  20949882.768   -12387845.866 8  -8214808.494 9
  22730741.975    12215041.868 7   9520904.553 4
  21093633.252     2869662.247 8    844552.720 8
  22753459.438    18535254.867 6    190729.187 4
  24295611.328    11653329.948 5  -4376736.260 2
 94  5 15 16 50 30.0010000  0  7  2  7 27 18 19 31 16
  22252436.809   -11422417.295 7  -8839659.467 6
  24588714.037    -1621457.785 5  -2308915.351 2
  20944792.562   -12414585.682 8  -8235644.724 9
  22751181.315    12322459.476 7   9604606.515 4
  21098703.342     2896283.806 8    865296.791 8
  22766323.232    18602869.001 6    243415.523 4
  24300917.385    11681216.522 5  -4355006.427 2
 94  5 15 16 51  0.0010000  0  7  2  7 27 18 19 31 16
  22244960.404   -11461692.068 7  -8870263.146 6
  24569993.258    -1719816.156 4  -2385558.151 2
  20939758.747   -12441053.684 8  -8256269.141 9
  22771674.168    12430151.245 7   9688522.120 4
  21103819.150     2923182.834 8    886257.074 8
  22779284.130    18670994.799 6    296500.523 4
  24306318.086    11709560.732 5  -4332920.077 2
 94  5 15 16 51 30.0010000  0  7  2  7 27 18 19 31 16
  22237538.293   -11500711.465 8  -8900667.872 6
  24551281.921    -1818152.215 4  -2462183.527 2
  20934772.688   -12467259.578 8  -8276689.311 9
  22792223.472    12538131.200 7   9772662.327 4
  21108994.797     2950379.561 8    907449.312 8
  22792350.524    18739630.442 6    349982.786 4
  24311790.797    11738368.934 5  -4310472.138 2
 94  5 15 16 52  0.0010000  0  7  2  7 27 18 19 31 16
  22230162.799   -11539479.125 7  -8930876.432 6
  24532573.283    -1916454.781 4  -2538782.914 1
  20929830.310   -12493207.219 8  -8296908.266 9
  22812824.220    12646406.742 7   9857032.833 4
  21114229.353     2977886.976 8    928883.655 8
  22805506.796    18808782.400 6    403867.448 4
  24317369.186    11767664.092 5  -4287644.759 2
 94  5 15 16 52 30.0010000  0  7  2  7 27 18 19 31 16
  22222831.164   -11577980.970 7  -8960877.844 6
  24513877.716    -2014720.102 4  -2615353.177 2
  20924939.796   -12518917.363 8  -8316942.135 9
  22833487.715    12754982.359 7   9941637.156 4
  21119521.410     3005689.243 8    950547.764 8
  22818770.634    18878455.530 6    458158.198 4
  24323035.503    11797433.707 4  -4264447.706 2
 94  5 15 16 53  0.0010000  0  7  2  7 27 18 19 31 16
  22215558.799   -11616192.958 7  -8990653.415 6
  24495194.650    -2112946.075 4  -2691892.864 2
  20920085.916   -12544425.787 8  -8336818.816 9
  22854205.143    12863847.403 7  10026467.005 4
  21124865.120     3033777.527 8    972434.727 8
  22832120.812    18948650.672 6    512855.658 4
  24328787.591    11827677.780 4  -4240880.875 2
 94  5 15 16 53 30.0010000  0  7  2  7 27 18 19 31 16
  22208344.263   -11654115.901 7  -9020203.740 6
  24476504.149    -2211130.100 4  -2768399.732 2
  20915269.450   -12569732.555 8  -8356538.379 9
  22874975.964    12972998.819 7  10111520.040 4
  21130264.173     3062152.299 8    994544.924 8
  22845583.801    19019379.565 6    567969.071 4
  24334632.285    11858407.636 4  -4216935.586 2
 94  5 15 16 54  0.0010000  0  7  2  7 27 18 19 31 16
  22201182.851   -11691751.187 8  -9049529.929 6
  24457830.167    -2309268.987 4  -2844871.524 2
  20910496.335   -12594817.945 8  -8376085.439 9
  22895795.680    13082427.648 7  10196789.201 4
  21135716.138     3090798.090 8   1016866.306 8
  22859139.967    19090635.470 6    623493.133 4
  24340574.021    11889627.891 4  -4192608.160 2
 94  5 15 16 54 30.0010000  0  7  2  7 27 18 19 31 16
  22194076.511   -11729095.386 8  -9078629.277 6
  24439157.893    -2407360.905 4  -2921306.745 2
  20905766.419   -12619668.651 8  -8395449.616 9
  22916672.328    13192118.673 7  10282262.672 4
  21141214.332     3119698.042 8   1039385.748 8
  22872798.871    19162409.405 6    679420.860 4
  24346607.135    11921323.969 4  -4167909.946 2
 94  5 15 16 55  0.0010000  0  7  2  7 27 18 19 31 16
  22187022.334   -11766164.703 8  -9107514.470 6
  24420502.768    -2505403.845 5  -2997703.762 2
  20901088.697   -12644258.083 8  -8414610.218 9
  22937594.933    13302064.248 6  10367934.519 4
  21146763.880     3148849.800 8   1062101.385 8
  22886553.529    19234698.418 6    735749.917 4
  24352728.267    11953503.307 4  -4142835.140 2
 94  5 15 16 55 30.0010000  0  7  2  7 27 18 19 31 16
  22180017.383   -11802972.857 7  -9136196.130 6
  24401857.176    -2603389.240 5  -3074055.937 2
  20896465.118   -12668555.057 8  -8433542.926 9
  22958564.786    13412261.138 7  10453802.160 4
  21152356.898     3178246.038 8   1085007.543 8
  22900406.848    19307497.667 6    792476.584 4
  24358948.511    11986151.827 4  -4117394.801 2
 94  5 15 16 56  0.0010000  0  7  2  7 27 18 19 31 16
  22173064.207   -11839511.281 7  -9164667.599 6
  24383223.396    -2701300.754 5  -3150350.510 2
  20891899.999   -12692548.140 8  -8452238.839 9
  22979579.188    13522698.844 6  10539857.422 4
  21157998.482     3207894.154 8   1108109.941 8
  22914363.596    19380811.795 6    849604.475 4
  24365247.210    12019265.203 4  -4091592.180 2
 94  5 15 16 56 30.0010000  0  7  2  7 27 18 19 31 16
  22166164.034   -11875776.014 7  -9192925.829 6
  24364607.243    -2799130.390 5  -3226581.351 2
  20887392.979   -12716239.851 8  -8470699.910 9
  23000644.135    13633383.484 6  10626105.171 4
  21163693.340     3237825.999 8   1131433.458 8
  22928414.659    19454651.662 6    907141.980 4
  24371638.066    12052838.850 5  -4065430.911 2
 94  5 15 16 57  0.0010000  0  7  2  7 27 18 19 31 16
  22159314.076   -11911773.886 8  -9220976.099 6
  24346008.599    -2896872.454 5  -3302743.891 2
  20882940.671   -12739635.553 8  -8488930.339 9
  23021755.310    13744322.684 6  10712551.245 4
  21169447.556     3268067.078 8   1154997.915 8
  22942559.916    19529010.373 6    965083.815 4
  24378111.455    12086868.453 5  -4038914.403 2
 94  5 15 16 57 30.0010000  0  7  2  7 27 18 19 31 16
  22152514.783   -11947506.720 8  -9248819.854 6
  24327427.552    -2994525.308 5  -3378836.913 2
  20878538.369   -12762758.875 8  -8506948.522 9
  23042909.146    13855501.164 6  10799183.740 4
  21175264.280     3298624.556 8   1178808.913 8
  22956810.311    19603880.719 6   1023424.336 4
  24384668.485    12121345.271 5  -4012049.395 2
 94  5 15 16 58  0.0010000  0  7  2  7 27 18 19 31 16
  22145765.825   -11982971.977 8  -9276455.108 6
  24308860.386    -3092092.036 5  -3454862.857 2
  20874186.611   -12785622.349 8  -8524764.202 9
  23064111.968    13966915.710 6  10886000.236 4
  21181138.383     3329496.089 8   1202864.658 8
  22971152.142    19679252.451 6   1082155.522 4
  24391318.721    12156282.227 5  -3984825.781 2
 94  5 15 16 58 30.0010000  0  7  2  7 27 18 19 31 16
  22139069.991   -12018162.953 8  -9303876.637 6
  24290309.409    -3189569.546 5  -3530819.266 2
  20869885.729   -12808222.898 8  -8542375.023 9
  23085363.715    14078590.904 6  10973019.817 4
  21187071.965     3360672.888 8   1227158.248 8
  22985586.550    19755112.565 6   1141267.263 4
  24398061.803    12191687.208 5  -3957237.531 2
 94  5 15 16 59  0.0010000  0  7  2  7 27 18 19 31 16
  22132425.780   -12053069.076 8  -9331076.196 6
  24271779.447    -3286959.009 5  -3606707.130 2
  20865638.749   -12830551.224 8  -8559773.721 9
  23106661.571    14190531.895 6  11060246.478 4
  21193064.157     3392139.756 8   1251677.868 8
  23000112.633    19831461.827 6   1200760.160 4
  24404890.326    12227576.681 5  -3929271.755 2
 94  5 15 16 59 30.0010000  0  7  2  7 27 18 19 31 16
  22125839.760   -12087678.825 8  -9358044.800 6
  24253259.648    -3384262.308 5  -3682527.797 2
  20861441.205   -12852594.929 8  -8576950.631 9
  23128018.636    14302745.584 6  11147685.686 4
  21199101.617     3423886.959 8   1276415.947 8
  23014739.507    19908314.260 6   1260645.176 4
  24411815.802    12263970.749 5  -3900912.717 2
 94  5 15 17  0  0.0010000  0  7  2  7 27 18 19 31 16
  22119313.128   -12121990.911 8  -9384781.493 6
  24234755.678    -3481486.325 5  -3758286.636 2
  20857302.120   -12874343.298 8  -8593897.417 9
  23149424.087    14415236.423 6  11235340.835 4
  21205193.460     3455906.470 8   1301366.199 8
  23029457.578    19985665.148 6   1320918.565 4
  24418838.170    12300855.928 5  -3872171.092 2
 94  5 15 17  0 30.0010000  0  7  2  7 27 18 19 31 16
  22112841.269   -12155998.562 8  -9411280.949 6
  24216267.807    -3578636.167 5  -3833987.719 2
  20853222.275   -12895799.292 8  -8610616.368 9
  23170884.071    14528009.225 6  11323215.674 4
  21211339.056     3488204.442 8   1326533.439 8
  23044277.489    20063518.924 6   1381583.802 4
  24425940.793    12338204.297 5  -3843068.491 2
 94  5 15 17  1  0.0010000  0  7  2  7 27 18 19 31 16
  22106423.701   -12189712.797 8  -9437551.768 6
  24197792.107    -3675725.094 4  -3909641.384 2
  20849190.905   -12916975.310 8  -8627117.159 9
  23192392.321    14641029.261 6  11411283.173 4
  21217539.153     3520777.265 8   1351914.834 8
  23059185.808    20141870.137 6   1442636.683 4
  24433132.394    12375990.143 5  -3813624.996 2
 94  5 15 17  1 30.0010000  0  7  2  7 27 18 19 31 16
  22100067.891   -12223122.173 8  -9463585.034 6
  24179330.348    -3772723.928 4  -3985224.853 2
  20845218.356   -12937853.996 8  -8643386.283 9
  23213945.840    14754298.833 6  11499545.123 4
  21223789.886     3553636.692 8   1377519.579 8
  23074192.309    20220720.747 6   1504078.694 4
  24440401.912    12414204.932 5  -3783847.247 2
 94  5 15 17  2  0.0010000  0  7  2  7 27 18 19 31 16
  22093765.085   -12256227.188 8  -9489381.136 6
  24160894.461    -3869630.604 5  -4060736.438 2
  20841303.066   -12958434.947 8  -8659423.387 9
  23235550.353    14867812.128 6  11587996.986 4
  21230098.359     3586786.786 8   1403350.799 8
  23089288.208    20300064.606 6   1565905.037 4
  24447752.463    12452842.010 5  -3753740.452 2
 94  5 15 17  2 30.0010000  0  7  2  7 27 18 19 31 16
  22087521.757   -12289042.088 8  -9514951.178 6
  24142484.776    -3966444.934 5  -4136176.073 2
  20837443.028   -12978727.410 8  -8675235.697 9
  23257192.461    14981566.875 6  11676636.976 4
  21236461.873     3620229.745 8   1429410.227 8
  23104477.673    20379892.223 6   1628108.367 4
  24455186.417    12491916.692 5  -3723292.719 2
 94  5 15 17  3  0.0010000  0  7  2  7 27 18 19 31 16
  22081328.854   -12321585.935 8  -9540310.013 6
  24124070.533    -4063168.357 5  -4211544.936 2
  20833639.322   -12998717.318 8  -8690812.254 9
  23278880.736    15095540.140 6  11765447.276 4
  21242885.047     3653975.126 8   1455705.324 8
  23119760.253    20460194.244 6   1690681.353 4
  24462709.559    12531452.283 5  -3692485.813 2
 94  5 15 17  3 30.0010000  0  7  2  7 27 18 19 31 16
  22075187.546   -12353865.873 8  -9565463.213 6
  24105676.857    -4159804.946 5  -4286846.120 2
  20829889.218   -13018404.582 8  -8706152.985 9
  23300611.642    15209743.999 6  11854437.257 4
  21249363.712     3688038.650 8   1482248.304 8
  23135132.441    20540970.458 6   1753623.817 4
  24470328.844    12571456.666 5  -3661313.565 2
 94  5 15 17  4  0.0010000  0  7  2  7 27 18 19 31 16
  22069094.684   -12385884.193 8  -9590412.531 6
  24087304.286    -4256364.224 5  -4362087.027 2
  20826200.511   -13037794.312 8  -8721261.862 9
  23322393.573    15324179.815 6  11943607.912 3
  21255911.329     3722429.574 8   1509046.412 8
  23150590.610    20622225.142 6   1816939.113 4
  24478026.075    12611935.292 5  -3629771.836 2
 94  5 15 17  4 30.0010000  0  7  2  7 27 18 19 31 16
  22063052.786   -12417638.800 8  -9615156.362 7
  24068946.675    -4352844.254 5  -4437266.205 2
  20822563.729   -13056899.134 8  -8736148.736 9
  23344209.980    15438835.952 6  12032950.336 3
  21262518.575     3757143.254 8   1536096.033 8
  23166142.943    20703945.300 6   1880617.161 4
  24485812.884    12652866.285 5  -3597877.573 2
 94  5 15 17  5  0.0010000  0  7  2  7 27 18 19 31 16
  22057057.687   -12449130.927 8  -9639695.689 7
  24050599.946    -4449238.920 5  -4512378.860 2
  20818985.496   -13075727.689 8  -8750820.345 9
  23366065.959    15553700.570 6  12122455.181 3
  21269182.152     3792167.020 8   1563387.255 8
  23181783.625    20786128.055 6   1944655.639 4
  24493686.274    12694235.008 5  -3565642.281 2
 94  5 15 17  5 30.0010000  0  7  2  7 27 18 19 31 16
  22051116.370   -12480354.352 8  -9664025.616 7
  24032281.008    -4545532.573 5  -4587412.823 2
  20815451.183   -13094293.121 8  -8765286.906 9
  23387965.738    15668783.457 6  12212130.031 3
  21275901.790     3827475.845 8   1590900.602 8
  23197513.526    20868775.216 6   2009055.973 3
  24501644.325    12736027.303 5  -3533076.853 2
 94  5 15 17  6  0.0010000  0  7  2  7 27 18 19 31 16
  22045227.996   -12511306.175 8  -9688143.904 7
  24013980.447    -4641692.057 5  -4662342.231 2
  20811966.066   -13112594.053 8  -8779547.384 9
  23409907.578    15784075.149 6  12301967.689 3
  21282670.384     3863048.810 8   1618619.778 8
  23213328.987    20951896.861 6   2073826.074 3
  24509673.036    12778246.003 5  -3500179.180 2
 94  5 15 17  6 30.0010000  0  7  2  7 27 18 19 31 16
  22039388.429   -12541982.621 8  -9712047.635 7
  23995706.688    -4737696.453 5  -4737150.814 2
  20808536.980   -13130617.578 8  -8793591.689 9
  23431883.804    15899578.339 6  12391970.133 3
  21289491.322     3898886.994 8   1646545.630 8
  23229238.883    21035504.796 6   2138975.104 4
  24517785.450    12820900.722 5  -3466941.805 2
 94  5 15 17  7  0.0010000  0  7  2  7 27 18 19 31 16
  22033604.953   -12572377.861 8  -9735732.226 7
  23977470.163    -4833538.561 5  -4811832.930 2
  20805166.593   -13148334.887 8  -8807397.385 9
  23453904.760    16015297.454 6  12482140.773 3
  21296360.946     3934996.945 8   1674683.222 8
  23245242.793    21119603.725 6   2204506.712 4
  24525996.346    12864002.723 5  -3433355.841 2
 94  5 15 17  7 30.0010000  0  7  2  7 27 18 19 31 16
  22027876.309   -12602482.299 8  -9759190.204 7
  23959263.647    -4929225.021 5  -4886393.729 2
  20801853.526   -13165738.792 8  -8820958.885 9
  23475968.375    16131236.611 6  12572482.926 3
  21303286.901     3971387.837 8   1703039.749 8
  23261341.318    21204189.979 6   2270418.031 3
  24534280.421    12907542.420 5  -3399428.852 2
 94  5 15 17  8  0.0010000  0  7  2  7 27 18 19 31 16
  22022203.696   -12632296.326 8  -9782421.925 7
  23941079.226    -5024771.512 5  -4960845.492 2
  20798603.087   -13182830.858 8  -8834277.376 9
  23498072.913    16247390.495 6  12662992.412 3
  21310266.609     4008072.979 8   1731625.557 8
  23277525.195    21289248.616 6   2336697.474 4
  24542642.652    12951509.280 5  -3365169.004 2
 94  5 15 17  8 30.0010000  0  7  2  7 27 18 19 31 16
  22016584.925   -12661819.003 8  -9805426.588 7
  23922923.944    -5120202.632 5  -5035207.340 2
  20795407.089   -13199605.950 8  -8847348.876 9
  23520216.123    16363762.808 6  12753672.034 3
  21317307.355     4045072.760 8   1760456.526 7
  23293794.152    21374748.990 6   2403321.135 4
  24551090.444    12995891.075 5  -3330585.862 2
 94  5 15 17  9  0.0010000  0  7  2  7 27 18 19 31 16
  22011017.660   -12691067.636 8  -9828217.705 7
  23904781.404    -5215543.064 5  -5109498.509 2
  20792274.168   -13216090.696 8  -8860194.141 9
  23542402.354    16480348.561 6  12844518.021 3
  21324407.580     4082381.607 8   1789528.325 7
  23310142.674    21460666.911 6   2470270.129 4
  24559609.796    13040674.693 5  -3295689.553 2
 94  5 15 17  9 30.0010000  0  7  2  7 27 18 19 31 16
  22005501.808   -12720058.282 8  -9850807.824 7
  23886652.624    -5310788.257 5  -5183715.494 2
  20789186.875   -13232301.061 8  -8872825.598 9
  23564628.727    16597142.952 6  12935526.590 3
  21331565.634     4120001.647 8   1818842.641 8
  23326576.547    21547010.354 6   2537550.692 3
  24568218.606    13085852.046 5  -3260486.489 2
 94  5 15 17 10  0.0010000  0  7  2  7 27 18 19 31 16
  22000033.444   -12748796.568 8  -9873201.297 7
  23868549.357    -5405942.662 5  -5257861.688 2
  20786155.404   -13248234.227 8  -8885241.052 9
  23586890.056    16714119.043 6  13026676.701 3
  21338783.857     4157929.799 8   1848397.010 7
  23343085.758    21633769.516 6   2605155.223 4
  24576882.638    13131421.672 5  -3224977.660 2
 94  5 15 17 10 30.0010000  0  7  2  7 27 18 19 31 16
  21994614.545   -12777280.184 8  -9895396.297 7
  23850457.182    -5501003.778 5  -5331935.250 2
  20783177.266   -13263884.345 8  -8897435.958 9
  23609178.756    16831269.387 6  13117962.602 3
  21346058.141     4196151.933 8   1878180.477 7
  23359672.585    21720947.911 6   2673086.434 3
  24585635.499    13177392.692 5  -3189156.186 2
 94  5 15 17 11  0.0010000  0  7  2  7 27 18 19 31 16
  21989240.675   -12805520.239 8  -9917401.519 7
  23832389.920    -5595966.677 5  -5405932.246 2
  20780252.551   -13279252.678 8  -8909411.283 9
  23631500.133    16948569.475 6  13209365.240 3
  21353382.641     4234637.753 8   1908169.419 7
  23376343.174    21808551.520 6   2741348.916 3
  24594448.288    13223757.441 5  -3153027.807 2
 94  5 15 17 11 30.0010000  0  7  2  7 27 18 19 31 16
  21983911.085   -12833514.616 8  -9939215.322 7
  23814341.874    -5690808.745 5  -5479835.103 2
  20777383.747   -13294324.653 8  -8921155.683 9
  23653847.112    17066000.059 6  13300869.469 3
  21360751.479     4273382.123 8   1938359.817 7
  23393091.230    21896566.554 6   2809932.043 3
  24603349.785    13270508.040 5  -3116598.794 2
 94  5 15 17 12  0.0010000  0  7  2  7 27 18 19 31 16
  21978633.449   -12861257.133 8  -9960832.853 7
  23796310.167    -5785524.220 5  -5553639.316 3
  20774573.792   -13309098.245 8  -8932667.577 9
  23676221.943    17183572.111 6  13392483.980 3
  21368173.441     4312373.503 8   1968742.682 7
  23409917.262    21984980.308 6   2878825.852 4
  24612324.342    13317657.689 5  -3079858.900 2
 94  5 15 17 12 30.0010000  0  7  2  7 27 18 19 31 16
  21973400.481   -12888760.764 8  -9982264.243 7
  23778320.791    -5880089.723 5  -5627326.658 3
  20771815.581   -13323582.929 8  -8943954.342 9
  23698623.634    17301300.683 6  13484220.485 3
  21375640.672     4351601.878 8   1999310.231 7
  23426819.710    22073797.107 6   2948033.732 3
  24621375.107    13365198.901 5  -3042813.843 2
 94  5 15 17 13  0.0010000  0  7  2  7 27 18 19 31 16
  21968211.284   -12916026.904 8 -10003510.594 7
  23760358.606    -5974476.132 5  -5700874.455 3
  20769115.261   -13337774.142 8  -8955012.431 9
  23721057.703    17419197.867 6  13576088.311 3
  21383157.068     4391107.019 8   2030093.436 7
  23443798.276    22163027.258 6   3017563.669 3
  24630491.585    13413121.715 5  -3005471.380 2
 94  5 15 17 13 30.0010000  0  7  2  7 27 18 19 31 16
  21963072.301   -12943039.864 8 -10024559.644 7
  23742429.998    -6068676.243 5  -5774277.120 3
  20766468.933   -13351671.246 8  -8965841.343 9
  23743526.189    17537283.061 6  13668102.683 3
  21390732.344     4430921.026 8   2061117.320 7
  23460858.925    22252687.870 6   3087429.061 3
  24639683.372    13461431.556 5  -2967827.431 2
 94  5 15 17 14  0.0010000  0  7  2  7 27 18 19 31 16
  21957977.119   -12969794.002 8 -10045407.003 7
  23724540.213    -6162712.780 6  -5847552.288 3
  20763884.272   -13365277.223 8  -8976443.416 9
  23766039.733    17655554.486 6  13760262.151 3
  21398368.328     4471043.200 8   2092381.323 7
  23478009.812    22342786.902 6   3157636.083 4
  24648945.250    13510115.226 5  -2929892.140 2
 94  5 15 17 14 30.0010000  0  7  2  7 27 18 19 31 16
  21952936.678   -12996292.945 8 -10066055.530 7
  23706669.194    -6256593.748 6  -5920706.257 3
  20761348.687   -13378586.595 8  -8986814.354 9
  23788577.051    17773984.694 6  13852545.340 3
  21406062.441     4511489.424 8   2123897.865 7
  23495237.086    22433316.212 6   3228178.365 3
  24658271.614    13559150.589 5  -2891682.759 2
 94  5 15 17 15  0.0010000  0  7  2  7 27 18 19 31 16
  21947945.104   -13022528.473 8 -10086498.797 7
  23688834.961    -6350341.253 6  -5993756.216 3
  20758873.841   -13391587.114 8  -8996944.629 9
  23811136.223    17892556.762 6  13944939.084 3
  21413825.387     4552271.082 8   2155675.759 7
  23512542.156    22524265.573 6   3299047.948 3
  24667680.840    13608543.981 5  -2853194.497 2
 94  5 15 17 15 30.0010000  0  7  2  7 27 18 19 31 16
  21943005.663   -13048475.877 8 -10106717.527 7
  23671015.837    -6443969.110 6  -6066712.908 3
  20756462.190   -13404263.012 8  -9006821.962 9
  23833730.202    18011275.067 6  14037446.736 3
  21421644.124     4593368.896 8   2187700.006 7
  23529924.722    22615628.314 6   3370239.644 3
  24677148.675    13658326.361 5  -2814403.044 2
 94  5 15 17 16  0.0010000  0  7  2  7 27 18 19 31 16
  21938126.781   -13074132.798 8 -10126709.953 7
  23653231.489    -6537467.714 6  -6139568.926 3
  20754118.023   -13416597.791 8  -9016433.479 9
  23856346.665    18130148.823 6  14130075.543 3
  21429525.068     4634772.076 8   2219962.210 7
  23547390.151    22707391.995 6   3441743.808 3
  24686693.768    13708510.304 5  -2775298.733 2
 94  5 15 17 16 30.0010000  0  7  2  7 27 18 19 31 16
  21933297.874   -13099502.806 8 -10146478.780 7
  23635460.751    -6630820.169 6  -6212311.067 3
  20751837.892   -13428582.723 8  -9025772.382 9
  23879000.332    18249193.929 6  14222837.916 3
  21437463.483     4676489.497 8   2252469.270 7
  23564925.941    22799551.326 6   3513556.211 3
  24696330.596    13759112.807 5  -2735868.229 2
 94  5 15 17 17  0.0010000  0  7  2  7 27 18 19 31 16
  21928521.820   -13124586.195 8 -10166024.282 7
  23617725.689    -6724020.477 6  -6284934.634 3
  20749621.826   -13440224.868 8  -9034844.191 9
  23901692.912    18368425.597 6  14315745.566 2
  21445459.637     4718515.187 8   2285216.538 7
  23582537.729    22892109.806 6   3585679.695 3
  24706035.028    13810136.102 5  -2696109.869 2
 94  5 15 17 17 30.0010000  0  7  2  7 27 18 19 31 16
  21923801.468   -13149392.213 8 -10185353.629 7
  23600019.616    -6817058.169 6  -6357431.474 3
  20747470.215   -13451540.648 8  -9043661.684 9
  23924418.710    18487856.927 6  14408808.879 2
  21453514.311     4760838.670 8   2318195.856 7
  23600230.101    22985066.255 6   3658113.251 3
  24715822.922    13861562.878 5  -2656037.088 2
 94  5 15 17 18  0.0010000  0  7  2  7 27 18 19 31 16
  21919130.762   -13173953.291 8 -10204492.127 7
  23582349.609    -6909919.776 6  -6429791.112 3
  20745373.107   -13462537.541 8  -9052230.683 9
  23947180.662    18607474.506 6  14502017.269 2
  21461626.095     4803464.741 8   2351410.955 7
  23617990.286    23078417.180 6   3730854.181 3
  24725684.115    13913364.583 5  -2615672.195 2
 94  5 15 17 18 30.0010000  0  7  2  7 27 18 19 31 16
  21914500.467   -13198275.739 8 -10223444.677 7
  23564713.089    -7002602.154 6  -6502011.108 3
  20743337.996   -13473238.165 8  -9060568.845 9
  23969976.371    18727252.386 6  14595350.584 2
  21469795.260     4846399.442 8   2384866.540 7
  23635832.194    23172165.113 6   3803904.468 3
  24735607.695    13965524.625 5  -2575028.073 2
 94  5 15 17 19  0.0010000  0  7  2  7 27 18 19 31 16
  21909916.880   -13222363.433 8 -10242214.295 7
  23547106.577    -7095110.841 6  -6574095.712 3
  20741355.468   -13483660.030 8  -9068689.773 9
  23992794.084    18847161.625 6  14688786.310 2
  21478020.936     4889622.052 8   2418546.473 7
  23653741.226    23266304.885 6   3877260.132 3
  24745602.446    14018027.282 5  -2534116.956 2
 94  5 15 17 19 30.0010000  0  7  2  7 27 18 19 31 16
  21905379.222   -13246206.305 8 -10260793.163 7
  23529539.729    -7187438.138 6  -6646039.009 3
  20739430.111   -13493780.514 8  -9076575.877 9
  24015637.880    18967194.236 6  14782318.073 2
  21486298.205     4933124.020 8   2452444.105 7
  23671738.786    23360839.255 6   3950923.243 3
  24755663.091    14070895.337 5  -2492921.123 2
 94  5 15 17 20  0.0010000  0  7  2  7 27 18 19 31 16
  21900891.119   -13269792.511 8 -10279172.012 7
  23512003.009    -7279575.236 6  -6717834.118 3
  20737564.803   -13503578.534 8  -9084210.691 9
  24038498.404    19087331.922 6  14875931.762 2
  21494633.335     4976911.728 8   2486564.368 7
  23689797.714    23455769.748 6   4024894.994 3
  24765791.249    14124142.711 5  -2451429.693 2
 94  5 15 17 20 30.0010000  0  8  2  7 27 18 19 31 16 26
  21896452.272   -13293105.389 8 -10297337.883 7
  23494507.211    -7371524.891 6  -6789483.118 3
  20735766.198   -13513050.345 8  -9091591.344 9
  24061377.185    19207562.518 5  14969617.906 2
  21503018.440     5020979.195 8   2520902.624 7
  23707942.683    23551097.627 6   4099176.428 3
  24776003.949    14177770.044 5  -2409642.238 2
  25379897.782     -573034.36615  -1447645.043 2
 94  5 15 17 21  0.0010000  0  8  2  7 27 18 19 31 16 26
  21892068.137   -13316156.104 8 -10315299.490 7
  23477046.639    -7463289.952 6  -6860988.295 3
  20734028.391   -13522177.407 8  -9098703.327 9
  24084276.412    19327893.955 5  15063382.477 2
  21511452.411     5065313.516 8   2555448.834 7
  23726154.595    23646807.063 6   4173755.218 3
  24786270.762    14231770.001 5  -2367564.430 2
  25364051.053     -656304.924 5  -1512531.185 2
 94  5 15 17 21 30.0010000  0  8  2  7 27 18 19 31 16 26
  21887728.041   -13338958.201 8 -10333067.345 7
  23459619.583    -7554865.424 6  -6932345.743 3
  20732356.568   -13530958.436 8  -9105545.687 9
  24107191.589    19448339.233 5  15157235.886 2
  21519944.452     5109926.037 8   2590211.812 7
  23744440.466    23742893.168 6   4248627.435 3
  24796625.473    14286128.189 4  -2325207.429 2
  25348237.990     -739383.503 5  -1577267.663 2
 94  5 15 17 22  0.0010000  0  8  2  7 27 18 19 31 16 26
  21883437.082   -13361524.094 8 -10350651.144 8
  23442231.141    -7646251.487 6  -7003555.614 3
  20730748.721   -13539408.682 8  -9112130.306 9
  24130139.142    19568897.312 5  15251177.150 2
  21528489.917     5154834.179 7   2625205.146 7
  23762791.362    23839351.650 6   4323789.851 2
  24807027.552    14340815.965 4  -2282593.644 2
  25332469.896     -822260.544 5  -1641847.091 2
 94  5 15 17 22 30.0010000  0  8  2  7 27 18 19 31 16 26
  21879187.584   -13383855.271 8 -10368052.069 8
  23424872.019    -7737454.354 6  -7074622.715 3
  20729197.835   -13547533.589 8  -9118461.398 9
  24153102.195    19689583.148 5  15345217.928 2
  21537092.671     5200044.936 7   2660434.276 7
  23781215.767    23936179.432 6   4399240.052 2
  24817489.919    14395826.882 5  -2239728.067 2
  25316739.726     -904930.571 5  -1706265.275 2
 94  5 15 17 23  0.0010000  0  8  2  7 27 18 19 31 16 26
  21874980.296   -13405947.018 8 -10385266.410 8
  23407552.828    -7828470.450 6  -7145544.292 3
  20727717.160   -13555322.336 8  -9124530.547 9
  24176096.217    19810423.100 5  15439378.827 2
  21545757.842     5245574.177 7   2695911.595 7
  23799717.548    24033376.973 6   4474978.361 2
  24828024.776    14451172.113 4  -2196601.913 2
  25301049.368     -987385.441 5  -1770515.799 2
 94  5 15 17 23 30.0010000  0  8  2  7 27 18 19 31 16 26
  21870828.051   -13427779.882 8 -10402279.024 8
  23390270.453    -7919292.936 6  -7216315.460 3
  20726299.921   -13562781.331 8  -9130342.773 9
  24199120.607    19931414.762 5  15533657.922 2
  21554485.070     5291440.436 7   2731651.496 7
  23818282.256    24130944.446 6   4551004.906 2
  24838618.662    14506862.015 4  -2153207.282 2
  25285397.683    -1069617.242 5  -1834592.485 2
 94  5 15 17 24  0.0010000  0  8  2  7 27 18 19 31 16 26
  21866723.712   -13449348.806 8 -10419085.971 8
  23373026.391    -8009928.258 6  -7286940.371 3
  20724941.292   -13569907.488 8  -9135895.619 9
  24222170.630    20052546.405 5  15628046.117 2
  21563274.566     5337631.976 7   2767644.888 7
  23836921.223    24228873.084 6   4627312.892 2
  24849287.077    14562909.150 4  -2109534.246 2
  25269794.056    -1151625.501 5  -1898494.982 2
 94  5 15 17 24 30.0010000  0  8  2  7 27 18 19 31 16 26
  21862669.049   -13470647.486 8 -10435682.349 8
  23355808.860    -8100374.222 6  -7357417.706 3
  20723652.094   -13576700.204 8  -9141188.652 9
  24245247.634    20173815.936 5  15722541.726 2
  21572124.799     5384134.779 8   2803880.835 7
  23855623.745    24327162.750 6   4703902.250 2
  24860021.805    14619319.323 4  -2065578.284 2
  25254230.810    -1233416.290 5  -1962228.044 2
 94  5 15 17 25  0.0010000  0  8  2  7 27 18 19 31 16 26
  21858667.989   -13491679.646 8 -10452071.037 8
  23338639.086    -8190619.548 6  -7427738.667 3
  20722421.746   -13583162.174 8  -9146223.950 9
  24268353.329    20295214.665 6  15817138.034 2
  21581031.843     5430948.177 8   2840358.774 7
  23874389.074    24425812.315 6   4780771.974 2
  24870817.901    14676087.913 4  -2021343.139 1
  25238702.820    -1314987.947 6  -2025790.350 2
 94  5 15 17 25 30.0010000  0  8  2  7 27 18 19 31 16 26
  21854714.416   -13512452.962 8 -10468258.027 8
  23321502.140    -8280665.144 6  -7497903.999 3
  20721257.202   -13589295.974 8  -9151003.541 9
  24291475.691    20416728.056 6  15911823.682 2
  21590001.093     5478073.020 8   2877079.421 7
  23893242.482    24524831.079 6   4857929.424 2
  24881684.748    14733207.544 4  -1976834.408 1
  25223222.646    -1396334.623 5  -2089177.344 2
 94  5 15 17 26  0.0010000  0  8  2  7 27 18 19 31 16 26
  21850810.848   -13532986.290 8 -10484258.028 8
  23304404.227    -8370529.047 6  -7567927.775 3
  20720150.968   -13595094.708 8  -9155522.039 9
  24314611.665    20538338.672 5  16006585.052 3
  21599023.617     5525497.174 8   2914033.279 7
  23912141.789    24624220.106 6   4935375.392 3
  24892626.513    14790655.622 4  -1932069.728 1
  25207784.204    -1477464.651 5  -2152395.544 2
 94  5 15 17 26 30.0010000  0  8  2  7 27 18 19 31 16 26
  21846945.414   -13553284.939 8 -10500075.160 8
  23287340.070    -8460210.823 6  -7637809.652 3
  20719113.956   -13600561.566 8  -9159781.945 9
  24337771.351    20660029.495 5  16101408.974 3
  21608106.279     5573219.010 8   2951219.090 7
  23931128.125    24723959.943 5   5013094.708 3
  24903621.102    14848399.890 4  -1887074.290 1
  25192392.110    -1558389.723 5  -2215453.982 2
 94  5 15 17 27  0.0010000  0  8  2  7 27 18 19 31 16 26
  21843125.819   -13573353.476 8 -10515712.972 8
  23270306.222    -8549710.925 6  -7707549.918 3
  20718134.864   -13605688.570 8  -9163777.022 9
  24360944.439    20781795.944 6  16196291.732 2
  21617244.583     5621239.243 8   2988637.424 7
  23950177.177    24824035.831 5   5091075.813 3
  24914662.248    14906430.636 4  -1841855.514 1
  25177024.329    -1639098.894 5  -2278344.225 2
 94  5 15 17 27 30.0010000  0  8  2  7 27 18 19 31 16 26
  21839353.080   -13593192.075 8 -10531171.625 8
  23253307.120    -8639038.587 6  -7777155.848 4
  20717221.816   -13610470.596 8  -9167503.270 9
  24384129.758    20903626.076 5  16291224.253 2
  21626436.010     5669543.380 8   3026276.989 7
  23969278.214    24924435.076 5   5169308.976 3
  24925753.760    14964739.966 4  -1796419.813 1
  25161706.283    -1719600.117 5  -2341072.444 2
 94  5 15 17 28  0.0010000  0  8  2  7 27 18 19 31 16 26
  21835624.142   -13612792.658 8 -10546444.803 8
  23236342.345    -8728172.750 6  -7846610.990 4
  20716378.649   -13614903.459 8  -9170957.442 9
  24407320.564    21025522.735 5  16386208.447 2
  21635679.031     5718120.622 8   3064129.365 7
  23988441.158    25025138.742 5   5247779.341 3
  24936894.767    15023329.288 4  -1750765.835 1
  25146424.962    -1799894.108 5  -2403639.182 2
 94  5 15 17 28 30.0010000  0  8  2  7 27 18 19 31 16 26
  21831939.123   -13632143.390 8 -10561523.285 8
  23219429.913    -8817088.985 6  -7915896.340 4
  20715603.866   -13618983.875 8  -9174137.006 9
  24430536.162    21147511.181 5  16481264.266 2
  21644978.233     5766979.491 8   3102201.171 7
  24007663.490    25126140.484 5   5326481.910 3
  24948109.853    15082219.156 4  -1704877.629 1
  25131189.120    -1879974.034 4  -2466039.070 2
 94  5 15 17 29  0.0010000  0  8  2  7 27 18 19 31 16 26
  21828302.641   -13651252.390 8 -10576413.426 8
  23202545.092    -8905788.943 6  -7985013.132 4
  20714891.499   -13622712.156 8  -9177042.161 9
  24453771.606    21269603.166 5  16576400.715 2
  21654329.120     5816127.289 8   3140498.142 7
  24026940.745    25227453.376 6   5405426.981 3
  24959385.407    15141420.489 4  -1658746.852 1
  25115991.471    -1959846.420 4  -2528277.297 2
 94  5 15 17 29 30.0010000  0  8  2  7 27 18 19 31 16 26
  21824712.926   -13670118.713 8 -10591114.447 8
  23185714.894    -8994256.386 6  -8053948.733 4
  20714248.234   -13626087.682 8  -9179672.451 9
  24477024.349    21391799.887 5  16671618.842 2
  21663738.706     5865578.059 8   3179031.206 7
  24046285.753    25329089.731 6   5484624.131 3
  24970713.815    15200940.778 4  -1612367.451 1
  25100833.065    -2039510.745 4  -2590353.368 2
 94  5 15 17 30  0.0010000  0  8  2  7 27 18 19 31 16 26
  21821169.019   -13688746.844 8 -10605629.878 8
  23168929.184    -9082483.731 6  -8122697.238 4
  20713674.072   -13629113.538 8  -9182030.270 9
  24500301.134    21514111.668 5  16766926.560 2
  21673210.738     5915343.745 8   3217809.628 7
  24065683.134    25431052.726 6   5564075.736 3
  24982085.452    15260784.462 4  -1565736.153 1
  25085722.955    -2118951.650 4  -2652255.272 2
 94  5 15 17 30 30.0010000  0  8  2  7 27 18 19 31 16 26
  21817663.276   -13707155.687 8 -10619974.434 8
  23152177.351    -9170487.202 6  -8191271.341 4
  20713164.994   -13631801.444 8  -9184124.746 9
  24523593.689    21636523.356 5  16862312.166 2
  21682738.772     5965423.947 8   3256833.145 6
  24085146.140    25533337.591 6   5643778.195 3
  24993529.969    15320928.460 4  -1518870.661 1
  25070631.283    -2198181.646 4  -2713992.873 2
 94  5 15 17 31  0.0010000  0  8  2  7 27 18 19 31 16 26
  21814200.763   -13725350.213 8 -10634151.987 8
  23135471.416    -9258266.320 6  -8259670.587 4
  20712716.505   -13634163.728 8  -9185965.487 9
  24546897.516    21759015.253 4  16957760.222 2
  21692328.743     6015820.202 8   3296102.943 7
  24104679.478    25635953.824 6   5723738.860 3
  25005038.732    15381354.298 5  -1471785.738 1
  25055600.469    -2277196.426 4  -2775562.816 2
 94  5 15 17 31 30.0010000  0  8  2  7 27 18 19 31 16 26
  21810784.028   -13743324.326 8 -10648157.786 8
  23118813.209    -9345821.019 6  -8327894.963 4
  20712327.824   -13636206.770 8  -9187557.478 9
  24570225.357    21881579.127 5  17053264.417 2
  21701977.683     6066519.685 8   3335609.017 6
  24124263.870    25738893.466 6   5803951.510 3
  25016574.446    15442062.002 4  -1424481.112 1
  25040605.450    -2355984.124 5  -2836955.768 2
 94  5 15 17 32  0.0010000  0  8  2  7 27 18 19 31 16 26
  21807402.130   -13761076.769 8 -10661990.866 8
  23102193.944    -9433153.436 6  -8395946.166 4
  20712000.870   -13637922.419 8  -9188894.354 9
  24593564.889    22004224.474 5  17148832.069 2
  21711683.105     6117514.533 8   3375345.228 6
  24143913.347    25842151.763 6   5884412.473 3
  25028194.611    15503050.967 5  -1376957.262 1
  25025666.911    -2434537.750 5  -2898166.385 2
 94  5 15 17 32 30.0010000  0  8  2  7 27 18 19 31 16 26
  21804070.476   -13778607.156 8 -10675650.909 8
  23085616.680    -9520264.435 6  -8463824.795 4
  20711738.672   -13639313.453 8  -9189978.277 9
  24616919.531    22126937.863 5  17244452.733 2
  21721439.340     6168792.643 8   3415302.182 6
  24163629.677    25945727.379 6   5965120.725 3
  25039857.228    15564311.499 5  -1329221.822 1
  25010759.761    -2512856.201 5  -2959193.672 2
 94  5 15 17 33  0.0010000  0  8  2  7 27 18 19 31 16 26
  21800776.716   -13795903.720 8 -10689128.742 8
  23069080.368    -9607154.506 6  -8531531.294 4
  20711536.821   -13640373.261 8  -9190804.117 9
  24640277.831    22249713.117 5  17340121.620 2
  21731249.449     6220345.433 8   3455473.171 7
  24183394.634    26049616.854 6   6046073.540 3
  25051558.307    15625863.825 5  -1281259.107 1
  24995901.867    -2590915.376 5  -3020019.012 2
 94  5 15 17 33 30.0010000  0  8  2  7 27 18 19 31 16 26
  21797531.223   -13812957.084 8 -10702417.083 8
  23052590.224    -9693824.599 6  -8599066.391 4
  20711402.514   -13641079.798 8  -9191354.669 9
  24663652.649    22372548.424 5  17435837.286 2
  21741110.223     6272169.244 7   3495855.325 6
  24203220.479    26153807.475 6   6127260.984 3
  25063342.039    15687728.599 5  -1233052.792 1
  24981102.822    -2668703.715 5  -3080633.268 2
 94  5 15 17 34  0.0010000  0  9  2 15  7 27 18 19 31 16 26
  21794330.369   -13829766.037 8 -10715514.976 8
  25250598.285     -502279.09513  -1193501.208 1
  23036142.860    -9780266.787 6  -8666423.899 4
  20711337.669   -13641416.461 8  -9191617.007 9
  24687036.220    22495430.706 5  17531589.591 2
  21751024.779     6324269.266 7   3536452.721 6
  24223105.743    26258297.909 5   6208682.078 3
  25075165.914    15749897.168 5  -1184609.897 1
  24966348.896    -2746219.027 5  -3141034.781 2
 94  5 15 17 34 30.0010000  0  9  2 15  7 27 18 19 31 16 26
  21791182.099   -13846320.927 8 -10728414.886 8
  25240089.959     -557499.790 3  -1236530.236 1
  23019734.529    -9866471.002 6  -8733595.965 4
  20711344.505   -13641380.616 8  -9191589.085 9
  24710426.598    22618341.501 5  17627364.055 2
  21760996.086     6376662.606 7   3577278.678 7
  24243047.308    26363086.764 5   6290335.717 3
  25087050.286    15812368.130 5  -1135931.268 1
  24951655.288    -2823454.916 5  -3201218.529 3
 94  5 15 17 35  0.0010000  0  9  2 15  7 27 18 19 31 16 26
  21788078.977   -13862617.305 8 -10741113.344 8
  25229615.001     -612528.907 3  -1279410.091 1
  23003379.562    -9952424.527 6  -8800572.696 4
  20711424.579   -13640965.178 8  -9191265.376 9
  24733826.029    22741282.622 5  17723162.176 2
  21771024.623     6429369.570 7   3618348.999 6
  24263037.858    26468163.220 5   6372213.463 2
  25098986.793    15875137.727 5  -1087019.942 2
  24937004.011    -2900424.905 5  -3261195.120 3
 94  5 15 17 35 30.0010000  0  9  2 15  7 27 18 19 31 16 26
  21785027.359   -13878671.650 8 -10753623.237 8
  25219178.386     -667367.269 3  -1322141.218 1
  22987070.073   -10038125.894 6  -8867352.918 4
  20711574.865   -13640174.760 8  -9190649.472 9
  24757223.031    22864252.812 5  17818982.948 2
  21781116.207     6482397.872 7   3659669.715 6
  24283088.398    26573520.595 5   6454310.055 2
  25110996.389    15938174.995 5  -1037900.118 2
  24922410.474    -2977148.129 5  -3320979.417 3
 94  5 15 17 36  0.0010000  0  9  2 15  7 27 18 19 31 16 26
  21782016.094   -13894490.188 8 -10765949.366 8
  25208788.119     -722011.900 3  -1364721.369 2
  22970809.480   -10123561.455 6  -8933926.030 4
  20711789.996   -13639013.693 8  -9189744.745 9
  24780633.285    22987270.986 5  17914841.132 2
  21791271.407     6535761.593 7   3701251.826 6
  24303192.270    26679169.101 5   6536633.572 2
  25123029.818    16001458.826 5   -988588.135 2
  24907853.512    -3053620.968 6  -3380568.614 3
 94  5 15 17 36 30.0010000  0  9  2 15  7 27 18 19 31 16 26
  21779047.819   -13910075.448 8 -10778093.720 8
  25198435.476     -776462.164 4  -1407150.035 2
  22954606.357   -10208737.027 6  -9000296.555 4
  20712080.465   -13637499.398 8  -9188564.794 9
  24804056.249    23110343.656 5  18010741.760 2
  21801491.212     6589466.132 7   3743099.481 6
  24323351.544    26785093.396 5   6619171.975 2
  25135124.495    16064985.569 5   -939086.844 2
  24893356.028    -3129838.426 5  -3439958.796 3
 94  5 15 17 37  0.0010000  0  9  2 15  7 27 18 19 31 16 26
  21776126.162   -13925429.878 8 -10790058.216 8
  25188111.014     -830711.951 3  -1449422.527 2
  22938444.545   -10293659.132 6  -9066469.583 4
  20712438.537   -13635624.902 8  -9187104.156 9
  24827485.000    23233487.527 5  18106697.830 2
  21811771.575     6643501.249 7   3785204.740 6
  24343563.791    26891303.097 5   6701932.752 2
  25147244.235    16128754.000 5   -889397.226 2
  24878892.631    -3205798.917 5  -3499148.780 3
 94  5 15 17 37 30.0010000  0  9  2 15  7 27 18 19 31 16 26
  21773250.372   -13940552.264 8 -10801841.893 8
  25177819.618     -884753.175 3  -1491532.513 2
  22922332.949   -10378332.083 6  -9132448.446 4
  20712866.881   -13633380.235 8  -9185355.063 9
  24850935.575    23356713.986 5  18202718.307 2
  21822117.622     6697858.763 7   3827561.213 6
  24363837.496    26997817.100 5   6784930.612 2
  25159446.837    16192775.135 5   -839510.718 2
  24864496.837    -3281471.796 5  -3558114.630 3
 94  5 15 17 38  0.0010000  0  9  2 15  7 27 18 19 31 16 26
  21770419.282   -13955429.170 8 -10813434.288 8
  25167580.597     -938579.904 4  -1533475.339 2
  22906267.311   -10462751.974 6  -9198230.133 4
  20713361.358   -13630761.143 8  -9183314.233 9
  24874396.134    23480020.516 5  18298801.129 2
  21832522.639     6752530.926 7   3870162.877 6
  24384155.001    27104629.568 5   6868161.083 2
  25171681.517    16257062.592 5   -789416.671 2
  24850146.432    -3356850.765 5  -3616851.466 2
 94  5 15 17 38 30.0010000  0  9  2 15  7 27 18 19 31 16 26
  21767634.810   -13970057.337 8 -10824832.863 8
  25157372.963     -992187.027 4  -1575247.046 2
  22890251.858   -10546925.082 6  -9263819.534 4
  20713933.752   -13627772.633 8  -9180985.533 9
  24897872.372    23603380.124 5  18394925.372 2
  21842984.467     6807513.296 7   3913006.250 6
  24404539.389    27211733.840 5   6951618.936 2
  25183961.286    16321619.603 4   -739112.591 2
  24835862.070    -3431937.915 5  -3675360.876 2
 94  5 15 17 39  0.0010000  0  9  2 15  7 27 18 19 31 16 26
  21764898.125   -13984445.179 8 -10836044.162 8
  25147218.453    -1045569.879 4  -1616843.984 2
  22874280.175   -10630840.659 6  -9329208.245 4
  20714570.691   -13624408.447 8  -9178364.093 9
  24921358.832    23726791.085 4  18491089.531 2
  21853507.152     6862800.241 7   3956086.953 6
  24424975.251    27319134.951 5   7035308.080 2
  25196291.690    16386451.290 4   -688594.500 2
  24821633.111    -3506736.771 5  -3733645.688 2
 94  5 15 17 39 30.0010000  0  9  2 15  7 27 18 19 31 16 26
  21762202.301   -13998610.680 8 -10847082.216 8
  25137098.629    -1098731.955 4  -1658268.911 2
  22858362.725   -10714493.370 6  -9394392.111 4
  20715282.368   -13620682.303 8  -9175460.623 9
  24944850.509    23850229.012 4  18587274.824 2
  21864084.759     6918394.978 7   3999407.519 6
  24445468.764    27426817.321 5   7119216.357 2
  25208677.796    16451558.780 4   -637861.461 2
  24807448.581    -3581255.504 5  -3791712.190 2
 94  5 15 17 40  0.0010000  0  9  2 15  7 27 18 19 31 16 26
  21759546.170   -14012559.275 8 -10857951.243 8
  25127023.534    -1151676.703 5  -1699524.492 2
  22842495.130   -10797876.829 6  -9459366.201 4
  20716057.632   -13616604.880 8  -9172283.408 9
  24968341.677    23973680.339 4  18683470.379 2
  21874722.175     6974300.460 7   4042970.198 6
  24466008.085    27534764.320 5   7203330.887 2
  25221138.789    16516938.365 3   -586916.442 2
  24793319.062    -3655510.594 5  -3849573.286 2
 94  5 15 17 40 30.0010000  0  9  2 15  7 27 18 19 31 16 26
  21756933.149   -14026298.624 8 -10868657.227 9
  25116991.099    -1204401.055 5  -1740608.343 2
  22826678.229   -10880985.188 6  -9524125.932 4
  20716901.847   -13612177.979 8  -9168833.882 9
  24991840.579    24097151.422 4  18779681.510 2
  21885423.477     7030526.595 7   4086782.748 6
  24486598.850    27642984.513 5   7287658.309 2
  25233603.110    16582577.125 3   -535769.450 2
  24779239.250    -3729495.704 5  -3907224.002 2
 94  5 15 17 41  0.0010000  0  9  2 15  7 27 18 19 31 16 26
  21754357.272   -14039828.068 8 -10879199.648 9
  25107000.995    -1256898.928 5  -1781515.673 1
  22810920.538   -10963807.788 6  -9588662.980 4
  20717811.148   -13607379.973 8  -9165095.196 9
  25015339.001    24220663.625 4  18875924.554 2
  21896182.368     7087070.260 7   4130842.743 6
  24507247.805    27751482.905 5   7372202.471 2
  25246161.716    16648479.106 4   -484417.301 2
  24765209.742    -3803210.763 5  -3964664.268 2
 94  5 15 17 41 30.0010000  0  9  2 15  7 27 18 19 31 16 26
  21751824.835   -14053133.997 8 -10889567.891 9
  25097054.421    -1309166.026 5  -1822243.182 2
  22795212.673   -11046335.939 6  -9652970.598 4
  20718796.805   -13602200.586 8  -9161059.312 9
  25038848.846    24344215.228 4  18972198.426 2
  21907001.009     7143929.602 7   4175148.682 6
  24527945.357    27860254.267 5   7456959.301 2
  25258764.181    16714633.376 3   -432868.644 2
  24751237.945    -3876643.481 5  -4021884.511 2
 94  5 15 17 42  0.0010000  0  9  2 15  7 27 18 19 31 16 26
  21749339.496   -14066198.929 8 -10899748.355 9
  25087152.965    -1361201.806 5  -1862790.479 2
  22779562.847   -11128577.057 6  -9717054.526 4
  20719855.942   -13596635.127 8  -9156722.602 9
  25062374.729    24467806.451 4  19068503.099 1
  21917881.556     7201097.800 7   4219695.308 6
  24548691.265    27969281.403 5   7541915.490 2
  25271378.099    16781015.220 3   -381142.617 2
  24737320.709    -3949782.428 5  -4078875.848 2
 94  5 15 17 42 30.0010000  0  9  2 15  7 27 18 19 31 16 26
  21746899.755   -14079025.328 8 -10909742.952 9
  25077293.781    -1413003.306 5  -1903155.209 1
  22763968.572   -11210532.248 6  -9780915.699 4
  20720989.577   -13590685.864 8  -9152086.835 9
  25085893.687    24591420.870 5  19164825.859 1
  21928815.857     7258572.088 7   4264480.456 6
  24569491.885    28078547.847 5   7627058.149 2
  25284065.286    16847608.415 4   -329251.961 2
  24723455.668    -4022624.869 5  -4135636.214 2
 94  5 15 17 43  0.0010000  0  9  2 15  7 27 18 19 31 16 26
  21744504.743   -14091614.840 8 -10919552.954 9
  25067481.304    -1464564.146 5  -1943332.465 1
  22748427.601   -11292193.860 6  -9844548.084 4
  20722195.972   -13584344.211 8  -9147145.291 9
  25109417.772    24715042.915 5  19261154.536 1
  21939811.584     7316349.241 7   4309501.601 6
  24590324.163    28188041.724 5   7712377.976 2
  25296778.345    16914425.630 3   -277186.684 2
  24709651.754    -4095168.067 5  -4192163.337 2
 94  5 15 17 43 30.0010000  0  8  2 15  7 27 18 19 31 26
  21742151.642   -14103969.724 8 -10929180.136 9
  25057718.083    -1515885.009 5  -1983322.682 1
  22732939.843   -11373570.387 6  -9907958.320 5
  20723474.647   -13577622.698 8  -9141907.755 9
  25132942.876    24838656.367 5  19357476.487 1
  21950865.982     7374430.220 7   4354759.486 6
  24611202.159    28297756.749 5   7797870.186 2
  24695907.889    -4167401.819 5  -4248449.323 2
 94  5 15 17 44  0.0010000  0  8  2 15  7 27 18 19 31 26
  21739841.981   -14116110.877 8 -10938640.765 9
  25048001.779    -1566967.039 5  -2023126.758 1
  22717508.506   -11454672.007 6  -9971154.362 5
  20724828.060   -13570529.897 8  -9136380.926 9
  25156467.020    24962254.047 5  19453786.208 2
  21961976.650     7432821.396 7   4400259.074 6
  24632122.037    28407699.554 5   7883539.876 3
  24682220.774    -4239332.079 5  -4304498.864 2
 94  5 15 17 44 30.0010000  0  8  2 15  7 27 18 19 31 26
  21737571.173   -14128048.072 8 -10947942.473 9
  25038322.560    -1617808.352 5  -2062743.245 1
  22702135.029   -11535494.230 6 -10034132.699 5
  20726248.417   -13563061.494 8  -9130561.395 9
  25179983.670    25085841.166 5  19550087.665 2
  21973144.728     7491520.571 7   4445998.677 6
  24653095.577    28517887.658 5   7969400.662 2
  24668581.626    -4310961.972 5  -4360314.338 2
 94  5 15 17 45  0.0010000  0  8  2 15  7 27 18 19 31 26
  21735340.987   -14139776.576 8 -10957081.554 9
  25028691.817    -1668404.042 5  -2102168.419 1
  22686800.585   -11616037.308 6 -10096893.501 5
  20727740.364   -13555206.266 8  -9124440.444 9
  25203502.628    25209436.299 5  19646395.418 2
  21984375.044     7550526.173 7   4491977.037 6
  24674110.069    28628344.557 5   8055470.929 2
  24655014.519    -4382279.178 5  -4415886.161 2
 94  5 15 17 45 30.0010000  0  8  2 15  7 27 18 19 31 26
  21733148.065   -14151288.215 8 -10966051.657 9
  25019110.031    -1718751.321 5  -2141400.038 1
  22671528.407   -11696303.952 7 -10159438.918 5
  20729309.148   -13546968.449 8  -9118021.370 9
  25227019.818    25333051.133 5  19742718.457 2
  21995663.579     7609841.241 7   4538196.537 6
  24695181.372    28739078.625 5   8141757.181 2
  24641506.470    -4453280.658 5  -4471211.971 2
 94  5 15 17 46  0.0010000  0  8  2 15  7 27 18 19 31 26
  21731000.352   -14162572.748 8 -10974844.791 9
  25009575.161    -1768840.255 5  -2180430.257 1
  22656308.154   -11776282.273 7 -10221759.666 5
  20730950.961   -13538341.065 8  -9111298.753 9
  25250553.316    25456697.387 5  19839066.016 2
  22007009.584     7669477.871 7   4584666.624 6
  24716311.254    28850088.389 5   8228258.251 2
  24628055.412    -4523969.315 5  -4526293.997 2
 94  5 15 17 46 30.0010000  0  8  2 15  7 27 18 19 31 26
  21728900.965   -14173613.782 8 -10983448.180 9
  25000102.229    -1818660.573 4  -2219251.189 1
  22641145.821   -11855967.258 7 -10283851.820 5
  20732668.652   -13529313.815 8  -9104264.534 9
  25274093.229    25580385.793 5  19935446.356 2
  22018418.216     7729428.185 7   4631381.138 6
  24737482.987    28961356.479 5   8314960.589 2
  24614661.764    -4594352.651 5  -4581138.152 2
 94  5 15 17 47  0.0010000  0  8  2 15  7 27 18 19 31 26
  21726844.748   -14184425.164 8 -10991872.650 9
  24990669.979    -1868216.170 4  -2257865.876 1
  22626034.842   -11935361.877 7 -10345717.750 5
  20734460.572   -13519893.803 8  -9096924.267 9
  25297631.494    25704104.670 4  20031850.510 2
  22029885.697     7789679.425 7   4678330.121 6
  24758698.670    29072850.903 5   8401839.297 2
  24601326.156    -4664437.821 5  -4635749.917 2
 94  5 15 17 47 30.0020000  0  8  2 15  7 27 18 19 31 26
  21724827.535   -14195018.185 8 -11000126.933 9
  24981296.608    -1917510.340 5  -2296276.877 1
  22610983.672   -12014466.064 7 -10407357.344 5
  20736327.679   -13510082.459 8  -9089279.092 9
  25321180.911    25827842.053 4  20128269.077 2
  22041409.000     7850234.078 7   4725515.541 6
  24779954.075    29184541.422 5   8488870.871 2
  24588045.081    -4734232.484 5  -4690135.379 3
 94  5 15 17 48  0.0020000  0  8  2 15  7 27 18 19 31 26
  21722849.804   -14205395.944 8 -11008213.485 9
  24971968.386    -1966536.666 4  -2334479.229 1
  22595989.972   -12093271.215 7 -10468763.934 5
  20738271.324   -13499869.666 8  -9081321.075 9
  25344720.255    25951577.312 4  20224685.891 2
  22052990.223     7911082.882 7   4772930.189 6
  24801237.990    29296403.233 5   8576035.847 2
  24574819.197    -4803726.645 6  -4744286.630 3
 94  5 15 17 48 30.0020000  0  8  2 15  7 27 18 19 31 26
  21720920.550   -14215553.735 8 -11016128.654 9
  24962689.150    -2015286.059 4  -2372465.669 1
  22581053.862   -12171762.409 7 -10529925.880 5
  20740291.775   -13489251.835 8  -9073047.445 9
  25368264.426    26075305.758 3  20321097.485 2
  22064622.410     7972232.435 7   4820579.155 6
  24822551.915    29408441.771 4   8663338.564 2
  24561658.548    -4872892.374 6  -4798181.965 3
 94  5 15 17 49  0.0020000  0  8  2 15  7 27 18 19 31 26
  21719028.829   -14225484.417 8 -11023866.852 9
  24953461.508    -2063751.084 4  -2410230.568 1
  22566178.670   -12249920.589 7 -10590828.348 5
  20742392.900   -13478216.174 8  -9064448.252 9
  25391813.453    26199022.761 3  20417500.087 2
  22076320.791     8033704.578 7   4868479.502 6
  24843912.637    29520669.473 4   8750788.687 2
  24548562.444    -4941699.204 6  -4851797.662 3
 94  5 15 17 49 30.0020000  0  8  2 15  7 27 18 19 31 26
  21717187.174   -14235173.703 8 -11031416.941 9
  24944290.527    -2111925.948 4  -2447769.292 1
  22551370.001   -12327741.564 7 -10651468.041 5
  20744572.271   -13466764.650 8  -9055524.985 9
  25415359.063    26322728.977 3  20513894.236 2
  22088080.930     8095507.552 7   4916637.656 6
  24865309.395    29633113.271 4   8838407.218 2
  24535545.335    -5010148.067 6  -4905134.422 3
 94  5 15 17 50  0.0020000  0  7  2 15  7 27 19 31 26
  21715391.267   -14244601.594 8 -11038763.335 9
  24935177.196    -2159802.857 4  -2485076.084 1
  22536628.727   -12405218.551 7 -10711839.695 5
  20746826.861   -13454902.899 8  -9046282.069 9
  22099907.353     8157644.048 7   4965055.706 6
  24886750.551    29745807.402 4   8926220.741 1
  24522581.170    -5078232.434 6  -4958187.147 3
 94  5 15 17 50 30.0020000  0  7  2 15  7 27 19 31 26
  21713648.424   -14253772.614 8 -11045909.592 9
  24926138.783    -2207386.998 4  -2522154.507 1
  22521948.699   -12482357.253 7 -10771947.771 5
  20749162.963   -13442635.393 8  -9036722.987 9
  22111793.074     8220106.767 7   5013727.927 6
  24908248.338    29858760.980 5   9014236.508 1
  24509693.003    -5145959.024 5  -5010961.083 3
 94  5 15 17 51  0.0020000  0  7  2 15  7 27 19 31 26
  21711945.843   -14262703.084 8 -11052868.381 9
  24917131.069    -2254690.131 4  -2559014.028 1
  22507328.781   -12559179.865 7 -10831809.524 5
  20751571.916   -13429965.091 8  -9026850.024 9
  22123739.954     8282876.946 7   5062639.736 6
  24929797.001    29971982.321 5   9102460.881 2
  24496867.581    -5213355.223 6  -5063477.544 3
 94  5 15 17 51 30.0020000  0  7  2 15  7 27 19 31 26
  21710289.819   -14271406.655 8 -11059650.386 9
  24908188.620    -2301713.853 4  -2595655.951 1
  22492771.608   -12635694.582 7 -10891431.352 5
  20754057.465   -13416912.178 8  -9016678.934 9
  22135735.639     8345940.882 7   5111780.447 6
  24951393.899    30085473.210 5   9190895.280 1
  24484106.406    -5280422.570 6  -5115737.821 3
 94  5 15 17 52  0.0020000  0  7  2 15  7 27 19 31 26
  21708673.998   -14279894.806 8 -11066264.531 9
  24899286.523    -2348453.872 4  -2632076.669 1
  22478267.409   -12711899.879 7 -10950812.071 5
  20756616.553   -13403470.966 8  -9006205.270 9
  22147798.598     8409312.382 7   5161160.821 6
  24973037.716    30199211.429 5   9279522.417 2
  24471408.007    -5347149.040 6  -5167732.440 3
 94  5 15 17 52 30.0020000  0  7  2 15  7 27 19 31 26
  21707096.910   -14288186.481 8 -11072725.568 9
  24890454.337    -2394901.530 4  -2668269.553 1
  22463825.897   -12787792.543 7 -11009949.173 5
  20759250.230   -13389631.576 8  -8995421.344 9
  22159918.937     8472999.996 7   5210787.509 6
  24994721.914    30313165.187 5   9368317.582 2
  24458775.412    -5413535.785 6  -5219462.344 3
 94  5 15 17 53  0.0020000  0  7  2 15  7 27 19 31 26
  21705552.169   -14296296.034 8 -11079044.695 9
  24881663.313    -2441054.189 4  -2704232.612 1
  22449442.514   -12863375.412 7 -11068844.876 5
  20761955.587   -13375410.693 8  -8984340.138 9
  22172099.475     8537020.027 7   5260673.236 6
  25016440.289    30427309.830 5   9457261.386 2
  24446205.054    -5479589.641 6  -5270932.866 3
 94  5 15 17 53 30.0020000  0  7  2 15  7 27 19 31 26
  21704047.361   -14304220.519 8 -11085219.624 9
  24872945.648    -2486900.018 4  -2739956.632 1
  22435120.799   -12938634.851 7 -11127488.557 5
  20764731.456   -13360799.092 8  -8972954.469 9
  22184345.817     8601382.556 7   5310825.865 6
  25038196.138    30541624.271 5   9546337.515 2
  24433701.880    -5545312.360 6  -5322145.338 3
 94  5 15 17 54  0.0020000  0  7  2 15  7 27 19 31 26
  21702575.230   -14311944.280 8 -11091238.135 9
  24864276.909    -2532427.593 4  -2775432.698 1
  22420863.539   -13013568.012 7 -11185878.004 5
  20767596.602   -13345772.009 8  -8961245.066 9
  22196660.332     8666091.495 7   5361248.382 6
  25059979.117    30656092.302 5   9635533.361 2
  24421253.118    -5610709.036 6  -5373103.759 3
 94  5 15 17 54 30.0020000  0  7  2 15  7 27 19 31 26
  21701144.530   -14319463.024 8 -11097096.900 9
  24855669.958    -2577642.792 4  -2810665.265 1
  22406662.730   -13088172.980 7 -11244011.715 5
  20770535.198   -13330335.783 8  -8949216.844 9
  22209036.934     8731124.451 7   5411923.405 6
  25081786.830    30770718.571 5   9724852.470 2
  24408869.441    -5675787.037 6  -5423813.848 3
 94  5 15 17 55  0.0020000  0  7  2 15  7 27 19 31 26
  21699753.074   -14326772.375 8 -11102792.492 9
  24847130.040    -2622557.893 4  -2845663.976 1
  22392531.233   -13162451.451 7 -11301891.024 5
  20773548.801   -13314486.575 8  -8936866.810 9
  22221469.507     8796459.248 7   5462833.620 6
  25103639.572    30885515.300 5   9814304.432 2
  24396547.162    -5740547.454 6  -5474276.487 3
 94  5 15 17 55 30.0020000  0  7  2 15  7 27 19 31 26
  21698407.185   -14333861.362 8 -11108316.380 9
  24838643.365    -2667172.570 4  -2880428.632 1
  22378458.256   -13236396.972 7 -11359510.885 5
  20776645.178   -13298216.391 8  -8924188.750 9
  22233953.524     8862072.380 7   5513960.734 6
  25125519.325    31000494.835 5   9903898.798 2
  24384287.299    -5804970.425 6  -5524476.163 3
 94  5 15 17 56  0.0020000  0  7  2 15  7 27 19 31 26
  21697101.799   -14340718.032 8 -11113659.241 9
  24830214.880    -2711483.835 4  -2914956.928 1
  22364453.271   -13310002.615 7 -11416865.877 5
  20779819.830   -13281527.894 8  -8911184.733 9
  22246492.134     8927972.631 7   5565311.544 6
  25147433.734    31115662.303 5   9993639.640 2
  24372097.078    -5869029.663 6  -5574392.419 3
 94  5 15 17 56 30.0020000  0  7  2 15  7 27 19 31 26
  21695835.326   -14347360.712 8 -11118835.347 9
  24821821.081    -2755492.119 4  -2949249.051 2
  22350508.785   -13383266.788 7 -11473954.827 5
  20783074.287   -13264430.472 8  -8897862.069 9
  22259091.811     8994163.588 7   5616888.889 6
  25169385.137    31231022.848 5  10083530.884 2
  24359978.208    -5932721.044 6  -5624022.072 3
 94  5 15 17 57  0.0020000  0  7  2 15  7 27 19 31 26
  21694611.693   -14353803.914 8 -11123856.032 9
  24813513.682    -2799188.567 5  -2983298.183 2
  22336631.602   -13456205.673 7 -11530790.258 5
  20786403.003   -13246923.907 8  -8884220.601 9
  22271743.683     9060649.912 7   5668696.408 6
  25191379.801    31346558.710 5  10173558.787 2
  24347936.025    -5996029.150 6  -5673353.026 3
 94  5 15 17 57 30.0020000  0  7  2 15  7 27 19 31 26
  21693423.136   -14360053.603 8 -11128725.909 9
  24805263.723    -2842564.493 4  -3017097.624 2
  22322814.947   -13528815.316 7 -11587369.178 6
  20789810.773   -13229021.999 8  -8870271.067 9
  22284451.915     9127437.531 7   5720738.688 6
  25213380.010    31462250.475 4  10263708.171 2
  24335956.408    -6058945.470 6  -5722378.718 3
 94  5 15 17 58  0.0020000  0  7  2 15  7 27 19 31 26
  21692270.074   -14366112.219 8 -11133446.910 9
  24797064.519    -2885611.995 5  -3050641.057 2
  22309058.640   -13601089.114 7 -11643686.399 6
  20793295.591   -13210722.560 8  -8856011.759 9
  22297223.403     9194545.202 7   5773030.354 6
  25235427.707    31578090.110 4  10353972.753 2
  24324061.333    -6121475.181 6  -5771103.151 3
 94  5 15 17 58 30.0020000  0  7  2 15  7 27 19 31 26
  21691150.739   -14371991.103 8 -11138027.860 9
  24788939.904    -2928325.609 5  -3083924.365 2
  22295372.185   -13673021.212 7 -11699737.359 6
  20796851.609   -13192030.833 8  -8841446.787 9
  22310050.623     9261964.315 7   5825564.706 6
  25257503.704    31694079.565 4  10444354.038 2
  24312235.210    -6183619.918 6  -5819527.594 3
 94  5 15 17 59  0.0020000  0  7  2 15  7 27 19 31 26
  21690069.897   -14377672.203 8 -11142454.692 9
  24780868.652    -2970704.731 5  -3116947.088 2
  22281750.005   -13744599.672 7 -11755512.747 6
  20800484.464   -13172953.982 8  -8826581.704 9
  22322937.022     9329693.279 7   5878340.524 6
  25279607.912    31810221.085 4  10534853.876 2
  24300478.909    -6245384.285 6  -5867655.652 3
 94  5 15 17 59 30.0020000  0  6  2 15  7 27 19 26
  21689029.977   -14383136.069 8 -11146712.246 9
  24772881.401    -3012745.132 5  -3149705.814 2
  22268206.132   -13815795.624 7 -11810990.078 6
  20804185.402   -13153488.382 8  -8811413.714 9
  22335890.575     9397740.669 7   5931364.433 6
  24288796.626    -6306781.725 6  -5915497.789 3
 94  5 15 18  0  0.0020000  0  6  2 15  7 27 19 26
  21688032.058   -14388375.742 8 -11150795.099 9
  24764938.970    -3054443.656 5  -3182198.125 2
  22254722.186   -13886616.095 7 -11866174.842 6
  20807963.806   -13133627.294 8  -8795937.543 9
  22348898.839     9466107.936 7   5984637.601 6
  24277180.957    -6367829.542 6  -5963067.480 3
 94  5 15 18  0 30.0020000  0  6  2 15  7 27 19 26
  21687071.673   -14393405.258 8 -11154714.209 9
  24757068.968    -3095805.990 5  -3214428.541 2
  22241318.735   -13957071.679 7 -11921075.269 6
  20811821.086   -13113368.480 8  -8780151.453 9
  22361964.994     9534770.142 7   6038140.603 6
  24265621.530    -6428543.727 6  -6010377.244 3
 94  5 15 18  1  0.0020000  0  6  2 15  7 27 19 26
  21686158.925   -14398218.919 8 -11158465.111 9
  24749257.006    -3136829.465 5  -3246394.869 2
  22227978.301   -14027169.484 7 -11975696.900 6
  20815753.913   -13092693.632 8  -8764041.192 9
  22375089.488     9603730.348 7   6091875.792 6
  24254134.082    -6488926.612 6  -6057428.796 3
 94  5 15 18  1 30.0020000  0  6  2 15  7 27 19 26
  21685280.982   -14402828.197 8 -11162056.746 9
  24741521.431    -3177514.123 5  -3278097.149 2
  22214706.369   -14096917.091 7 -12030045.657 6
  20819772.781   -13071580.873 8  -8747589.682 9
  22388263.478     9672981.516 7   6145837.707 6
  24242714.058    -6548969.166 6  -6104215.189 3
 94  5 15 18  2  0.0020000  0  6  2 15  7 27 19 26
  21684440.904   -14407243.571 8 -11165497.302 9
  24733846.085    -3217857.788 5  -3309533.744 2
  22201499.402   -14166322.257 7 -12084127.573 6
  20823878.469   -13050015.351 8  -8730785.389 9
  22401498.235     9742521.193 7   6200024.444 6
  24231353.483    -6608651.781 6  -6150721.104 3
 94  5 15 18  2 30.0020000  0  6  2 15  7 27 19 26
  21683636.141   -14411467.246 8 -11168788.471 9
  24726230.607    -3257856.180 5  -3340701.321 2
  22188359.858   -14235369.690 7 -12137930.747 6
  20828068.548   -13027992.146 8  -8713624.463 9
  22414787.346     9812360.124 7   6254444.381 6
  24220067.436    -6667947.977 6  -6196925.924 3
 94  5 15 18  3  0.0020000  0  6  2 15  7 27 19 26
  21682876.827   -14415475.010 8 -11171911.407 9
  24718689.597    -3297497.910 5  -3371590.916 2
  22175292.235   -14304042.023 7 -12191441.631 6
  20832344.128   -13005513.872 8  -8696108.924 9
  22428140.401     9882524.531 7   6309117.905 6
  24208863.233    -6726822.793 6  -6242802.389 3
 94  5 15 18  3 30.0020000  0  6  2 15  7 27 19 26
  21682155.196   -14419262.589 8 -11174862.760 9
  24711211.125    -3336770.663 5  -3402193.057 2
  22162300.369   -14372318.079 7 -12244643.723 6
  20836709.526   -12982580.061 8  -8678238.432 9
  22441555.305     9953021.241 7   6364050.387 6
  24197745.070    -6785261.194 6  -6288338.763 3
 94  5 15 18  4  0.0020000  0  6  2 15  7 27 19 26
  21681471.370   -14422842.932 8 -11177652.633 9
  24703809.668    -3375678.628 5  -3432510.879 2
  22149381.292   -14440195.556 7 -12297535.246 6
  20841153.290   -12959227.572 8  -8660041.679 9
  22455034.963    10023845.922 7   6419238.416 6
  24186709.409    -6843261.815 6  -6333534.038 3
 94  5 15 18  4 30.0020000  0  6  2 15  7 27 19 26
  21680829.064   -14426225.770 8 -11180288.622 9
  24696477.914    -3414228.182 5  -3462549.430 2
  22136538.633   -14507679.947 7 -12350120.452 6
  20845672.631   -12935473.717 8  -8641532.198 9
  22468573.051    10094984.223 7   6474670.836 5
  24175750.556    -6900843.803 6  -6378403.140 3
 94  5 15 18  5  0.0020000  0  6  2 15  7 27 19 26
  21680222.854   -14429415.221 8 -11182773.903 9
  24689201.921    -3452421.021 5  -3492310.047 2
  22123769.693   -14574789.887 7 -12402413.888 6
  20850268.869   -12911318.004 8  -8622709.576 9
  22482164.681    10166415.484 7   6530331.521 5
  24164868.869    -6958032.031 6  -6422965.352 3
 94  5 15 18  5 30.0020000  0  6  2 15  7 27 19 26
  21679650.190   -14432419.693 8 -11185115.055 9
  24682004.234    -3490254.653 5  -3521790.688 2
  22111069.795   -14641533.676 7 -12454422.005 6
  20854944.852   -12886745.801 8  -8603562.406 9
  22495809.195    10238126.032 7   6586209.839 5
  24154052.358    -7014845.617 6  -6467235.683 3
 94  5 15 18  6  0.0020000  0  6  2 15  7 27 19 26
  21679116.560   -14435220.915 8 -11187297.820 9
  24674875.649    -3527725.408 5  -3550988.626 2
  22098433.393   -14707929.025 7 -12506158.622 6
  20859701.269   -12861750.080 8  -8584085.225 9
  22509511.869    10310131.125 7   6642317.669 5
  24143317.719    -7071285.877 6  -6511215.080 3
 94  5 15 18  6 30.0020000  0  6  2 15  7 27 19 26
  21678623.131   -14437813.485 8 -11189317.997 9
  24667819.014    -3564827.823 5  -3579899.530 2
  22085862.585   -14773993.137 7 -12557637.131 6
  20864541.299   -12836309.869 8  -8564261.696 9
  22523269.945    10382436.354 7   6698659.371 5
  24132646.277    -7127367.787 6  -6554915.230 3
 94  5 15 18  7  0.0020000  0  6  2 15  7 27 19 26
  21678173.743   -14440183.980 8 -11191165.151 9
  24660830.582    -3601555.461 5  -3608518.405 2
  22073357.223   -14839712.666 7 -12608847.116 6
  20869469.947   -12810426.455 8  -8544092.811 9
  22537092.176    10455053.833 7   6755244.389 5
  24122039.709    -7183073.031 6  -6598321.905 3
 94  5 15 18  7 30.0020000  0  6  2 15  7 27 19 26
  21677763.776   -14442331.939 8 -11192838.885 9
  24653904.987    -3637904.581 5  -3636842.308 2
  22060920.483   -14905068.095 7 -12659773.419 6
  20874475.102   -12784102.765 8  -8523580.854 9
  22550971.757    10528005.871 7   6812090.117 5
  24111519.872    -7238375.988 6  -6641415.113 3
 94  5 15 18  8  0.0020000  0  6  2 15  7 27 19 26
  21677396.741   -14444264.883 8 -11194345.065 9
  24647068.669    -3673867.370 5  -3664865.165 2
  22048554.283   -14970048.159 7 -12710407.222 6
  20879566.567   -12757351.939 8  -8502736.065 9
  22564919.661    10601293.857 7   6869197.599 5
  24101072.854    -7293265.212 6  -6684185.905 3
 94  5 15 18  8 30.0020000  0  6  2 15  7 27 19 26
  21677066.369   -14446002.905 8 -11195699.376 9
  24640293.899    -3709438.942 5  -3692583.185 2
  22036267.829   -15034621.294 7 -12760723.907 6
  20884738.287   -12730184.874 8  -8481566.936 9
  22578924.496    10674896.289 7   6926550.132 5
  24090712.627    -7347731.508 6  -6726627.156 3
 94  5 15 18  9  0.0020000  0  6  2 15  7 27 19 26
  21676773.922   -14447534.269 8 -11196892.649 9
  24633604.031    -3744610.637 5  -3719989.606 2
  22024061.719   -15098766.310 7 -12810707.024 6
  20889986.873   -12702598.791 8  -8460071.299 9
  22592990.308    10748822.398 7   6984154.855 5
  24080432.204    -7401751.850 6  -6768720.901 3
 94  5 15 18  9 30.0020000  0  6  2 15  7 27 19 26
  21676520.057   -14448879.911 8 -11197941.203 9
  24626985.723    -3779385.937 5  -3747087.181 2
  22011932.746   -15162499.556 7 -12860369.261 6
  20895315.864   -12674600.679 8  -8438254.613 9
  22607120.486    10823062.186 7   7042004.005 5
  24070233.384    -7455330.435 6  -6810470.441 3
 94  5 15 18 10  0.0020000  0  6  2 15  7 27 19 26
  21676297.192   -14450045.302 8 -11198849.301 9
  24620444.851    -3813764.675 5  -3773875.780 2
  21999881.329   -15225821.928 7 -12909711.338 6
  20900722.021   -12646191.679 8  -8416117.734 9
  22621303.008    10897594.366 7   7100080.976 5
  24060125.162    -7508478.677 6  -6851884.639 3
 94  5 15 18 10 30.0020000  0  6  2 15  7 27 19 26
  21676111.560   -14451018.803 8 -11199607.869 9
  24613976.828    -3847755.206 5  -3800361.815 2
  21987908.937   -15288742.372 7 -12958740.221 7
  20906203.097   -12617366.860 8  -8393656.853 9
  22635540.661    10972427.937 7   7158392.829 5
  24050088.950    -7561200.808 6  -6892966.792 3
 94  5 15 18 11  0.0020000  0  6  2 15  7 27 19 26
  21675964.512   -14451794.588 8 -11200212.385 9
  24607583.365    -3881358.155 5  -3826545.902 2
  21976008.496   -15351278.556 7 -13007469.694 7
  20911775.039   -12588105.760 8  -8370856.018 9
  22649842.530    11047575.041 7   7216948.982 5
  24040138.299    -7613503.543 6  -6933722.159 3
 94  5 15 18 11 30.0020000  0  6  2 15  7 27 19 26
  21675851.340   -14452378.216 8 -11200667.151 9
  24601261.821    -3914569.965 5  -3852425.181 2
  21964186.090   -15413417.656 7 -13055889.743 7
  20917425.618   -12558406.039 8  -8347713.385 9
  22664198.122    11123019.098 7   7275736.512 5
  24030262.535    -7665393.491 6  -6974155.867 4
 94  5 15 18 12  0.0020000  0  6  2 15  7 27 19 26
  21675781.549   -14452765.032 8 -11200968.588 9
  24595015.195    -3947387.975 5  -3877997.616 2
  21952434.976   -15475157.368 7 -13103998.590 7
  20923162.386   -12528261.924 8  -8324224.486 9
  22678611.844    11198756.316 7   7334752.485 5
  24020462.680    -7716886.093 6  -7014279.953 4
 94  5 15 18 12 30.0020000  0  6  2 15  7 27 19 26
  21675740.807   -14452957.953 8 -11201118.899 9
  24588842.618    -3979808.402 5  -3903260.235 2
  21940762.586   -15536504.103 7 -13151801.203 7
  20928984.446   -12497665.780 8  -8300383.330 9
  22693079.708    11274797.326 7   7394005.209 5
  24010743.738    -7767974.316 6  -7054088.959 4
 94  5 15 18 13  0.0020000  0  6  2 15  7 27 19 26
  21675738.678   -14452983.301 8 -11201138.651 9
  24582757.881    -4011829.093 5  -3928211.365 2
  21929163.556   -15597450.716 7 -13199292.040 7
  20934891.166   -12466620.877 8  -8276192.526 9
  22707606.451    11351125.750 7   7453481.875 5
  24001097.796    -7818655.691 6  -7093580.910 4
 94  5 15 18 13 30.0020000  0  6  2 15  7 27 19 26
  21675763.771   -14452839.699 8 -11201026.768 9
  24576735.290    -4043446.191 4  -3952847.990 2
  21917645.530   -15657988.473 7 -13246464.292 7
  20940883.898   -12435143.525 8  -8251664.723 9
  22722184.999    11427743.059 7   7513183.637 5
  23991533.367    -7868920.571 6  -7132748.349 4
 94  5 15 18 14  0.0020000  0  6  2 15  7 27 19 26
  21675822.770   -14452528.581 8 -11200784.322 9
  24570797.811    -4074659.402 4  -3977169.969 2
  21906198.105   -15718139.951 7 -13293335.543 7
  20946955.055   -12403222.505 8  -8226791.222 9
  22736822.695    11504660.734 7   7573119.457 5
  23982047.274    -7918758.305 6  -7171582.925 4
 94  5 15 18 14 30.0020000  0  6  2 15  7 27 19 26
  21675916.425   -14452043.129 8 -11200406.055 9
  24564934.800    -4105464.871 4  -4001174.225 2
  21894827.306   -15777896.001 7 -13339898.667 7
  20953116.090   -12370851.795 8  -8201567.314 9
  22751519.721    11581884.175 7   7633293.548 5
  23972651.239    -7968144.901 6  -7210065.968 4
 94  5 15 18 15  0.0020000  0  6  2 15  7 27 19 26
  21676041.229   -14451376.296 8 -11199886.439 9
  24559156.989    -4135859.129 5  -4024858.024 2
  21883532.086   -15837252.117 7 -13386150.166 7
  20959362.805   -12338038.444 8  -8175998.484 9
  22766271.308    11659410.296 7   7693703.459 5
  23963337.407    -8017090.953 6  -7248205.738 4
 94  5 15 18 15 30.0020000  0  6  2 15  7 27 19 26
  21676204.526   -14450514.462 8 -11199214.887 9
  24553444.744    -4165841.430 5  -4048220.772 2
  21872309.355   -15896223.600 7 -13432101.939 7
  20965688.966   -12304784.253 8  -8150086.145 9
  22781077.818    11737233.109 7   7754344.591 5
  23954104.159    -8065602.495 6  -7286006.954 4
 94  5 15 18 16  0.0020000  0  6  2 15  7 27 19 26
  21676406.376   -14449459.525 8 -11198392.862 9
  24547812.003    -4195410.838 4  -4071261.948 2
  21861159.714   -15954810.325 7 -13477753.910 7
  20972101.196   -12271079.742 8  -8123822.899 9
  22795945.186    11815345.354 7   7815211.240 5
  23944952.304    -8113688.713 6  -7323476.693 4
 94  5 15 18 16 30.0020000  0  6  2 15  7 27 19 26
  21676645.611   -14448204.225 8 -11197414.693 9
  24542273.008    -4224559.483 5  -4093975.120 2
  21850088.379   -16012991.255 7 -13523089.664 7
  20978599.648   -12236932.368 8  -8097214.566 9
  22810863.728    11893751.101 7   7876306.579 5
  23935884.302    -8161357.977 6  -7360621.561 4
 94  5 15 18 17  0.0020000  0  6  2 15  7 27 19 26
  21676922.799   -14446748.808 8 -11196280.617 9
  24536804.883    -4253283.506 5  -4116357.433 2
  21839093.040   -16070767.281 7 -13568109.910 7
  20985182.431   -12202345.659 8  -8070263.906 9
  22825838.631    11972443.694 7   7937625.436 5
  23926886.121    -8208623.441 6  -7397451.773 4
 94  5 15 18 17 30.0020000  0  6  2 15  7 27 19 26
  21677239.919   -14445085.158 8 -11194984.270 9
  24531429.215    -4281577.029 5  -4138404.356 2
  21828177.597   -16128131.719 7 -13612809.456 7
  20991850.864   -12167311.030 8  -8042964.220 9
  22840869.235    12051426.646 7   7999170.572 5
  23917978.028    -8255458.977 6  -7433947.005 4
 94  5 15 18 18  0.0020000  0  6  2 15  7 27 19 26
  21677593.015   -14443221.644 8 -11193532.172 9
  24526121.689    -4309435.673 5  -4160112.347 2
  21817343.188   -16185070.480 7 -13657177.284 7
  20998600.631   -12131834.453 8  -8015320.133 9
  22855955.122    12130712.847 7   8060951.991 5
  23909143.504    -8301858.196 6  -7470102.213 4
 94  5 15 18 18 30.0020000  0  6  2 15  7 27 19 26
  21677985.083   -14441168.259 8 -11191932.146 9
  24520901.703    -4336858.554 5  -4181480.836 2
  21806589.063   -16241577.884 7 -13701209.013 7
  21005433.471   -12095929.512 8  -7987342.258 9
  22871101.656    12210303.137 7   8122970.352 5
  23900398.109    -8347817.510 6  -7505914.664 4
 94  5 15 18 19  0.0020000  0  6  2 15  7 27 19 26
  21678411.388   -14438931.373 8 -11190189.113 9
  24515775.792    -4363842.736 5  -4202507.447 2
  21795919.569   -16297652.655 7 -13744903.603 7
  21012348.124   -12059600.903 8  -7959034.276 9
  22886304.641    12290186.764 7   8185217.288 5
  23891742.411    -8393320.918 6  -7541371.833 4
 94  5 15 18 19 30.0020000  0  6  2 15  7 27 19 26
  21678871.240   -14436517.053 8 -11188307.832 9
  24510723.089    -4390379.628 5  -4223185.565 2
  21785333.957   -16353281.629 7 -13788250.827 7
  21019343.451   -12022836.010 8  -7930386.324 9
  22901560.150    12370377.525 7   8247703.564 5
  23883170.745    -8438351.918 6  -7576460.898 4
 94  5 15 18 20  0.0020000  0  6  2 15  7 27 19 26
  21679363.349   -14433935.039 8 -11186295.862 9
  24505755.498    -4416465.291 5  -4243512.061 2
  21774834.116   -16408461.067 7 -13831247.766 7
  21026424.909   -11985628.687 8  -7901393.612 9
  22916884.701    12450887.125 7   8310438.293 5
  23874692.135    -8482918.410 6  -7611188.033 4
 94  5 15 18 20 30.0020000  0  6  2 15  7 27 19 26
  21679888.076   -14431167.143 8 -11184139.072 9
  24500872.839    -4442097.677 5  -4263485.339 2
  21764418.127   -16463193.088 7 -13873896.068 7
  21033588.660   -11947961.500 8  -7872042.583 9
  22932264.414    12531706.265 7   8373414.188 5
  23866302.473    -8527010.672 6  -7645545.619 4
 94  5 15 18 21  0.0020000  0  6  2 15  7 27 19 26
  21680450.367   -14428208.893 8 -11181833.940 9
  24496086.023    -4467277.315 5  -4283105.862 2
  21754084.970   -16517489.811 7 -13916205.178 7
  21040845.406   -11909831.481 8  -7842330.900 9
  22947701.687    12612830.625 7   8436627.957 5
  23858000.410    -8570620.656 6  -7679527.417 4
 94  5 15 18 21 30.0020000  0  6  2 15  7 27 19 26
  21681051.750   -14425051.885 8 -11179373.928 9
  24491382.639    -4491999.618 5  -4302369.964 2
  21743834.766   -16571351.165 7 -13958175.037 7
  21048192.360   -11871228.135 8  -7812250.373 9
  22963200.297    12694281.368 7   8500096.026 5
  23849793.621    -8613744.698 6  -7713130.557 4
 94  5 15 18 22  0.0020000  0  6  2 15  7 27 19 26
  21681692.856   -14421684.225 8 -11176749.794 9
  24486760.079    -4516272.628 5  -4321284.041 2
  21733667.875   -16624785.006 7 -13999811.774 7
  21055623.555   -11832177.717 8  -7781821.501 9
  22978759.826    12776041.685 7   8563805.329 5
  23841676.381    -8656396.932 6  -7746366.047 4
 94  5 15 18 22 30.0020000  0  6  2 15  7 27 19 26
  21682371.676   -14418117.685 8 -11173970.664 9
  24482226.018    -4540099.383 5  -4339850.342 2
  21723579.979   -16677792.802 7 -14041116.516 7
  21063134.465   -11792704.746 8  -7751063.359 9
  22994373.796    12858096.183 6   8627743.860 5
  23833653.125    -8698577.106 6  -7779233.712 4
 94  5 15 18 23  0.0020000  0  6  2 15  7 27 19 26
  21683084.013   -14414368.050 8 -11171048.864 9
  24477777.367    -4563477.874 5  -4358067.365 2
  21713574.016   -16730375.764 7 -14082090.245 7
  21070725.660   -11752823.532 8  -7719987.111 9
  23010050.274    12940461.166 6   8691924.305 4
  23825709.435    -8740292.908 6  -7811739.520 4
 94  5 15 18 23 30.0020000  0  6  2 15  7 27 19 26
  21683835.023   -14410426.857 8 -11167977.820 9
  24473416.167    -4586404.538 5  -4375932.255 2
  21703649.776   -16782532.302 7 -14122731.670 7
  21078391.833   -11712523.877 8  -7688584.810 9
  23025780.324    13023145.194 6   8756353.370 4
  23817863.296    -8781549.117 6  -7843887.207 4
 94  5 15 18 24  0.0020000  0  6  2 15  7 27 19 26
  21684622.488   -14406298.751 8 -11164761.111 9
  24469139.627    -4608877.510 5  -4393443.704 2
  21693809.238   -16834260.010 7 -14163038.951 7
  21086137.661   -11671811.897 8  -7656861.197 9
  23041575.219    13106137.943 6   8821023.011 4
  23810099.991    -8822344.094 6  -7875675.512 4
 94  5 15 18 24 30.0020000  0  6  2 15  7 27 19 26
  21685439.333   -14402002.909 8 -11161413.694 9
  24464948.619    -4630895.690 5  -4410600.712 2
  21684044.608   -16885565.657 7 -14203017.357 8
  21093969.889   -11630667.080 8  -7624800.313 9
  23057425.546    13189436.397 6   8885930.855 4
  23802426.323    -8862671.295 6  -7907099.278 4
 94  5 15 18 25  0.0020000  0  6  2 15  7 27 19 26
  21686290.863   -14397518.023 8 -11157918.980 9
  24460854.863    -4652454.271 5  -4427399.582 2
  21674361.372   -16936451.632 7 -14242668.735 8
  21101885.998   -11589059.593 8  -7592378.896 9
  23073331.125    13273022.116 6   8951062.533 4
  23794841.364    -8902536.102 6  -7938162.772 4
 94  5 15 18 25 30.0020000  0  6  2 15  7 27 19 26
  21687183.465   -14392840.771 8 -11154274.380 9
  24456838.723    -4673544.831 5  -4443833.744 2
  21664761.148   -16986898.438 7 -14281977.906 8
  21109894.504   -11546972.720 8  -7559583.947 9
  23089290.487    13356882.852 6   9016408.531 4
  23787345.144    -8941924.501 6  -7968855.009 4
 94  5 15 18 26  0.0020000  0  6  2 15  7 27 19 26
  21688105.657   -14387982.269 8 -11150488.522 9
  24452911.052    -4694163.234 5  -4459900.033 2
  21655246.215   -17036894.850 7 -14320936.124 8
  21117998.284   -11504399.966 8  -7526410.393 9
  23105299.824    13441001.510 6   9081955.491 4
  23779942.998    -8980835.310 6  -7999175.089 4
 94  5 15 18 26 30.0020000  0  6  2 15  7 27 19 26
  21689066.162   -14382945.499 8 -11146563.761 9
  24449076.137    -4714312.184 5  -4475600.471 2
  21645818.222   -17086441.192 8 -14359543.648 8
  21126196.798   -11461322.813 8  -7492843.797 9
  23121352.061    13525370.526 6   9147697.526 4
  23772624.285    -9019284.399 6  -8029135.398 4
 94  5 15 18 27  0.0020000  0  6  2 15  7 27 19 26
  21690060.424   -14377726.051 8 -11142496.673 9
  24445331.699    -4733990.400 5  -4490934.109 2
  21636476.929   -17135531.671 8 -14397795.954 8
  21134487.049   -11417755.742 8  -7458895.447 9
  23137454.244    13609996.011 6   9213639.398 4
  23765392.871    -9057272.822 6  -8058736.791 4
 94  5 15 18 27 30.0020000  0  6  2 15  7 27 19 26
  21691081.727   -14372337.034 8 -11138297.442 9
  24441676.989    -4753196.040 5  -4505899.528 2
  21627223.625   -17184160.541 8 -14435688.554 8
  21142864.450   -11373721.509 8  -7424583.061 9
  23153613.417    13694905.192 6   9279802.364 4
  23758253.643    -9094793.066 6  -8087973.322 4
 94  5 15 18 28  0.0020000  0  6  2 15  7 27 19 26
  21692142.392   -14366772.528 8 -11133961.454 9
  24438118.662    -4771928.786 5  -4520496.428 2
  21618056.061   -17232338.246 8 -14473229.605 8
  21151332.207   -11329227.886 8  -7389912.729 9
  23169826.493    13780103.705 6   9346190.750 4
  23751202.285    -9131862.132 6  -8116858.306 4
 94  5 15 18 28 30.0020000  0  6  2 15  7 27 19 26
  21693235.675   -14361028.859 8 -11129485.864 9
  24434635.824    -4790190.271 5  -4534726.138 2
  21608971.780   -17280065.825 8 -14510419.904 8
  21159879.290   -11284300.645 8  -7354904.501 9
  23186093.741    13865600.579 6   9412811.631 4
  23744232.230    -9168474.572 6  -8145387.495 4
 94  5 15 18 29  0.0020000  0  6  2 15  7 27 19 26
  21694361.576   -14355117.719 8 -11124879.782 9
  24431252.906    -4807981.501 5  -4548589.369 2
  21599974.769   -17327347.041 8 -14547262.386 8
  21168508.546   -11238966.787 8  -7319579.430 9
  23202421.788    13951394.209 6   9479663.780 4
  23737354.781    -9204621.643 6  -8173554.005 4
 94  5 15 18 29 30.0020000  0  6  2 15  7 27 19 26
  21695516.017   -14349044.964 8 -11120147.772 9
  24427953.120    -4825296.035 5  -4562081.184 2
  21591065.926   -17374176.413 8 -14583752.777 8
  21177216.888   -11193209.541 8  -7283924.440 8
  23218804.936    14037486.592 6   9546748.682 4
  23730564.452    -9240300.521 6  -8201355.710 4
 94  5 15 18 30  0.0020000  0  6  2 15  7 27 19 26
  21696701.276   -14342804.203 8 -11115284.827 9
  24424754.664    -4842127.161 5  -4575196.310 2
  21582238.837   -17420550.323 8 -14619888.281 8
  21186009.591   -11147003.341 8  -7247919.614 8
  23235242.616    14123864.802 6   9614056.317 4
  23723867.418    -9275501.202 6  -8228784.827 4
 94  5 15 18 30 30.0020000  0  6  2 15  7 27 19 26
  21697924.789   -14336402.757 8 -11110296.701 9
  24421643.238    -4858475.096 5  -4587934.889 2
  21573499.917   -17466472.927 8 -14655672.095 9
  21194884.587   -11100349.950 8  -7211566.346 8
  23251731.501    14210520.058 6   9681579.860 4
  23717264.999    -9310197.785 6  -8255821.098 4
 94  5 15 18 31  0.0020000  0  6  2 15  7 27 19 26
  21699171.776   -14329847.018 8 -11105188.337 9
  24418625.198    -4874338.448 5  -4600295.881 2
  21564846.647   -17511946.644 8 -14691106.138 9
  21203849.760   -11053238.599 8  -7174856.223 8
  23268277.407    14297446.987 6   9749315.047 4
  23710759.443    -9344394.292 6  -8282467.724 4
 94  5 15 18 31 30.0020000  0  6  2 15  7 27 19 26
  21700447.033   -14323128.372 8 -11099953.021 9
  24415696.945    -4889720.884 5  -4612282.125 2
  21556277.080   -17556982.192 8 -14726198.746 9
  21212903.433   -11005671.916 8  -7137791.294 8
  23284864.114    14384635.457 6   9817254.070 4
  23704347.032    -9378092.454 6  -8308726.021 4
 94  5 15 18 32  0.0020000  0  6  2 15  7 27 19 26
  21701764.741   -14316225.392 8 -11094574.082 9
  24412861.897    -4904613.843 5  -4623886.990 2
  21547793.343   -17601579.861 8 -14760950.162 9
  21222038.409   -10957656.435 8  -7100376.639 8
  23301506.343    14472092.463 6   9885402.339 4
  23698031.034    -9411273.569 6  -8334581.439 4
 94  5 15 18 32 30.0020000  0  6  2 15  7 27 19 26
  21703114.706   -14309127.224 8 -11089043.042 9
  24410126.231    -4919008.461 5  -4635103.532 2
  21539391.749   -17645717.008 8 -14795342.725 9
  21231258.735   -10909199.855 8  -7062618.301 8
  23318208.320    14559831.801 6   9953770.575 3
  23691817.296    -9443934.047 6  -8360031.156 4
 94  5 15 18 33  0.0020000  0  6  2 15  7 27 19 26
  21704501.846   -14301823.680 8 -11083351.963 9
  24407482.002    -4932895.552 5  -4645924.584 2
  21531084.980   -17689377.166 8 -14829363.603 9
  21240569.420   -10860281.289 8  -7024499.947 8
  23334953.648    14647866.334 6  10022368.862 3
  23685697.213    -9476090.432 6  -8385088.068 4
 94  5 15 18 33 30.0020000  0  6  2 15  7 27 19 26
  21705930.027   -14294309.090 9 -11077496.438 9
  24404933.886    -4946276.603 5  -4656351.318 2
  21522865.750   -17732559.269 8 -14863011.965 9
  21249967.344   -10810896.861 8  -6986018.594 8
  23351765.679    14736198.846 6  10091199.371 3
  23679674.922    -9507736.280 6  -8409747.161 4
 94  5 15 18 34  0.0020000  0  6  2 15  7 27 19 26
  21707399.220   -14286595.123 9 -11071485.557 9
  24402484.791    -4959155.147 5  -4666386.493 2
  21514739.935   -17775255.253 8 -14896281.544 9
  21259453.617   -10761048.393 8  -6947175.641 8
  23368633.981    14824829.931 6  10160262.447 3
  23673747.845    -9538877.680 6  -8434013.158 4
 94  5 15 18 34 30.0020000  0  6  2 15  7 27 19 26
  21708903.789   -14278695.538 9 -11065330.043 9
  24400131.361    -4971532.401 5  -4676031.044 2
  21506710.954   -17817463.766 8 -14929171.269 9
  21269024.671   -10710739.948 8  -6907974.286 8
  23385555.737    14913760.191 6  10229558.712 3
  23667914.664    -9569536.097 6  -8457902.823 4
 94  5 15 18 35  0.0020000  0  6  2 15  7 27 19 26
  21710441.784   -14270621.530 8 -11059038.604 9
  24397862.291    -4983414.604 5  -4685289.896 2
  21498760.398   -17859225.449 8 -14961712.810 9
  21278683.444   -10659974.731 8  -6868417.003 8
  23402534.153    15002982.404 6  10299082.468 3
  23662173.128    -9599712.780 6  -8481417.143 4
 94  5 15 18 35 30.0020000  0  6  2 15  7 27 19 26
  21712006.910   -14262376.428 8 -11052613.853 9
  24395699.379    -4994800.444 5  -4694161.868 2
  21490898.820   -17900543.263 8 -14993908.502 9
  21288429.907   -10608764.734 8  -6828513.130 8
  23419563.683    15092492.831 6  10368830.779 3
  23656524.979    -9629390.276 6  -8504542.443 4
 94  5 15 18 36  0.0020000  0  6  2 15  7 27 19 26
  21713608.881   -14253958.996 8 -11046054.815 9
  24393629.851    -5005680.344 5  -4702639.688 2
  21483122.324   -17941415.008 8 -15025756.588 9
  21298259.891   -10557110.605 8  -6788263.176 8
  23436650.684    15182286.046 6  10438799.462 3
  23650968.385    -9658575.850 6  -8527284.460 4
 94  5 15 18 36 30.0020000  0  6  2 15  7 27 19 26
  21715250.635   -14245362.162 8 -11039355.977 9
  24391661.354    -5016042.126 5  -4710713.754 2
  21475427.131   -17981840.589 8 -15057257.023 9
  21308179.514   -10504987.459 8  -6747647.745 8
  23453795.395    15272356.668 6  10508984.325 3
  23645513.751    -9687256.975 6  -8549633.375 4
 94  5 15 18 37  0.0020000  0  6  2 15  7 27 19 26
  21716917.991   -14236578.863 8 -11032511.852 9
  24389780.996    -5025884.971 5  -4718383.506 2
  21467824.754   -18021802.361 7 -15088396.036 9
  21318190.484   -10452383.370 8  -6706657.570 8
  23470983.246    15362697.242 6  10579379.495 3
  23640154.661    -9715416.795 6  -8571576.065 4
 94  5 15 18 37 30.0020000  0  6  2 15  7 27 19 26
  21718624.619   -14227614.759 8 -11025526.838 9
  24388011.861    -5035212.353 5  -4725651.536 2
  21460311.715   -18061273.928 7 -15119153.081 9
  21328288.093   -10399321.805 8  -6665310.916 8
  23488229.707    15453310.219 6  10649986.953 3
  23634895.522    -9743066.014 6  -8593120.921 4
 94  5 15 18 38  0.0020000  0  6  2 15  7 27 19 26
  21720362.606   -14218473.998 8 -11018404.156 9
  24386330.445    -5044024.667 5  -4732518.211 2
  21452895.779   -18100263.688 8 -15149534.696 9
  21338466.137   -10345816.302 8  -6623618.326 8
  23505519.697    15544191.067 6  10720803.158 3
  23629725.871    -9770215.077 6  -8614276.021 4
 94  5 15 18 38 30.0020000  0  6  2 15  7 27 19 26
  21722134.199   -14209159.579 8 -11011146.172 9
  24384754.556    -5052322.078 5  -4738983.677 2
  21445567.892   -18138775.037 8 -15179543.526 9
  21348736.667   -10291860.947 8  -6581575.217 8
  23522867.817    15635356.018 6  10791840.711 3
  23624658.060    -9796857.312 6  -8635036.205 4
 94  5 15 18 39  0.0020000  0  6  2 15  7 27 19 26
  21723940.779   -14199678.795 8 -11003758.561 9
  24383272.951    -5060109.334 5  -4745051.650 2
  21438327.545   -18176816.696 8 -15209186.343 9
  21359083.974   -10237482.413 8  -6539202.354 8
  23540272.808    15726815.295 6  10863107.618 3
  23619679.256    -9823010.501 6  -8655415.295 4
 94  5 15 18 39 30.0020000  0  6  2 15  7 27 19 26
  21725775.718   -14190039.458 8 -10996247.385 9
  24381888.570    -5067382.975 5  -4750719.391 2
  21431172.398   -18214406.896 8 -15238477.393 9
  21369512.314   -10182678.330 8  -6496497.879 8
  23557733.470    15818569.374 6  10934604.295 3
  23614795.038    -9848676.908 6  -8675415.092 4
 94  5 15 18 40  0.0020000  0  6  2 15  7 27 19 26
  21727640.008   -14180237.143 8 -10988609.216 9
  24380603.689    -5074132.738 5  -4755978.908 2
  21424107.789   -18251540.803 8 -15267412.881 9
  21380029.783   -10127406.566 8  -6453429.005 8
  23575249.414    15910609.409 6  11006323.729 3
  23610008.941    -9873841.643 6  -8695023.988 4
 94  5 15 18 40 30.0020000  0  6  2 15  7 27 19 26
  21729537.484   -14170262.633 8 -10980836.877 9
  24379421.967    -5080353.232 5  -4760826.005 2
  21417132.728   -18288194.515 8 -15295974.191 9
  21390641.897   -10071638.296 8  -6409973.231 8
  23592819.891    16002942.216 6  11078271.300 3
  23605318.778    -9898481.632 6  -8714223.979 4
 94  5 15 18 41  0.0020000  0  6  2 15  7 27 19 26
  21731470.606   -14160112.719 8 -10972927.854 9
  24378334.890    -5086041.152 5  -4765258.155 2
  21410251.801   -18324346.194 8 -15324144.310 9
  21401348.775   -10015379.533 8  -6366135.245 8
  23610443.670    16095551.941 6  11150434.679 3
  23600733.182    -9922587.605 6  -8733007.848 4
 94  5 15 18 41 30.0020000  0  6  2 15  7 27 19 26
  21733437.874   -14149778.617 8 -10964875.311 9
  24377355.498    -5091195.703 5  -4769274.645 2
  21403471.575   -18359989.291 8 -15351918.139 9
  21412147.059    -9958632.035 8  -6321916.453 8
  23628115.896    16188423.269 6  11222801.882 3
  23596244.390    -9946148.450 6  -8751366.944 4
 94  5 15 18 42  0.0020000  0  6  2 15  7 27 19 26
  21735438.119   -14139252.736 8 -10956673.315 9
  24376471.980    -5095817.773 5  -4772876.226 2
  21396783.265   -18395122.685 8 -15379294.802 9
  21423034.832    -9901419.134 8  -6277334.998 8
  23645832.461    16281536.434 6  11295357.512 3
  23591867.690    -9969167.330 6  -8769303.724 4
 94  5 15 18 42 30.0020000  0  6  2 15  7 27 19 26
  21737473.920   -14128554.203 8 -10948336.811 9
  24375701.603    -5099920.485 5  -4776073.109 2
  21390188.521   -18429773.481 8 -15406295.399 9
  21434004.987    -9843770.821 8  -6232414.274 8
  23663600.021    16374884.680 6  11368096.366 3
  23587585.874    -9991672.364 6  -8786840.119 4
 94  5 15 18 43  0.0020000  0  6  2 15  7 27 19 26
  21739545.816   -14117688.255 8 -10939869.848 9
  24375015.828    -5103508.178 5  -4778868.662 2
  21383687.042   -18463979.233 8 -15432949.213 9
  21445052.489    -9785711.000 8  -6187172.879 8
  23681405.894    16468456.719 6  11441009.548 3
  23583391.928   -10013695.788 6  -8804001.239 4
 94  5 15 18 43 30.0020000  0  6  2 15  7 27 19 26
  21741643.703   -14106655.135 8 -10931272.596 9
  24374430.483    -5106580.435 5  -4781262.640 2
  21377250.348   -18497756.232 8 -15459268.932 9
  21456182.434    -9727230.905 8  -6141604.005 7
  23699253.318    16562254.316 6  11514098.522 3
  23579293.045   -10035237.208 7  -8820786.755 4
 94  5 15 18 44  0.0020000  0  6  2 15  7 27 19 26
  21743774.898   -14095443.764 9 -10922536.468 9
  24373948.926    -5109116.826 5  -4783239.030 2
  21370910.067   -18531082.608 8 -15485237.511 9
  21467398.299    -9668291.356 8  -6095677.100 7
  23717154.436    16656319.265 6  11587395.811 3
  23575296.032   -10056264.711 7  -8837171.807 4
 94  5 15 18 44 30.0020000  0  6  2 15  7 27 19 26
  21745943.776   -14084047.707 9 -10913656.425 9
  24373570.588    -5111104.804 5  -4784788.072 2
  21364657.355   -18563940.637 8 -15510841.152 9
  21478706.951    -9608859.188 8  -6049366.343 7
  23735108.137    16750693.269 6  11660933.867 3
  23571393.124   -10076760.854 7  -8853142.826 4
 94  5 15 18 45  0.0020000  0  6  2 15  7 27 19 26
  21748151.658   -14072447.871 9 -10904617.584 9
  24373295.978    -5112543.977 5  -4785909.521 2
  21358500.398   -18596314.515 8 -15536067.536 9
  21490107.158    -9548950.428 8  -6002684.212 7
  23753129.740    16845372.315 6  11734709.723 3
  23567599.101   -10096701.761 7  -8868681.196 4
 94  5 15 18 45 30.0020000  0  6  2 15  7 27 19 26
  21750392.846   -14060658.128 8 -10895430.778 9
  24373125.516    -5113435.817 5  -4786604.451 2
  21352433.438   -18628183.837 8 -15560900.752 9
  21501599.283    -9488562.770 8  -5955628.915 7
  23771207.076    16940358.468 6  11808724.829 3
  23563912.313   -10116072.375 7  -8883775.193 5
 94  5 15 18 46  0.0020000  0  6  2 15  7 27 19 26
  21752672.738   -14048691.354 9 -10886106.031 9
  24373056.564    -5113782.236 5  -4786874.399 2
  21346466.459   -18659542.623 8 -15585336.152 9
  21513176.638    -9427716.737 8  -5908216.469 7
  23789336.065    17035653.372 6  11882980.512 3
  23560329.553   -10134890.562 7  -8898438.732 5
 94  5 15 18 46 30.0020000  0  6  2 15  7 27 19 26
  21754981.230   -14036558.461 9 -10876651.825 9
  24373096.466    -5113594.030 5  -4786727.738 2
  21340595.203   -18690398.036 8 -15609379.317 9
  21524838.894    -9366442.699 8  -5860470.462 7
  23807522.675    17131222.198 6  11957449.695 3
  23556848.903   -10153189.691 7  -8912697.780 5
 94  5 15 18 47  0.0020000  0  6  2 15  7 27 19 26
  21757321.320   -14024263.105 9 -10867071.019 9
  24373234.971    -5112879.050 5  -4786170.599 2
  21334817.573   -18720759.999 8 -15633037.970 9
  21536574.720    -9304754.268 8  -5812401.588 7
  23825757.281    17227038.439 6  12032111.636 3
  23553455.972   -10170995.586 7  -8926572.508 5
 94  5 15 18 47 30.0020000  0  6  2 15  7 27 19 26
  21759688.001   -14011824.471 9 -10857378.590 9
  24373472.106    -5111635.083 5  -4785201.292 2
  21329132.669   -18750621.902 8 -15656306.966 9
  21548396.496    -9242637.805 8  -5763999.175 7
  23844034.728    17323105.238 6  12106968.770 3
  23550160.143   -10188322.865 7  -8940074.292 5
 94  5 15 18 48  0.0020000  0  6  2 15  7 27 19 26
  21762084.033   -13999225.506 9 -10847561.217 9
  24373806.915    -5109864.072 5  -4783821.223 2
  21323546.126   -18779988.023 8 -15679189.633 9
  21560301.764    -9180090.039 8  -5715260.698 7
  23862367.277    17419418.915 6  12182018.352 3
  23546957.491   -10205167.424 7  -8953199.929 5
 94  5 15 18 48 30.0020000  0  6  2 15  7 27 19 26
  21764518.258   -13986447.973 9 -10837604.698 9
  24374253.186    -5107559.805 5  -4782025.697 2
  21318054.498   -18808860.337 8 -15701687.515 9
  21572289.745    -9117082.059 8  -5666163.577 7
  23880744.045    17515972.823 6  12257255.072 3
  23543845.315   -10221511.645 7  -8965935.666 5
 94  5 15 18 49  0.0020000  0  6  2 15  7 27 19 26
  21766987.018   -13973472.898 9 -10827494.249 9
  24374778.482    -5104704.394 5  -4779800.692 2
  21312653.857   -18837225.854 8 -15723790.504 9
  21584372.400    -9053590.768 8  -5616689.887 7
  23899164.163    17612789.529 6  12332696.592 3
  23540842.174   -10237314.801 7  -8978249.814 5
 94  5 15 18 49 30.0020000  0  6  2 15  7 27 19 26
  21769489.926   -13960310.840 9 -10817238.117 9
  24375436.826    -5101294.720 5  -4777143.775 2
  21307354.096   -18865079.718 8 -15745494.793 9
  21596544.154    -8989616.918 8  -5566840.184 7
  23917634.766    17709864.475 6  12408339.343 3
  23537944.170   -10252542.944 7  -8990115.920 5
 94  5 15 18 50  0.0020000  0  6  2 15  7 27 19 26
  21772029.827   -13946971.125 9 -10806843.530 9
  24376187.177    -5097340.128 5  -4774062.279 2
  21302143.793   -18892450.367 8 -15766822.553 9
  21608811.421    -8925170.793 8  -5516622.463 7
  23936154.025    17807178.044 6  12484168.009 3
  23535153.912   -10267200.353 7  -9001537.270 5
 94  5 15 18 50 30.0020000  0  6  2 15  7 27 19 26
  21774595.511   -13933481.891 9 -10796332.432 9
  24377043.174    -5092849.151 5  -4770562.840 2
  21297025.556   -18919361.858 8 -15787792.519 9
  21621158.763    -8860287.621 8  -5466064.151 7
  23954720.472    17904716.416 6  12560171.877 3
  23532465.043   -10281313.927 7  -9012534.854 5
 94  5 15 18 51  0.0020000  0  6  2 15  7 27 19 26
  21777188.506   -13919857.250 9 -10785715.846 9
  24377996.364    -5087821.946 5  -4766645.518 2
  21291990.122   -18945823.432 8 -15808411.911 9
  21633582.013    -8794993.406 8  -5415185.592 7
  23973319.686    18002483.405 6  12636353.901 3
  23529881.462   -10294890.152 7  -9023113.750 5
 94  5 15 18 51 30.0020000  0  6  2 15  7 27 19 26
  21779806.983   -13906098.804 9 -10774994.972 9
  24379062.486    -5082250.957 5  -4762304.449 2
  21287040.009   -18971837.852 8 -15828682.883 9
  21646084.617    -8729282.334 8  -5363982.191 7
  23991973.672    18100485.615 6  12712719.146 2
  23527398.761   -10307949.273 7  -9033289.677 5
 94  5 15 18 52  0.0020000  0  6  2 15  7 27 19 26
  21782453.821   -13892185.080 9 -10764153.116 9
  24380222.024    -5076127.303 5  -4757532.770 2
  21282169.191   -18997408.826 8 -15848608.301 9
  21658671.794    -8663143.240 8  -5312445.277 7
  24010671.188    18198741.489 6  12789282.107 3
  23525010.104   -10320505.495 7  -9043073.771 5
 94  5 15 18 52 30.0020000  0  6  2 15  7 27 19 26
  21785135.435   -13878096.789 9 -10753175.236 9
  24381500.968    -5069443.632 5  -4752324.685 2
  21277394.786   -19022510.111 8 -15868167.721 9
  21671339.704    -8596559.773 8  -5260562.104 7
  24029413.763    18297264.884 6  12866053.514 2
  23522718.311   -10332547.861 7  -9052457.443 5
 94  5 15 18 53  0.0020000  0  6  2 15  7 27 19 26
  21787851.015   -13863825.879 9 -10742055.045 9
  24382873.148    -5062196.307 5  -4746677.432 2
  21272715.446   -19047112.308 8 -15887338.251 9
  21684104.147    -8529500.161 8  -5208307.904 7
  24048218.425    18396053.665 6  12943031.675 2
  23520528.717   -10344058.164 7  -9061426.497 5
 94  5 15 18 53 30.0020000  0  6  2 15  7 27 19 26
  21790602.060   -13849358.356 9 -10730781.658 9
  24384362.877    -5054387.582 5  -4740592.658 2
  21268132.338   -19071196.242 8 -15906104.931 9
  21696956.729    -8461955.393 8  -5155675.656 7
  24067060.441    18495105.791 6  13020215.113 2
  23518439.193   -10355033.390 7  -9069978.615 5
 94  5 15 18 54  0.0020000  0  6  2 15  7 27 19 26
  21793394.657   -13834692.164 9 -10719353.460 9
  24385945.721    -5046023.433 5  -4734075.153 2
  21263648.283   -19094756.370 8 -15924463.460 9
  21709899.699    -8393944.100 8  -5102679.887 7
  24085959.747    18594406.595 5  13097592.251 2
  23516449.681   -10365466.439 7  -9078108.278 5
 94  5 15 18 54 30.0020000  0  6  2 15  7 27 19 26
  21796219.811   -13819854.555 9 -10707791.695 9
  24387651.210    -5037114.978 5  -4727133.476 2
  21259263.578   -19117798.001 8 -15942417.959 9
  21722923.343    -8325495.781 8  -5049343.551 7
  24104899.495    18693932.354 6  13175144.721 2
  23514565.275   -10375369.465 7  -9085824.917 5
 94  5 15 18 55  0.0020000  0  6  2 15  7 27 19 26
  21799072.936   -13804859.442 9 -10696107.203 9
  24389446.128    -5027668.469 5  -4719772.533 2
  21254971.270   -19140349.197 8 -15959990.312 9
  21736028.740    -8256633.344 8  -4995684.549 7
  24123882.204    18793669.264 5  13252861.705 2
  23512777.973   -10384763.898 7  -9093145.261 5
 94  5 15 18 55 30.0020000  0  6  2 15  7 27 19 26
  21801954.601   -13789708.562 9 -10684301.308 9
  24391346.842    -5017689.161 5  -4711996.430 2
  21250766.441   -19162446.995 8 -15977209.360 9
  21749207.347    -8187379.229 7  -4941720.345 7
  24142901.427    18893612.081 6  13330739.116 2
  23511090.111   -10393657.161 7  -9100075.072 5
 94  5 15 18 56  0.0020000  0  6  2 15  7 27 19 26
  21804863.757   -13774413.476 9 -10672383.073 9
  24393343.130    -5007168.494 5  -4703798.488 2
  21246648.701   -19184103.497 8 -15994084.546 9
  21762462.431    -8117722.533 7  -4887442.454 7
  24161952.998    18993765.245 5  13408780.502 2
  23509493.686   -10402036.324 7  -9106604.309 5
 94  5 15 18 56 30.0020000  0  6  2 15  7 27 19 26
  21807806.909   -13758962.844 9 -10660343.619 9
  24395454.179    -4996092.543 5  -4695167.888 2
  21242610.137   -19205307.057 8 -16010606.782 9
  21775798.458    -8047637.365 7  -4832830.661 7
  24181063.928    19094154.151 6  13487005.517 2
  23507999.341   -10409891.026 7  -9112724.850 5
 94  5 15 18 57  0.0030000  0  6  2 15  7 27 19 26
  21810781.001   -13743341.147 9 -10648170.875 9
  24397671.444    -4984460.901 5  -4686104.283 2
  21238661.870   -19226049.968 8 -16026770.076 9
  21789220.497    -7977109.492 7  -4777873.902 7
  24200207.895    19194796.587 6  13565428.082 2
  23506602.758   -10417215.493 7  -9118432.239 5
 94  5 15 18 57 30.0030000  0  6  2 15  7 27 19 26
  21813781.443   -13727560.785 9 -10635874.486 9
  24399980.625    -4972283.024 5  -4676614.960 2
  21234807.679   -19246316.126 8 -16042561.876 9
  21802727.496    -7906141.179 7  -4722573.947 7
  24219404.745    19295683.056 5  13644040.878 2
  23505309.513   -10424006.612 7  -9123724.009 5
 94  5 15 18 58  0.0030000  0  6  2 15  7 27 19 26
  21816813.274   -13711630.660 9 -10623461.405 9
  24402403.458    -4959560.093 5  -4666701.017 2
  21231047.352   -19266079.563 8 -16057961.946 9
  21816317.628    -7834719.595 7  -4666920.822 7
  24238655.198    19396822.816 6  13722850.945 2
  23504120.506   -10430279.679 7  -9128612.130 5
 94  5 15 18 58 30.0030000  0  6  2 15  7 27 19 26
  21819875.894   -13695543.638 9 -10610926.063 9
  24404932.687    -4946295.338 5  -4656364.832 2
  21227384.547   -19285328.716 8 -16072961.270 9
  21829992.091    -7762851.533 7  -4610919.779 7
  24257951.400    19498204.597 6  13801849.679 2
  23503021.857   -10436047.560 7  -9133106.585 5
 94  5 15 18 59  0.0030000  0  6  2 15  7 27 19 26
  21822966.754   -13679302.316 9 -10598270.483 9
  24407560.937    -4932482.834 5  -4645601.831 2
  21223818.276   -19304059.720 8 -16087556.834 9
  21843754.094    -7690522.140 7  -4554559.248 7
  24277283.756    19599819.420 6  13881029.974 2
  23502025.346   -10441291.765 7  -9137193.014 5
 94  5 15 18 59 30.0030000  0  6  2 15  7 27 19 26
  21826084.176   -13662910.726 9 -10585497.826 9
  24410289.738    -4918116.729 5  -4634407.458 2
  21220349.917   -19322273.024 8 -16101749.015 9
  21857607.953    -7617724.755 7  -4497834.052 7
  24296663.270    19701656.513 6  13960383.393 2
  23501125.759   -10446010.239 7  -9140869.740 5
 94  5 15 19  0  0.0030000  0  6  2 15  7 27 19 26
  21829233.946   -13646369.775 9 -10572608.779 9
  24413130.601    -4903197.250 5  -4622781.882 2
  21216977.372   -19339992.367 8 -16115556.272 9
  21871546.833    -7544477.125 7  -4440758.008 7
  24316082.237    19803704.512 5  14039901.305 2
  23500329.690   -10450202.554 7  -9144136.480 5
 94  5 15 19  0 30.0030000  0  6  2 15  7 27 19 26
  21832406.949   -13629679.518 9 -10559603.383 9
  24416083.857    -4887728.172 5  -4610728.060 2
  21213696.863   -19357240.926 8 -16128996.704 9
  21885566.478    -7470803.884 7  -4383350.333 7
  24335540.566    19905946.962 5  14119570.619 2
  23499635.941   -10453859.682 7  -9146986.223 5
 94  5 15 19  1  0.0030000  0  6  2 15  7 27 19 26
  21835613.230   -13612836.643 9 -10546479.068 9
  24419123.033    -4871706.500 5  -4598243.647 3
  21210501.286   -19374030.025 8 -16142079.109 9
  21899665.687    -7396715.542 7  -4325619.189 7
  24355034.241    20008393.817 5  14199399.244 2
  23499041.602   -10456979.838 7  -9149417.493 5
 94  5 15 19  1 30.0030000  0  6  2 15  7 27 19 26
  21838850.568   -13595819.568 9 -10533219.014 9
  24422281.047    -4855123.099 5  -4585321.508 3
  21207399.153   -19390351.028 8 -16154796.749 9
  21913838.975    -7322227.520 7  -4267576.610 7
  24374566.918    20111053.472 5  14279393.724 2
  23498547.094   -10459563.890 7  -9151431.057 5
 94  5 15 19  2  0.0030000  0  6  2 15  7 27 19 26
  21842121.994   -13578625.988 9 -10519821.432 9
  24425547.705    -4837975.305 5  -4571959.598 2
  21204379.524   -19406202.769 8 -16167148.766 9
  21928090.749    -7247350.309 7  -4209230.786 7
  24394149.931    20213933.024 5  14359559.442 2
  23498163.150   -10461599.988 7  -9153017.650 5
 94  5 15 19  2 30.0030000  0  6  2 15  7 27 19 26
  21845429.304   -13561256.559 9 -10506286.807 9
  24428914.374    -4820266.594 5  -4558160.588 3
  21201455.648   -19421575.311 8 -16179127.343 9
  21942413.273    -7172073.795 7  -4150573.808 7
  24413765.202    20317037.566 5  14439900.637 2
  23497874.030   -10463096.468 7  -9154183.741 5
 94  5 15 19  3  0.0030000  0  6  2 15  7 27 19 26
  21848768.752   -13543712.407 9 -10492616.037 9
  24432390.468    -4802000.513 5  -4543927.279 3
  21198623.029   -19436467.812 8 -16190731.892 9
  21956813.474    -7096390.898 7  -4091600.147 7
  24433429.789    20420367.317 5  14520417.172 2
  23497694.095   -10464057.531 7  -9154932.609 5
 94  5 15 19  3 30.0030000  0  6  2 15  7 27 19 26
  21852138.569   -13526000.421 9 -10478814.510 9
  24435967.232    -4783172.778 5  -4529256.304 3
  21195879.868   -19450867.698 8 -16201952.572 9
  21971295.848    -7020285.501 7  -4032297.287 7
  24453142.132    20523925.126 5  14601111.468 2
  23497612.881   -10464473.850 7  -9155257.039 5
 94  5 15 19  4  0.0030000  0  6  2 15  7 27 19 26
  21855537.496   -13508130.204 9 -10464889.657 9
  24439662.384    -4763784.174 5  -4514148.334 3
  21193233.840   -19464782.900 8 -16212795.562 9
  21985861.775    -6943744.051 7  -3972654.628 7
  24472891.889    20627714.192 5  14681985.971 2
  23497637.044   -10464347.704 7  -9155158.742 5
 94  5 15 19  4 30.0030000  0  6  2 15  7 27 19 26
  21858966.073   -13490109.140 8 -10450847.273 9
  24443459.615    -4743835.379 5  -4498603.829 3
  21190678.618   -19478216.909 8 -16223263.616 9
  22000511.972    -6866760.423 7  -3912667.421 7
  24492683.018    20731718.755 5  14763028.359 2
  23497765.685   -10463688.083 7  -9154644.771 5
 94  5 15 19  5  0.0030000  0  6  2 15  7 27 19 26
  21862423.969   -13471937.666 8 -10436687.692 9
  24447363.333    -4723318.856 5  -4482616.919 3
  21188215.254   -19491164.600 8 -16233352.708 9
  22015244.104    -6789340.150 7  -3852339.970 7
  24512514.679    20835940.415 5  14844239.986 2
  23497993.078   -10462482.020 7  -9153704.994 5
 94  5 15 19  5 30.0030000  0  6  2 15  7 27 19 26
  21865911.245   -13453615.345 8 -10422410.563 9
  24451374.945    -4702230.139 5  -4466184.175 3
  21185845.814   -19503615.433 8 -16243054.646 9
  22030062.365    -6711475.126 7  -3791665.945 6
  24532383.814    20940377.938 5  14925619.740 2
  23498325.728   -10460730.751 7  -9152340.378 5
 94  5 15 19  6  0.0030000  0  6  2 15  7 27 19 26
  21869430.268   -13435131.994 8 -10408007.946 9
  24455495.233    -4680566.798 5  -4449303.639 3
  21183569.520   -19515568.011 8 -16252368.336 9
  22044962.530    -6633171.105 7  -3730649.871 6
  24552301.635    21045028.963 5  15007165.896 2
  23498757.639   -10458444.027 7  -9150558.540 5
 94  5 15 19  6 30.0030000  0  6  2 15  7 27 19 26
  21872977.803   -13416483.372 8 -10393476.571 9
  24459729.262    -4658328.674 5  -4431975.245 3
  21181391.528   -19527009.349 8 -16261283.655 9
  22059946.697    -6554432.253 7  -3669294.959 6
  24572251.564    21149897.324 5  15088881.398 2
  23499295.946   -10455629.909 7  -9148365.719 5
 94  5 15 19  7  0.0030000  0  6  2 15  7 27 19 26
  21876561.342   -13397656.185 8 -10378806.047 9
  24464070.197    -4635524.862 5  -4414206.046 3
  21179311.508   -19537945.396 8 -16269805.237 9
  22075009.919    -6475268.601 7  -3607609.018 6
  24592251.019    21254982.965 5  15170766.166 2
  23499929.437   -10452301.807 6  -9145772.417 5
 94  5 15 19  7 30.0030000  0  6  2 15  7 27 19 26
  21880175.460   -13378648.806 8 -10363995.103 9
  24468515.909    -4612162.738 6  -4396001.816 3
  21177322.834   -19548385.012 8 -16277940.008 9
  22090157.412    -6395688.439 7  -3545598.539 6
  24612288.577    21360265.756 5  15252804.652 2
  23500662.610   -10448473.184 6  -9142789.093 5
 94  5 15 19  8  0.0030000  0  6  2 15  7 27 19 26
  21883828.881   -13359463.007 8 -10349045.136 9
  24473065.080    -4588249.740 6  -4377368.285 3
  21175429.795   -19558333.433 8 -16285692.003 9
  22105375.207    -6315709.504 7  -3483277.319 6
  24632356.295    21465742.187 5  15334993.943 2
  23501481.943   -10444140.045 7  -9139412.626 5
 94  5 15 19  8 30.0030000  0  6  2 15  7 27 19 26
  21887513.839   -13340093.493 8 -10333952.004 9
  24477721.096    -4563787.417 5  -4358306.728 3
  21173633.079   -19567795.522 8 -16293065.047 9
  22120668.130    -6235330.543 7  -3420644.384 6
  24652466.612    21571405.087 5  15417328.575 2
  23502402.575   -10439280.296 7  -9135625.821 5
 94  5 15 19  9  0.0030000  0  6  2 15  7 27 19 26
  21891233.994   -13320541.763 8 -10318716.898 9
  24482478.923    -4538774.102 6  -4338815.853 3
  21171923.932   -19576779.181 8 -16300065.285 9
  22136041.547    -6154558.224 7  -3357704.975 6
  24672608.109    21677245.469 5  15499801.476 2
  23503436.260   -10433882.080 7  -9131419.426 5
 94  5 15 19  9 30.0030000  0  6  2 15  7 27 19 26
  21894983.498   -13300829.297 8 -10303356.537 9
  24487348.092    -4513201.506 5  -4318889.172 3
  21170305.143   -19585281.141 8 -16306690.193 9
  22151488.444    -6073379.693 7  -3294449.008 6
  24692781.203    21783276.620 5  15582423.091 2
  23504572.473   -10427928.337 7  -9126780.159 5
 94  5 15 19 10  0.0030000  0  6  2 15  7 27 19 26
  21898768.498   -13280958.899 8 -10287873.123 9
  24492321.349    -4487063.192 6  -4298521.659 3
  21168777.640   -19593299.174 8 -16312937.989 9
  22167017.063    -5991776.140 7  -3230861.866 6
  24713003.793    21889519.970 5  15665210.023 2
  23505810.766   -10421412.879 7  -9121703.196 5
 94  5 15 19 10 30.0030000  0  6  2 15  7 27 19 26
  21902575.712   -13260941.643 8 -10272275.268 9
  24497403.700    -4460356.770 6  -4277711.488 3
  21167340.285   -19600853.084 8 -16318824.140 9
  22182626.957    -5909743.818 7  -3166940.615 6
  24733256.333    21995967.620 5  15748156.110 2
  23507158.813   -10414349.088 7  -9116198.961 5
 94  5 15 19 11  0.0030000  0  6  2 15  7 27 19 26
  21906408.949   -13240788.224 8 -10256571.305 9
  24502593.527    -4433075.490 6  -4256453.347 3
  21165994.817   -19607933.759 8 -16324341.554 9
  22198320.463    -5827280.164 7  -3102683.262 6
  24753554.651    22102630.073 5  15831269.650 2
  23508597.577   -10406747.844 7  -9110275.935 5
 94  5 15 19 11 30.0030000  0  6  2 15  7 27 19 26
  21910269.706   -13220512.871 8 -10240772.350 9
  24507894.368    -4405236.062 5  -4234760.274 3
  21164730.412   -19614553.056 8 -16329499.430 9
  22214091.974    -5744391.578 7  -3038094.794 6
  24773895.779    22209502.142 5  15914546.407 2
  23510147.833   -10398624.051 7  -9103945.734 5
 94  5 15 19 12  0.0030000  0  6  2 15  7 27 19 26
  21914155.466   -13200096.999 9 -10224863.882 9
  24513297.887    -4376840.236 6  -4212633.694 3
  21163558.253   -19620715.227 8 -16334301.123 9
  22229946.019    -5661090.221 7  -2973184.705 6
  24794268.205    22316580.967 5  15997984.403 2
  23511789.887   -10389984.649 7  -9097213.734 5
 94  5 15 19 12 30.0030000  0  6  2 15  7 27 19 26
  21918066.618   -13179530.870 9 -10208838.334 9
  24518802.946    -4347886.427 6  -4190072.309 3
  21162475.763   -19626410.047 8 -16338738.633 9
  22245875.281    -5577383.754 7  -2907958.931 6
  24814678.466    22423862.631 5  16081580.453 2
  23513530.542   -10380825.399 7  -9090076.656 5
 94  5 15 19 13  0.0030000  0  6  2 15  7 27 19 26
  21922013.626   -13158802.070 9 -10192686.028 9
  24524422.915    -4318370.654 6  -4167072.990 3
  21161483.570   -19631613.722 8 -16342793.439 9
  22261882.609    -5493262.224 7  -2842409.733 6
  24835143.108    22531361.062 5  16165345.286 2
  23515378.552   -10371133.151 7  -9082524.294 5
 94  5 15 19 13 30.0030000  0  6  2 15  7 27 19 26
  21925990.163   -13137893.109 9 -10176393.354 9
  24530145.743    -4288296.365 6  -4143638.517 3
  21160590.938   -19636330.359 8 -16346468.733 9
  22277967.074    -5408729.191 7  -2776539.854 6
  24855638.450    22639068.106 5  16249272.789 2
  23517320.728   -10360909.806 7  -9074558.049 5
 94  5 15 19 14  0.0030000  0  6  2 15  7 27 19 26
  21930007.202   -13116804.336 9 -10159960.539 9
  24535972.210    -4257666.293 6  -4119770.913 3
  21159785.066   -19640564.477 8 -16349768.033 9
  22294128.166    -5323801.255 7  -2710362.285 6
  24876168.417    22746955.416 5  16333340.677 2
  23519365.582   -10350171.052 7  -9066190.184 5
 94  5 15 19 14 30.0030000  0  6  2 15  7 27 19 26
  21934054.040   -13095532.133 9 -10143384.809 9
  24541907.351    -4226474.416 6  -4095465.587 3
  21159073.658   -19644297.867 8 -16352677.160 9
  22310365.705    -5238471.469 7  -2643871.588 6
  24896730.702    22855013.236 5  16417541.499 2
  23521508.648   -10338911.138 7  -9057416.274 5
 94  5 15 19 15  0.0030000  0  6  2 15  7 27 19 26
  21938137.483   -13074073.981 8 -10126664.192 9
  24547952.486    -4194718.215 6  -4070720.482 2
  21158461.482   -19647527.586 8 -16355193.823 9
  22326678.792    -5152741.634 7  -2577069.168 6
  24917323.836    22963232.578 5  16501868.093 2
  23523747.259   -10327130.780 7  -9048236.781 5
 94  5 15 19 15 30.0030000  0  6  2 15  7 27 19 26
  21942257.052   -13052425.879 9 -10109795.553 9
  24554101.529    -4162396.635 6  -4045534.901 2
  21157936.425   -19650258.954 8 -16357322.140 9
  22343069.195    -5066615.306 7  -2509957.786 6
  24937948.807    23071606.174 5  16586314.909 2
  23526089.057   -10314827.826 7  -9038650.075 5
 94  5 15 19 16  0.0030000  0  6  2 15  7 27 19 26
  21946407.498   -13030610.844 9 -10092796.830 9
  24560360.866    -4129511.909 6  -4019910.440 2
  21157512.759   -19652494.609 8 -16359064.210 9
  22359534.876    -4980092.205 7  -2442537.223 6
  24958598.242    23180139.188 5  16670886.006 2
  23528532.216   -10301998.139 7  -9028652.941 5
 94  5 15 19 16 30.0030000  0  6  2 15  7 27 19 26
  21950589.243   -13008637.474 8 -10075674.736 9
  24566723.691    -4096066.976 6  -3993849.408 2
  21157179.060   -19654240.571 8 -16360424.692 9
  22376077.994    -4893169.363 7  -2374805.170 6
  24979291.926    23288849.070 5  16755594.851 2
  23531076.375   -10288625.996 7  -9018233.089 5
 94  5 15 19 17  0.0030000  0  7  2 15  7 27 19  4 26
  21954799.798   -12986509.758 8 -10058432.385 9
  24573191.893    -4062065.800 6  -3967355.042 2
  21156941.624   -19655514.012 8 -16361416.977 9
  22392694.740    -4805850.674 7  -2306764.669 6
  25000008.784    23397748.920 5  16840451.766 2
  25603012.953    -2161058.74214  -1418524.967 2
  23533722.283   -10274721.324 7  -9007398.291 5
 94  5 15 19 17 30.0030000  0  7  2 15  7 27 19  4 26
  21959038.654   -12964232.457 8 -10041073.448 9
  24579769.849    -4027511.138 6  -3940429.320 2
  21156785.762   -19656328.828 8 -16362051.908 9
  22409381.248    -4718139.519 7  -2238418.371 6
  25020769.981    23506848.839 5  16925464.538 2
  25585957.880    -2250668.638 4  -1488350.681 2
  23536470.271   -10260287.793 7  -8996151.412 5
 94  5 15 19 18  0.0030000  0  7  2 15  7 27 19  4 26
  21963304.850   -12941807.370 8 -10023599.374 9
  24586452.043    -3992403.135 6  -3913072.451 2
  21156717.199   -19656678.830 7 -16362324.627 9
  22426145.762    -4630042.657 7  -2169771.522 6
  25041563.316    23616143.775 5  17010629.329 2
  25568887.877    -2340381.141 5  -1558256.390 2
  23539311.883   -10245340.617 7  -8984504.263 5
 94  5 15 19 18 30.0030000  0  7  2 15  7 27 19  4 26
  21967602.165   -12919219.592 8 -10005998.518 9
  24593236.017    -3956742.515 6  -3885284.990 2
  21156738.035   -19656565.163 7 -16362236.059 9
  22442983.936    -4541561.946 7  -2100825.554 6
  25062404.588    23725617.951 5  17095933.726 2
  25551797.549    -2430200.963 4  -1628245.652 2
  23542257.824   -10229889.991 7  -8972464.844 5
 94  5 15 19 19  0.0030000  0  7  2 15  7 27 19  4 26
  21971935.036   -12896467.743 8  -9988269.816 9
  24600129.385    -3920527.998 5  -3857065.883 2
  21156849.168   -19655983.304 7 -16361782.642 9
  22459892.590    -4452702.492 7  -2031584.471 6
  25083264.058    23835256.291 5  17181366.110 2
  25534684.766    -2520130.426 4  -1698320.415 2
  23545287.497   -10213951.452 7  -8960045.213 5
 94  5 15 19 19 30.0030000  0  7  2 15  7 27 19  4 26
  21976292.909   -12873557.141 8  -9970417.402 9
  24607126.001    -3883759.035 5  -3828414.708 2
  21157053.806   -19654919.602 8 -16360953.783 9
  22476875.113    -4363464.788 7  -1962048.657 6
  25104156.474    23945046.429 5  17266916.661 2
  25517552.436    -2610157.576 4  -1768471.319 2
  23548414.902   -10197509.019 7  -8947232.944 5
 94  5 15 19 20  0.0030000  0  7  2 15  7 27 19  4 26
  21980681.991   -12850491.457 9  -9952444.167 9
  24614224.967    -3846438.368 5  -3799333.731 2
  21157345.864   -19653369.286 8 -16359745.745 9
  22493929.766    -4273846.768 7  -1892216.451 6
  25125073.683    24054978.522 5  17352577.933 2
  25500405.117    -2700286.834 4  -1838701.733 2
  23551642.317   -10180559.388 7  -8934025.464 5
 94  5 15 19 20 30.0030000  0  7  2 15  7 27 19  4 26
  21985102.940   -12827265.901 9  -9934346.341 9
  24621439.652    -3808561.097 5  -3769819.031 2
  21157731.667   -19651347.936 8 -16358170.672 9
  22511056.970    -4183843.941 7  -1822084.457 5
  25146021.891    24165066.534 5  17438360.650 2
  25483227.818    -2790495.689 4  -1908994.177 2
  23554964.377   -10163082.343 7  -8920407.003 5
 94  5 15 19 21  0.0030000  0  7  2 15  7 27 19  4 26
  21989553.629   -12803869.936 8  -9916115.730 9
  24628750.481    -3770112.121 5  -3739858.784 2
  21158211.665   -19648838.366 8 -16356215.160 9
  22528259.570    -4093442.032 7  -1751641.449 5
  25167010.061    24275340.674 5  17524288.463 2
  25466057.175    -2880750.438 4  -1979322.422 2
  23558396.821   -10145061.378 7  -8906364.718 5
 94  5 15 19 21 30.0030000  0  7  2 15  7 27 19  4 26
  21994044.999   -12780276.239 9  -9897731.069 9
  24636181.676    -3731072.027 5  -3709437.934 2
  21158780.131   -19645828.019 8 -16353869.429 9
  22545543.745    -4002606.016 7  -1680860.180 5
  25188032.468    24385823.255 5  17610378.644 2
  25448875.920    -2971016.546 5  -2049659.528 2
  23561938.270   -10126472.638 7  -8891880.001 5
 94  5 15 19 22  0.0030000  0  7  2 15  7 27 19  4 26
  21998571.926   -12756475.284 9  -9879184.866 9
  24643718.699    -3691438.629 5  -3678554.800 2
  21159447.649   -19642327.323 7 -16351141.616 9
  22562915.429    -3911332.936 7  -1609738.382 5
  25209102.362    24496522.947 5  17696637.999 2
  25431708.335    -3061290.332 5  -2120002.561 2
  23565578.380   -10107329.734 7  -8876963.463 5
 94  5 15 19 22 30.0030000  0  7  2 15  7 27 19  4 26
  22003141.212   -12732472.882 9  -9860481.704 9
  24651373.209    -3651222.195 5  -3647217.342 2
  21160204.565   -19638350.619 7 -16348042.881 9
  22580362.660    -3819629.293 7  -1538281.052 5
  25230210.359    24607421.464 5  17783052.269 2
  25414525.340    -3151553.209 5  -2190337.072 2
  23569319.819   -10087653.091 7  -8861631.042 5
 94  5 15 19 23  0.0030000  0  7  2 15  7 27 19  4 26
  22007746.534   -12708279.794 9  -9841629.965 9
  24659131.598    -3610433.135 5  -3615433.643 2
  21161054.177   -19633881.453 8 -16344560.418 9
  22597892.964    -3727502.161 7  -1466493.705 5
  25251342.010    24718504.593 4  17869610.426 2
  25397346.393    -3241826.667 5  -2260679.870 2
  23573162.349   -10067457.483 7  -8845894.217 5
 94  5 15 19 23 30.0030000  0  7  2 15  7 27 19  4 26
  22012382.675   -12683904.918 9  -9822636.572 9
  24667005.617    -3569079.799 5  -3583210.313 2
  21161997.624   -19628931.652 8 -16340703.441 9
  22615503.193    -3634969.728 7  -1394390.577 5
  25272509.516    24829753.337 4  17956297.577 2
  25380167.536    -3332129.802 5  -2331045.820 2
  23577106.029   -10046748.957 7  -8829757.738 5
 94  5 15 19 24  0.0030000  0  8  2 15  7 27 19  9  4 26
  22017054.970   -12659351.476 9  -9803504.034 9
  24674981.656    -3527163.141 5  -3550548.030 2
  21163029.989   -19623500.720 8 -16336471.539 9
  22633184.263    -3542049.803 7  -1321985.499 5
  25293709.100    24941165.394 4  18043112.014 2
  25731191.497     -269592.13414  -1284569.035 2
  25362971.200    -3422477.308 5  -2401446.287 2
  23581141.835   -10025534.459 7  -8813226.989 5
 94  5 15 19 24 30.0030000  0  8  2 15  7 27 19  9  4 26
  22021759.703   -12634625.683 9  -9784237.193 9
  24683063.791    -3484688.561 5  -3517450.933 2
  21164155.860   -19617589.900 8 -16331865.709 9
  22650938.482    -3448753.322 7  -1249286.973 5
  25314939.622    25052724.834 4  18130041.282 2
  25714359.919     -358006.635 5  -1353463.371 2
  25345769.469    -3512874.774 5  -2471885.697 2
  23585275.374   -10003809.213 7  -8796298.228 5
 94  5 15 19 25  0.0030000  0  8  2 15  7 27 19  9  4 26
  22026497.143   -12609733.516 9  -9764840.718 9
  24691256.998    -3441664.779 5  -3483925.914 2
  21165370.049   -19611207.781 8 -16326892.633 9
  22668761.923    -3355100.587 7  -1176310.881 5
  25336195.897    25164429.807 4  18217084.027 2
  25697542.611     -446411.858 5  -1422350.570 2
  25328550.529    -3603348.438 5  -2542384.477 2
  23589508.983    -9981566.658 7  -8778966.409 5
 94  5 15 19 25 30.0030000  0  8  2 15  7 27 19  9  4 26
  22031268.100   -12584661.704 9  -9745304.257 9
  24699551.207    -3398094.805 5  -3449975.331 2
  21166666.472   -19604377.607 7 -16321570.425 9
  22686652.068    -3261086.660 7  -1103053.338 5
  25357477.324    25276269.269 4  18304231.522 1
  25680721.796     -534807.395 5  -1491230.169 2
  25311317.739    -3693887.221 5  -2612934.008 2
  23593839.455    -9958807.656 7  -8761232.152 5
 94  5 15 19 26  0.0030000  0  8  2 15  7 27 19  9  4 26
  22036075.842   -12559392.822 9  -9725614.225 9
  24707948.753    -3353968.854 5  -3415591.453 2
  21168056.280   -19597086.699 8 -16315889.189 9
  22704612.724    -3166694.488 7  -1029501.018 5
  25378790.049    25388261.240 4  18391497.805 1
  25663904.758     -623190.228 5  -1560099.833 2
  25294091.005    -3784471.228 5  -2683518.802 2
  23598270.088    -9935522.805 7  -8743088.131 5
 94  5 15 19 26 30.0030000  0  8  2 15  7 27 19  9  4 26
  22040920.518   -12533937.800 9  -9705779.171 8
  24716440.584    -3309293.277 5  -3380779.346 2
  21169530.629   -19589339.525 8 -16309852.445 9
  22722647.429    -3071923.097 7   -955653.240 5
  25400134.133    25500402.324 4  18478880.383 1
  25647090.299     -711561.346 5  -1628960.432 2
  25276841.037    -3875097.963 5  -2754136.826 2
  23602798.902    -9911711.221 6  -8724533.672 4
 94  5 15 19 27  0.0030000  0  8  2 15  7 27 19  9  4 26
  22045801.919   -12508286.420 8  -9685791.092 8
  24725052.063    -3264062.226 5  -3345534.368 2
  21171096.295   -19581126.707 8 -16303452.845 9
  22740758.071    -2976760.618 7   -881500.718 5
  25421506.637    25612716.516 4  18566397.735 1
  25630273.261     -799903.711 5  -1697798.606 2
  25259585.373    -3965764.010 5  -2824785.567 2
  23607430.696    -9887379.268 6  -8705573.737 5
 94  5 15 19 27 30.0030000  0  8  2 15  7 27 19  9  4 26
  22050718.575   -12482445.524 8  -9665655.341 8
  24733765.081    -3218266.954 5  -3309849.764 2
  21172746.173   -19572430.807 8 -16296676.811 9
  22758941.742    -2881196.981 7   -807035.589 5
  25442918.534    25725220.743 4  18654063.393 1
  25613476.129     -888205.980 5  -1766605.515 2
  25242332.797    -4056458.671 5  -2895456.526 2
  23612159.712    -9862536.321 7  -8686215.594 5
 94  5 15 19 28  0.0030000  0  8  2 15  7 27 19  9  4 26
  22055669.558   -12456434.126 8  -9645386.737 8
  24742584.885    -3171898.152 5  -3273718.257 2
  21174500.498   -19563230.672 8 -16289507.890 9
  22777202.281    -2785244.797 7   -732267.688 5
  25464369.314    25837926.951 5  18741886.136 1
  25596682.865     -976453.753 5  -1835369.929 2
  25225065.351    -4147172.688 5  -2966142.601 2
  23616980.555    -9837175.396 7  -8666453.861 5
 94  5 15 19 28 30.0030000  0  8  2 15  7 27 19  9  4 26
  22060649.170   -12430262.206 8  -9624993.041 8
  24751521.488    -3124956.740 5  -3237140.552 2
  21176346.890   -19553527.494 7 -16281946.966 9
  22795535.309    -2688909.217 7   -657201.059 5
  25485849.324    25950824.102 5  18829857.859 1
  25579896.526    -1064642.176 5  -1904088.160 2
  25207800.483    -4237899.429 5  -3036838.641 2
  23621909.442    -9811288.545 7  -8646282.325 5
 94  5 15 19 29  0.0030000  0  8  2 15  7 27 19  9  4 26
  22065658.073   -12403943.789 8  -9604485.196 8
  24760560.920    -3077452.456 5  -3200124.229 2
  21178285.348   -19543337.027 8 -16274006.356 9
  22813934.832    -2592208.720 7   -581850.065 5
  25507365.518    26063899.056 5  18917968.043 1
  25563127.485    -1152780.842 5  -1972767.652 2
  25190531.658    -4328630.361 5  -3107537.900 2
  23626932.945    -9784875.819 7  -8625700.995 4
 94  5 15 19 29 30.0030000  0  8  2 15  7 27 19  9  4 26
  22070690.869   -12377494.752 8  -9583875.572 8
  24769703.961    -3029388.093 5  -3162671.540 2
  21180315.063   -19532671.849 7 -16265695.814 9
  22832402.647    -2495159.796 7   -506227.558 5
  25528914.330    26177125.192 5  19006196.053 1
  25546364.740    -1240861.785 5  -2041402.080 2
  25173270.507    -4419347.309 5  -3178226.304 2
  23632066.081    -9757930.381 7  -8604704.575 5
 94  5 15 19 30  0.0030000  0  8  2 15  7 27 19  9  4 26
  22075751.215   -12350902.527 8  -9563154.374 8
  24778961.522    -2980772.007 5  -3124788.846 2
  21182431.987   -19521539.267 7 -16257021.077 9
  22850938.185    -2397762.084 7   -430333.304 5
  25550477.532    26290469.325 5  19094515.983 2
  25529615.005    -1328889.737 5  -2109995.253 2
  25156015.713    -4510042.754 5  -3248897.885 2
  23637295.871    -9730449.225 7  -8583290.731 5
 94  5 15 19 30 30.0030000  0  8  2 15  7 27 19  9  4 26
  22080838.544   -12324151.875 8  -9542309.720 8
  24788309.710    -2931615.091 5  -3086484.767 2
  21184632.914   -19509959.929 7 -16247998.227 9
  22869540.427    -2300011.362 7   -354163.948 5
  25572064.988    26403917.887 5  19182917.355 2
  25512868.029    -1416883.785 5  -2178562.086 2
  25138759.149    -4600720.135 5  -3319555.434 2
  23642626.300    -9702446.943 6  -8561470.806 4
 94  5 15 19 31  0.0030000  0  8  2 15  7 27 19  9  4 26
  22085961.037   -12297243.529 8  -9521342.190 8
  24797765.584    -2881928.699 5  -3047768.197 2
  21186926.506   -19497932.775 8 -16238626.408 9
  22888205.025    -2201922.771 7   -277731.330 5
  25593679.215    26517455.889 5  19271388.347 2
  25496129.867    -1504846.360 5  -2247104.274 2
  25121506.183    -4691395.812 5  -3390211.680 2
  23648046.338    -9673952.446 7  -8539267.310 4
 94  5 15 19 31 30.0030000  0  8  2 15  7 27 19  9  4 26
  22091118.337   -12270161.368 8  -9500239.230 8
  24807324.317    -2831713.661 5  -3008639.587 2
  21189303.111   -19485438.048 8 -16228890.275 9
  22906933.300    -2103494.845 7   -201034.273 5
  25615299.107    26631079.411 5  19359926.027 2
  25479399.379    -1592766.486 5  -2315613.441 2
  25104250.459    -4782089.956 5  -3460882.253 2
  23653556.074    -9644979.615 6  -8516691.109 4
 94  5 15 19 32  0.0030000  0  8  2 15  7 27 19  9  4 26
  22096307.804   -12242870.433 8  -9478973.579 8
  24816981.621    -2780958.181 5  -2969089.873 2
  21191772.741   -19472456.249 8 -16218774.575 9
  22925732.865    -2004705.996 7   -124056.020 5
  25636936.358    26744816.343 4  19448552.033 2
  25462675.696    -1680639.009 5  -2384085.543 2
  25086973.749    -4872800.917 5  -3531565.991 2
  23659165.041    -9615509.807 6  -8493727.648 4
 94  5 15 19 32 30.0030000  0  8  2 15  7 27 19  9  4 26
  22101543.020   -12215364.712 8  -9457540.553 8
  24826744.153    -2729647.882 5  -2929107.876 2
  21194336.686   -19458982.366 8 -16208275.464 9
  22944602.942    -1905549.709 7    -46791.437 5
  25658622.595    26858702.779 4  19537294.603 2
  25445973.059    -1768442.190 5  -2452503.552 2
  25069717.516    -4963519.026 5  -3602255.272 2
  23664871.350    -9585533.200 7  -8470369.275 4
 94  5 15 19 33  0.0030000  0  8  2 15  7 27 19  9  4 26
  22106814.781   -12187653.991 8  -9435947.808 8
  24836616.768    -2677778.883 5  -2888690.515 2
  21196998.603   -19445011.306 8 -16197388.922 9
  22963540.891    -1806016.664 7     30766.733 5
  25680314.079    26972760.345 4  19626170.433 2
  25429278.367    -1856152.505 4  -2520849.179 2
  25052460.952    -5054240.390 5  -3672947.142 2
  23670672.484    -9555047.691 7  -8446614.368 4
 94  5 15 19 33 30.0030000  0  8  2 15  7 27 19  9  4 26
  22112129.321   -12159739.846 8  -9414196.541 8
  24846593.801    -2625356.578 5  -2847841.967 2
  21199743.653   -19430573.527 8 -16186138.705 9
  22982554.868    -1706105.231 7    108619.720 5
  25702048.762    27087004.426 3  19715191.689 2
  25412595.846    -1943793.877 4  -2589141.174 2
  25035195.365    -5144963.793 5  -3743640.566 2
  23676570.361    -9524054.541 7  -8422463.878 4
 94  5 15 19 34  0.0030000  0  8  2 15  7 27 19  9  4 26
  22117477.229   -12131624.533 8  -9392288.523 8
  24856672.764    -2572379.428 5  -2806561.130 2
  21202575.492   -19415691.494 8 -16174542.330 9
  23001641.515    -1605805.849 7    186775.054 5
  25723830.453    27201449.174 3  19804369.255 2
  25395932.152    -2031381.039 4  -2657390.822 2
  25017926.420    -5235662.086 5  -3814314.400 2
  23682563.692    -9492554.321 7  -8397918.292 4
 94  5 15 19 34 30.0030000  0  8  2 15  7 27 19  9  4 26
  22122862.851   -12103330.362 8  -9370241.129 8
  24866860.551    -2518850.768 5  -2764850.500 2
  21205489.385   -19400376.109 8 -16162608.258 9
  23020802.600    -1505120.055 7    265231.471 5
  25745650.637    27316094.321 3  19893702.929 2
  25379278.411    -2118902.624 5  -2725589.368 2
  25000676.572    -5326326.419 5  -3884961.820 2
  23688655.235    -9460560.535 7  -8372988.094 4
 94  5 15 19 35  0.0030000  0  7  2 15  7 27  9  4 26
  22128280.790   -12074858.041 8  -9348054.921 8
  24877152.126    -2464776.706 5  -2722714.862 2
  21208486.530   -19384634.074 8 -16150341.758 9
  23040031.888    -1404054.297 6    343983.908 5
  25362639.060    -2206357.505 5  -2793736.044 2
  24983430.591    -5416961.963 5  -3955586.779 2
  23694836.896    -9428072.074 7  -8347672.441 4
 94  5 15 19 35 30.0030000  0  7  2 15  7 27  9  4 26
  22133732.636   -12046208.558 8  -9325730.658 8
  24887544.581    -2410162.511 5  -2680158.396 2
  21211561.981   -19368467.043 8 -16137744.060 9
  23059333.396    -1302624.820 6    423019.829 5
  25346004.086    -2293753.582 5  -2861836.862 2
  24966186.349    -5507567.744 5  -4026188.557 2
  23701116.888    -9395083.155 7  -8321966.811 4
 94  5 15 19 36  0.0030000  0  7  2 15  7 27  9  4 26
  22139216.170   -12017386.335 8  -9303271.807 8
  24898036.328    -2355002.045 5  -2637176.261 2
  21214722.813   -19351856.475 8 -16124800.753 9
  23078705.475    -1200826.734 6    502342.926 5
  25329391.687    -2381061.561 5  -2929869.023 2
  24948956.017    -5598135.188 5  -4096760.504 2
  23707488.497    -9361589.009 7  -8295867.519 4
 94  5 15 19 36 30.0030000  0  7  2 15  7 27  9  4 26
  22144735.978   -11988385.667 8  -9280673.896 8
  24908638.698    -2299287.908 5  -2593762.677 2
  21217971.034   -19334784.192 8 -16111497.689 9
  23098146.896    -1098661.803 6    581951.898 5
  25312793.588    -2468266.772 6  -2997821.091 2
  24931729.253    -5688672.139 5  -4167308.633 2
  23713957.029    -9327581.598 6  -8269368.243 4
 94  5 15 19 37  0.0030000  0  7  2 15  7 27  9  4 26
  22150290.983   -11959188.642 8  -9257922.984 8
  24919343.537    -2243019.931 5  -2549917.527 2
  21221310.093   -19317236.203 8 -16097823.937 9
  23117657.539     -996141.515 6    661837.763 5
  25296213.806    -2555386.735 5  -3065706.769 2
  24914502.519    -5779179.564 5  -4237833.789 2
  23720524.343    -9293063.825 6  -8242471.309 4
 94  5 15 19 37 30.0030000  0  7  2 15  7 27  9  4 26
  22155885.650   -11929801.774 8  -9235024.140 8
  24930167.005    -2186204.485 5  -2505645.798 2
  21224738.849   -19299218.159 8 -16083783.903 9
  23137228.320     -893279.216 6    741990.121 4
  25279653.570    -2642444.033 6  -3133543.571 2
  24897290.564    -5869645.878 5  -4308326.904 2
  23727187.620    -9258054.561 6  -8215191.362 4
 94  5 15 19 38  0.0030000  0  7  2 15  7 27  9  4 26
  22161512.904   -11900219.215 8  -9211972.825 8
  24941075.523    -2128847.555 5  -2460952.095 2
  21228256.494   -19280738.948 8 -16069384.517 9
  23156868.444     -790077.110 6    822407.297 4
  25263101.129    -2729443.479 6  -3201335.279 2
  24880080.319    -5960072.296 5  -4378788.931 2
  23733942.693    -9222559.425 6  -8187532.866 4
 94  5 15 19 38 30.0030000  0  7  2 15  7 27  9  4 26
  22167180.990   -11870439.725 8  -9188768.025 8
  24952089.328    -2070955.829 5  -2415841.661 2
  21231859.669   -19261803.182 8 -16054629.381 9
  23176569.545     -686548.780 6    903078.669 4
  25246551.356    -2816391.346 6  -3269086.892 2
  24862881.585    -6050453.639 5  -4449215.850 2
  23740790.613    -9186575.283 6  -8159493.298 4
 94  5 15 19 39  0.0030000  0  7  2 15  7 27  9  4 26
  22172882.773   -11840470.930 8  -9165415.729 8
  24963204.373    -2012539.921 5  -2370322.816 2
  21235548.166   -19242418.029 8 -16039524.070 9
  23196331.264     -582702.770 6    983997.557 4
  25230013.665    -2903280.649 6  -3336792.795 2
  24845690.047    -6140784.159 5  -4519603.167 2
  23747728.290    -9150112.322 6  -8131080.623 4
 94  5 15 19 39 30.0030000  0  7  2 15  7 27  9  4 26
  22178619.841   -11810330.281 8  -9141929.545 8
  24974425.845    -1953606.673 6  -2324400.828 2
  21239320.724   -19222596.797 8 -16024078.958 9
  23216155.250     -478529.066 6   1065171.816 4
  25213493.811    -2990094.341 6  -3404439.746 2
  24828513.768    -6231067.218 5  -4589953.546 2
  23754760.581    -9113171.762 6  -8102295.815 4
 94  5 15 19 40  0.0030000  0  7  2 15  7 27  9  4 26
  22184385.480   -11780021.129 8  -9118312.027 8
  24985732.038    -1894163.714 6  -2278081.666 2
  21243177.644   -19202338.150 8 -16008293.001 9
  23236043.332     -374033.720 6   1146596.698 4
  25196990.506    -3076816.038 5  -3472015.091 2
  24811339.917    -6321320.721 5  -4660280.821 2
  23761875.406    -9075759.292 6  -8073143.280 4
 94  5 15 19 40 30.0030000  0  7  2 15  7 27  9  4 26
  22190186.853   -11749550.650 8  -9094568.806 8
  24997146.695    -1834212.212 6  -2231366.243 2
  21247116.317   -19181632.755 8 -15992158.925 9
  23255985.137     -269222.541 6   1228267.687 4
  25180507.497    -3163440.585 5  -3539514.694 2
  24794162.169    -6411556.043 5  -4730593.937 2
  23769084.185    -9037892.276 6  -8043636.530 4
 94  5 15 19 41  0.0030000  0  7  2 15  7 27  9  4 26
  22196014.429   -11718912.401 8  -9070694.858 8
  25008654.739    -1773750.677 6  -2184253.377 2
  21251138.063   -19160485.453 8 -15975680.524 9
  23275990.287     -164096.995 6   1310183.612 4
  25164043.615    -3249960.240 5  -3606932.564 2
  24776993.714    -6501780.422 5  -4800898.588 2
  23776374.688    -8999579.601 6  -8013782.531 4
 94  5 15 19 41 30.0030000  0  7  2 15  7 27  9  4 26
  22201879.479   -11688094.082 8  -9046680.591 8
  25020251.280    -1712780.191 5  -2136743.888 2
  21255244.021   -19138903.832 8 -15958863.667 9
  23296051.109      -58664.703 6   1392338.579 4
  25147595.652    -3336377.374 5  -3674270.604 2
  24759830.566    -6592000.447 5  -4871199.809 2
  23783751.981    -8960819.073 6  -7983579.556 4
 94  5 15 19 42  0.0030000  0  7  2 15  7 27  9  4 26
  22207777.985   -11657089.004 8  -9022520.820 8
  25031950.022    -1651304.381 6  -2088840.734 2
  21259435.569   -19116888.453 8 -15941708.826 9
  23316172.610       47067.214 6   1474727.025 4
  25131172.781    -3422701.927 5  -3741536.468 2
  24742664.120    -6682218.810 5  -4941499.747 2
  23791212.736    -8921622.316 6  -7953036.658 4
 94  5 15 19 42 30.0030000  0  7  2 15  7 27  9  4 26
  22213713.096   -11625900.364 8  -8998217.994 8
  25043742.598    -1589325.933 5  -2040545.836 2
  21263707.432   -19094446.880 8 -15924221.898 9
  23336348.672      153093.041 6   1557344.454 4
  25114759.804    -3508941.783 5  -3808736.311 2
  24725492.368    -6772422.614 5  -5011788.354 2
  23798750.748    -8881984.997 6  -7922150.487 4
 94  5 15 19 43  0.0030000  0  7  2 15  7 27  9  4 26
  22219686.011   -11594525.689 8  -8973770.220 8
  25055634.525    -1526841.950 5  -1991857.082 2
  21268057.001   -19071583.604 8 -15906406.357 9
  23356586.402      259422.570 6   1640198.572 4
  25098367.182    -3595095.337 5  -3875868.941 2
  24708342.021    -6862578.577 5  -5082039.652 2
  23806381.875    -8841882.473 6  -7890901.779 4
 94  5 15 19 43 30.0030000  0  7  2 15  7 27  9  4 26
  22225688.306   -11562971.432 8  -8949182.499 8
  25067616.510    -1463850.609 5  -1942772.957 2
  21272488.713   -19048297.580 8 -15888261.408 9
  23376877.165      366065.172 6   1723296.618 4
  25081984.214    -3681161.057 5  -3942933.124 2
  24691193.353    -6952657.962 5  -5152231.275 2
  23814105.368    -8801311.128 6  -7859287.781 4
 94  5 15 19 44  0.0030000  0  7  2 15  7 27  9  4 26
  22231727.295   -11531238.225 8  -8924455.328 8
  25079703.842    -1400344.180 5  -1893287.466 2
  21277000.469   -19024589.234 8 -15869787.374 9
  23397233.612      473025.189 6   1806641.994 4
  25065635.482    -3767135.839 5  -4009926.376 2
  24674079.430    -7042626.754 5  -5222336.742 2
  23821915.981    -8760262.671 6  -7827302.025 4
 94  5 15 19 44 30.0030000  0  7  2 15  7 27  9  4 26
  22237803.459   -11499318.053 8  -8899582.494 8
  25091888.067    -1336310.411 5  -1843391.082 2
  21281592.300   -19000451.449 8 -15850978.719 9
  23417647.980      580313.274 6   1890243.072 4
  25049290.167    -3852996.524 5  -4076830.714 2
  24656987.093    -7132456.843 5  -5292334.115 2
  23829824.296    -8718711.353 6  -7794924.395 4
 94  5 15 19 45  0.0030000  0  7  2 15  7 27  9  4 26
  22243912.390   -11467214.603 8  -8874566.828 8
  25104178.119    -1271751.312 5  -1793085.290 2
  21286265.225   -18975894.972 8 -15831843.799 9
  23438126.203      687939.203 6   1974107.319 4
  25032969.346    -3938742.944 5  -4143646.157 2
  24639914.902    -7222151.699 5  -5362226.156 2
  23837822.429    -8676669.628 6  -7762164.653 4
 94  5 15 19 45 30.0030000  0  7  2 15  7 27  9  4 26
  22250054.358   -11434932.854 8  -8849412.221 8
  25116558.768    -1206676.974 5  -1742378.075 2
  21291019.964   -18950917.442 8 -15812380.805 9
  23458667.682      795884.544 6   2058220.498 4
  25016672.448    -4024386.771 5  -4210381.528 2
  24622863.426    -7311738.042 5  -5432033.569 2
  23845912.328    -8634161.110 6  -7729041.163 4
 94  5 15 19 46  0.0030000  0  8  2 15  7 27 12  9  4 26
  22256231.162   -11402478.853 8  -8824123.414 8
  25129039.248    -1141098.482 5  -1691277.998 2
  21295852.528   -18925511.678 8 -15792584.105 9
  23479267.531      904141.223 6   2142576.278 4
  25671409.703     -459353.55614  -1182462.473 2
  25000398.934    -4109941.867 5  -4277047.780 2
  24605830.178    -7401250.599 5  -5501783.530 2
  23854085.840    -8591191.114 6  -7695558.081 4
 94  5 15 19 46 30.0030000  0  8  2 15  7 27 12  9  4 26
  22262440.583   -11369848.931 8  -8798697.510 8
  25141613.143    -1075008.546 5  -1639779.352 2
  21300775.360   -18899651.076 8 -15772432.993 9
  23499932.106     1012730.125 6   2227190.937 4
  25656457.314     -537885.742 4  -1243656.419 2
  24984129.167    -4195390.973 6  -4343631.484 2
  24588808.352    -7490699.461 5  -5571483.850 2
  23862357.863    -8547749.173 6  -7661707.253 4
 94  5 15 19 47  0.0030000  0  8  2 15  7 27 12  9  4 26
  22268685.050   -11337032.143 8  -8773126.005 8
  25154283.032    -1008405.414 5  -1587880.856 2
  21305784.622   -18873321.539 8 -15751916.481 9
  23520660.116     1121645.424 6   2312059.925 4
  25641512.660     -616448.603 4  -1304874.157 2
  24967896.995    -4280730.594 6  -4410129.864 2
  24571800.946    -7580086.126 6  -5641135.733 2
  23870711.940    -8503844.870 6  -7627496.162 4
 94  5 15 19 47 30.0030000  0  8  2 15  7 27 12  9  4 26
  22274963.963   -11304026.521 8  -8747407.344 8
  25167051.283     -941298.997 5  -1535590.238 2
  21310885.291   -18846531.614 8 -15731041.204 9
  23541444.757     1230875.056 6   2397173.851 4
  25626560.212     -695048.931 5  -1366121.141 2
  24951677.473    -4365961.888 6  -4476543.824 2
  24554800.046    -7669411.613 5  -5710739.902 2
  23879150.678    -8459482.660 6  -7592928.221 4
 94  5 15 19 48  0.0030000  0  8  2 15  7 27 12  9  4 26
  22281284.368   -11270820.203 8  -8721532.318 7
  25179918.825     -873684.721 5  -1482903.817 2
  21316065.375   -18819296.321 8 -15709818.910 9
  23562293.404     1340438.389 6   2482547.825 4
  25611598.050     -773679.242 5  -1427391.466 2
  24935480.436    -4451063.167 6  -4542856.477 2
  24537819.501    -7758656.519 5  -5780281.297 2
  23887684.180    -8414653.742 6  -7557996.626 4
 94  5 15 19 48 30.0030000  0  8  2 15  7 27 12  9  4 26
  22287641.377   -11237403.393 8  -8695493.259 7
  25192889.196     -805559.414 5  -1429819.240 2
  21321330.150   -18791630.492 8 -15688261.128 9
  23583207.885     1450326.998 6   2568175.208 4
  25596627.074     -852333.765 5  -1488680.650 2
  24919308.762    -4536020.614 6  -4609057.095 2
  24520855.625    -7847790.020 6  -5849735.894 2
  23896301.595    -8369367.636 6  -7522708.800 4
 94  5 15 19 49  0.0030000  0  8  2 15  7 27 12  9  4 26
  22294043.985   -11203772.183 8  -8669287.141 8
  25205953.222     -736926.216 5  -1376338.819 2
  21326671.942   -18763550.630 8 -15666380.725 9
  23604177.528     1560530.133 6   2654047.675 4
  25581653.700     -931011.566 5  -1549988.043 2
  24903175.011    -4620846.438 6  -4675155.095 3
  24503922.088    -7936797.271 6  -5919092.126 2
  23905009.127    -8323633.052 6  -7487071.508 4
 94  5 15 19 49 30.0030000  0  8  2 15  7 27 12  9  4 26
  22300483.167   -11169929.205 8  -8642916.000 7
  25219109.943     -667780.883 5  -1322459.418 2
  21332093.359   -18735069.683 8 -15644187.785 9
  23625208.209     1671050.815 6   2740167.639 4
  25566676.968    -1009706.056 5  -1611308.389 2
  24887056.459    -4705546.765 6  -4741155.309 3
  24487009.446    -8025671.025 6  -5988344.316 2
  23913794.155    -8277441.512 6  -7451078.126 4
 94  5 15 19 50  0.0030000  0  8  2 15  7 27 12  9  4 26
  22306961.472   -11135880.702 8  -8616384.714 7
  25232354.205     -598123.292 5  -1268180.835 2
  21337592.932   -18706174.376 8 -15621671.951 9
  23646295.610     1781873.220 6   2826522.666 4
  25551699.457    -1088413.879 5  -1672639.124 2
  24870960.272    -4790120.930 6  -4807057.244 3
  24470120.278    -8114414.073 6  -6057494.647 2
  23922672.598    -8230795.350 6  -7414730.516 4
 94  5 15 19 50 30.0030000  0  8  2 15  7 27 12  9  4 26
  22313478.420   -11101630.544 8  -8589696.292 7
  25245719.462     -527959.752 5  -1213507.953 2
  21343169.101   -18676861.953 8 -15598831.118 9
  23667439.343     1892974.494 6   2913095.014 4
  25536717.928    -1167138.192 5  -1733982.672 2
  24854889.538    -4874578.030 6  -4872867.920 3
  24453256.593    -8203026.555 6  -6126543.268 2
  23931630.187    -8183703.916 6  -7378035.930 4
 94  5 15 19 51  0.0030000  0  8  2 15  7 27 12  9  4 26
  22320034.522   -11067190.794 8  -8562860.142 7
  25259158.109     -457302.852 5  -1158450.688 2
  21348825.496   -18647146.288 8 -15575676.054 9
  23688631.522     2004349.802 6   2999880.912 4
  25521740.387    -1245888.175 5  -1795346.285 2
  24838839.579    -4958912.893 6  -4938583.390 3
  24436417.910    -8291526.161 6  -6195503.907 2
  23940679.512    -8136167.514 6  -7340994.612 4
 94  5 15 19 51 30.0030000  0  8  2 15  7 27 12  9  4 26
  22326621.442   -11032571.750 8  -8535884.293 7
  25272699.015     -386163.326 5  -1103017.371 1
  21354553.510   -18617028.527 8 -15552207.688 9
  23709876.494     2115988.554 6   3086872.044 4
  25506742.520    -1324671.710 5  -1856736.050 2
  24822818.880    -5043109.547 6  -5004191.150 3
  24419597.095    -8379931.442 6  -6264391.094 2
  23949806.094    -8088192.702 6  -7303611.691 4
 94  5 15 19 52  0.0030000  0  8  2 15  7 27 12  9  4 26
  22333244.487   -10997762.251 8  -8508760.016 7
  25286325.631     -314539.253 5  -1047206.445 2
  21360364.867   -18586499.975 8 -15528419.211 9
  23731174.889     2227899.363 6   3174075.184 3
  25491747.410    -1403483.446 5  -1918147.779 2
  24806829.150    -5127140.105 6  -5069669.490 3
  24402788.361    -8468233.969 6  -6333198.148 2
  23959021.624    -8039780.734 6  -7265888.115 4
 94  5 15 19 52 30.0030000  0  8  2 15  7 27 12  9  4 26
  22339906.445   -10962758.500 8  -8481484.388 7
  25300054.567     -242423.400 5   -991012.308 2
  21366252.761   -18555563.359 8 -15504312.780 9
  23752522.901     2340109.743 6   3261511.757 3
  25476743.667    -1482313.117 5  -1979573.459 2
  24790874.315    -5210990.520 6  -5135007.401 3
  24386010.896    -8556405.512 6  -6401903.169 2
  23968315.490    -7990923.062 6  -7227817.244 4
 94  5 15 19 53  0.0030000  0  8  2 15  7 27 12  9  4 26
  22346603.418   -10927568.221 8  -8454063.414 7
  25313860.429     -169817.853 5   -934436.596 1
  21372219.590   -18524211.802 8 -15479883.008 9
  23773937.915     2452632.529 6   3349191.774 3
  25461740.614    -1561159.573 5  -2041012.259 2
  24774951.858    -5294658.682 6  -5200203.408 3
  24369256.485    -8644459.795 6  -6470516.845 2
  23977699.204    -7941622.481 6  -7189401.269 4
 94  5 15 19 53 30.0030000  0  8  2 15  7 27 12  9  4 26
  22353336.727   -10892184.663 8  -8426491.835 7
  25327774.816      -96733.761 5   -877488.016 1
  21378262.087   -18492448.786 8 -15455132.609 9
  23795403.895     2565451.888 6   3437102.873 3
  25446734.892    -1640030.523 5  -2102470.100 2
  24759060.699    -5378173.761 6  -5265280.058 3
  24352523.449    -8732405.377 6  -6539045.808 2
  23987164.701    -7891893.797 6  -7150651.673 4
 94  5 15 19 54  0.0030000  0  8  2 15  7 27 12  9  4 26
  22360108.739   -10856592.847 8  -8398757.955 7
  25341777.133      -23166.887 5   -820163.199 1
  21384383.819   -18460269.392 8 -15430057.758 9
  23816932.471     2678570.872 6   3525247.448 3
  25431718.258    -1718917.939 5  -2163940.810 2
  24743196.432    -5461542.228 6  -5330242.406 3
  24335810.499    -8820218.123 6  -6607471.228 2
  23996706.406    -7841744.400 6  -7111574.265 4
 94  5 15 19 54 30.0030000  0  8  2 15  7 27 12  9  4 26
  22366922.812   -10820789.643 8  -8370859.390 7
  25355865.639       50883.029 5   -762461.997 1
  21390592.161   -18427661.831 8 -15404649.282 9
  23838519.237     2791989.626 6   3613625.599 3
  25416707.979    -1797818.700 4  -2225421.823 2
  24727357.167    -5544774.508 6  -5395098.739 3
  24319123.421    -8907897.076 6  -6675792.412 3
  24006329.384    -7791167.005 6  -7072163.354 4
 94  5 15 19 55  0.0030000  0  8  2 15  7 27 12  9  4 26
  22373775.198   -10784772.595 8  -8342794.170 7
  25370046.482      125406.468 5   -704391.866 1
  21396876.441   -18394634.201 8 -15378913.473 9
  23860151.361     2905679.908 6   3702215.334 3
  25401686.518    -1876738.766 4  -2286917.940 2
  24711543.265    -5627877.878 6  -5459854.578 3
  24302461.406    -8995465.351 6  -6744027.356 3
  24016030.728    -7740168.331 6  -7032424.173 4
 94  5 15 19 55 30.0030000  0  8  2 15  7 27 12  9  4 26
  22380669.525   -10748544.201 8  -8314564.261 7
  25384312.886      200400.141 5   -645955.236 1
  21403239.266   -18361191.968 8 -15352854.601 9
  23881834.900     3019621.548 6   3791000.938 3
  25386667.366    -1955678.435 4  -2348429.308 2
  24695747.380    -5710859.971 6  -5524515.902 3
  24285823.764    -9082901.716 6  -6812159.531 3
  24025819.132    -7688756.282 6  -6992362.865 4
 94  5 15 19 56  0.0030000  0  8  2 15  7 27 12  9  4 26
  22387598.568   -10712129.415 8  -8286189.136 7
  25398672.975      275864.341 5   -587152.014 1
  21409683.545   -18327330.131 8 -15326468.764 9
  23903565.146     3133826.338 6   3879991.600 3
  25371645.066    -2034633.403 4  -2409952.601 2
  24679985.791    -5793708.712 6  -5589073.379 3
  24269212.744    -9170199.363 6  -6880183.577 3
  24035678.256    -7636935.147 6  -6951982.806 4
 94  5 15 19 56 30.0030000  0  8  2 15  7 27 12  9  4 26
  22394563.167   -10675538.560 8  -8257676.806 7
  25413125.519      351790.942 5   -527988.445 1
  21416203.221   -18293065.440 8 -15299769.023 9
  23925346.777     3248294.559 6   3969187.507 3
  25356612.003    -2113608.269 5  -2471491.425 2
  24664243.899    -5876426.828 6  -5653529.027 3
  24252622.319    -9257368.523 6  -6948107.541 3
  24045619.944    -7584700.512 6  -6911280.560 3
 94  5 15 19 57  0.0030000  0  8  2 15  7 27 12  9  4 26
  22401560.412   -10638768.698 8  -8229024.980 7
  25427667.102      428180.698 5   -468463.986 1
  21422797.126   -18258415.574 8 -15272769.132 9
  23947181.741     3363020.965 6   4058584.629 3
  25341580.439    -2192599.195 5  -2533042.729 2
  24648529.258    -5959010.435 6  -5717879.826 3
  24236061.784    -9344398.327 6  -7015922.895 3
  24055639.937    -7532059.228 6  -6870261.410 3
 94  5 15 19 57 30.0030000  0  8  2 15  7 27 12  9  4 26
  22408592.344   -10601820.812 8  -8200234.438 7
  25442292.417      505032.291 5   -408579.660 2
  21429463.581   -18223379.559 8 -15245468.358 9
  23969064.792     3478012.306 6   4148188.165 3
  25326546.537    -2271603.720 5  -2594604.663 2
  24632840.010    -6041457.684 6  -5782124.433 3
  24219529.938    -9431280.857 6  -7083623.486 3
  24065727.893    -7479018.075 6  -6828930.683 4
 94  5 15 19 58  0.0030000  0  8  2 15  7 27 12  9  4 26
  22415659.472   -10564681.024 8  -8171294.368 7
  25456998.826      582347.458 5   -348334.129 2
  21436204.864   -18187958.106 8 -15217867.235 9
  23990992.122     3593280.337 6   4238007.303 3
  25311512.874    -2350616.611 5  -2656173.119 2
  24617183.439    -6123740.070 6  -5846240.542 3
  24203023.845    -9518011.437 6  -7151205.684 3
  24075901.650    -7425564.737 6  -6787278.768 4
 94  5 15 19 58 30.0030000  0  8  2 15  7 27 12  9  4 26
  22422766.202   -10527327.859 8  -8142188.012 7
  25471797.452      660127.324 5   -287726.469 2
  21443016.838   -18152157.400 8 -15189970.582 9
  24012981.179     3708804.084 6   4328025.716 3
  25296474.655    -2429633.430 5  -2717744.617 2
  24601556.697    -6205844.402 6  -5910217.888 3
  24186553.308    -9604572.059 6  -7218655.441 3
  24086151.884    -7371695.468 6  -6745302.741 3
 94  5 15 19 59  0.0030000  0  8  2 15  7 27 12  9  4 26
  22429915.023   -10489769.993 8  -8112922.148 7
  25486688.143      738374.709 5   -226754.505 2
  21449903.611   -18115973.661 8 -15161775.475 9
  24035011.518     3824572.708 6   4418234.941 3
  25281439.074    -2508647.658 5  -2779314.094 2
  24585963.472    -6287748.276 6  -5974039.103 3
  24170111.610    -9690956.576 6  -7285968.001 3
  24096479.464    -7317413.013 6  -6703004.788 3
 94  5 15 19 59 30.0030000  0  8  2 15  7 27 12  9  4 26
  22437100.359   -10452008.034 8  -8083497.287 7
  25501671.650      817086.571 5   -165420.669 2
  21456864.612   -18079401.126 8 -15133277.412 9
  24057084.097     3940584.205 6   4508633.403 3
  25266404.992    -2587658.638 5  -2840881.070 2
  24570423.790    -6369441.854 6  -6037696.423 3
  24153711.733    -9777165.668 6  -7353143.847 3
  24106888.858    -7262711.183 6  -6660380.012 3
 94  5 15 20  0  0.0030000  0  8  2 15  7 27 12  9  4 26
  22444321.819   -10414047.073 8  -8053917.328 7
  25516730.555      896258.125 5   -103728.562 2
  21463894.505   -18042455.092 8 -15104488.301 9
  24079208.661     4056837.891 6   4599220.595 3
  25251362.306    -2666667.487 5  -2902446.362 2
  24554915.316    -6450931.440 6  -6101194.755 3
  24137338.268    -9863194.249 6  -7420179.027 3
  24117378.446    -7207591.102 6  -6617429.357 3
 94  5 15 20  0 30.0030000  0  8  2 15  7 27 12  9  4 26
  22451579.375   -10375912.995 8  -8024202.478 7
  25531888.212      975875.853 5    -41688.838 2
  21470989.783   -18005165.741 8 -15075431.670 9
  24101374.236     4173326.808 6   4689991.065 3
  25236334.489    -2745683.975 6  -2964017.624 2
  24539444.286    -6532256.973 6  -6164565.270 3
  24120997.421    -9949067.890 6  -7487093.521 3
  24127946.310    -7152071.194 6  -6574167.154 3
 94  5 15 20  1  0.0030000  0  8  2 15  7 27 12  9  4 26
  22458867.659   -10337618.883 8  -7994362.939 7
  25547116.050     1055926.672 5     20688.378 2
  21478150.176   -17967546.260 8 -15046117.805 9
  24123592.035     4290060.166 6   4780952.035 3
  25221291.623    -2824717.405 6  -3025602.072 2
  24523994.662    -6613444.201 6  -6227828.039 3
  24104678.788   -10034813.121 6  -7553907.900 3
  24138581.148    -7096158.931 6  -6530599.190 3
 94  5 15 20  1 30.0030000  0  8  2 15  7 27 12  9  4 26
  22466188.262   -10299146.289 8  -7964384.305 7
  25562435.444     1136406.560 5     83399.924 2
  21485374.185   -17929583.917 8 -15016536.768 9
  24145851.085     4407049.634 6   4872112.541 3
  25206249.267    -2903768.208 5  -3087200.081 2
  24508565.423    -6694510.142 6  -6290996.252 3
  24088392.413   -10120421.116 6  -7620615.368 3
  24149300.527    -7039868.086 6  -6486736.273 3
 94  5 15 20  2  0.0030000  0  8  2 15  7 27 12  9  4 26
  22473544.899   -10260483.004 8  -7934257.088 7
  25577830.986     1217325.906 5    146453.920 2
  21492661.210   -17891267.089 8 -14986679.512 9
  24168170.214     4524317.225 6   4963489.753 3
  25191201.844    -2982822.260 5  -3148800.615 2
  24493165.384    -6775441.890 6  -6354059.915 3
  24072127.983   -10205867.862 6  -7687197.181 3
  24160080.884    -6983204.292 6  -6442582.700 3
 94  5 15 20  2 30.0030000  0  8  2 15  7 27 12  9  4 26
  22480943.267   -10221604.952 8  -7903962.524 7
  25593314.007     1298698.862 5    209861.378 2
  21500031.968   -17852557.571 8 -14956516.271 9
  24190534.222     4641864.478 6   5055084.895 3
  25176161.886    -3061861.591 5  -3210389.639 2
  24477795.145    -6856197.310 6  -6416986.207 3
  24055903.275   -10291135.764 6  -7753639.643 3
  24170935.230    -6926153.306 6  -6398127.441 3
 94  5 15 20  3  0.0030000  0  8  2 15  7 27 12  9  4 26
  22488390.321   -10182487.815 8  -7873481.662 7
  25608890.774     1380533.906 5    273628.881 2
  21507474.046   -17813416.814 8 -14926016.986 9
  24212959.777     4759679.923 6   5146889.033 3
  25161133.080    -3140873.538 5  -3271957.384 2
  24462474.341    -6936737.072 6  -6479744.442 3
  24039717.120   -10376185.797 6  -7819912.322 3
  24181870.489    -6868699.813 6  -6353358.547 3
 94  5 15 20  3 30.0030000  0  8  2 15  7 27 12  9  4 26
  22495874.850   -10143135.304 8  -7842817.379 7
  25624548.694     1462824.878 4    337751.680 2
  21515009.149   -17773843.100 8 -14895180.359 9
  24235423.196     4877741.103 6   5238884.651 3
  25146098.158    -3219861.015 5  -3333506.038 2
  24447194.519    -7017041.545 6  -6542319.313 3
  24023578.902   -10461004.164 6  -7886004.503 3
  24192876.500    -6810854.878 6  -6308284.614 3
 94  5 15 20  4  0.0030000  0  8  2 15  7 27 12  9  4 26
  22503406.236   -10103561.957 8  -7811981.018 7
  25640298.561     1545559.359 4    402220.062 2
  21522619.770   -17733855.697 8 -14864021.356 9
  24257926.697     4996018.245 5   5331048.535 3
  25131065.216    -3298832.654 5  -3395042.342 2
  24431956.249    -7097107.656 6  -6604708.495 3
  24007478.998   -10545605.275 6  -7951927.380 3
  24203959.677    -6752609.799 6  -6262898.885 3
 94  5 15 20  4 30.0040000  0  8  2 15  7 27 12  9  4 26
  22510980.612   -10063761.434 8  -7780967.665 7
  25656126.103     1628738.468 4    467034.852 2
  21530306.059   -17693450.520 8 -14832536.810 9
  24280475.946     5114505.271 6   5423375.946 3
  25116045.703    -3377788.363 5  -3456566.231 2
  24416762.137    -7176942.003 6  -6666917.058 3
  23991418.936   -10630000.770 6  -8017690.045 3
  24215119.422    -6693959.685 6  -6217197.536 3
 94  5 15 20  5  0.0040000  0  8  2 15  7 27 12  9  4 26
  22518596.090   -10023743.656 8  -7749785.006 7
  25672039.627     1712350.991 4    532187.425 2
  21538070.564   -17652659.961 8 -14800751.973 9
  24303065.608     5233212.018 6   5515874.602 3
  25101026.971    -3456724.894 5  -3518075.189 2
  24401611.796    -7256562.430 6  -6728958.902 3
  23975401.025   -10714184.626 6  -8083287.803 3
  24226356.362    -6634926.189 6  -6171197.482 3
 94  5 15 20  5 30.0040000  0  8  2 15  7 27 12  9  4 26
  22526252.460    -9983507.940 8  -7718432.514 7
  25688018.925     1796395.840 4    597676.836 2
  21545900.184   -17611505.762 8 -14768683.772 9
  24325699.878     5352159.622 5   5608560.895 3
  25086003.471    -3535644.992 5  -3579571.320 2
  24386496.380    -7335991.436 6  -6790851.635 3
  23959416.001   -10798180.295 6  -8148738.910 4
  24237661.806    -6575532.413 6  -6124916.646 3
 94  5 15 20  6  0.0040000  0  8  2 15  7 27 12  9  4 26
  22533949.811    -9943054.049 8  -7686910.039 7
  25704106.148     1880874.770 4    663504.523 2
  21553800.824   -17569990.861 8 -14736334.515 9
  24348389.311     5471363.862 6   5701447.228 2
  25070992.203    -3614542.501 5  -3641049.854 2
  24371417.809    -7415239.169 6  -6852603.095 3
  23943465.394   -10881994.013 6  -8214048.233 4
  24249027.987    -6515776.910 6  -6078353.985 3
 94  5 15 20  6 30.0040000  0  7  2  7 27 12  9  4 26
  22541685.776    -9902396.107 8  -7655228.530 7
  21561769.128   -17528134.617 8 -14703719.265 9
  24371118.316     5590830.793 6   5794538.212 2
  25055982.794    -3693418.978 5  -3702511.982 2
  24356367.628    -7494316.233 6  -6914221.548 3
  23927552.560   -10965619.759 6  -8279211.094 4
  24260463.930    -6455668.485 6  -6031516.308 3
 94  5 15 20  7  0.0040000  0  7  2  7 27 12  9  4 26
  22549459.484    -9861551.194 8  -7623401.357 7
  21569793.553   -17485951.063 8 -14670848.980 9
  24393900.744     5710543.772 5   5887820.912 2
  25040975.783    -3772279.888 5  -3763962.025 2
  24341354.711    -7573227.114 6  -6975710.545 3
  23911671.924   -11049065.312 6  -8344233.531 4
  24271971.074    -6395206.445 6  -5984403.066 3
 94  5 15 20  7 30.0040000  0  7  2  7 27 12  9  4 26
  22557264.731    -9820540.435 8  -7591444.955 7
  21577883.722   -17443429.457 8 -14637715.283 9
  24416723.044     5830469.590 6   5981269.486 2
  25025972.670    -3851132.822 5  -3825405.834 2
  24326373.332    -7651965.077 6  -7037064.781 3
  23895826.903   -11132339.539 6  -8409122.501 4
  24283545.191    -6334376.169 6  -5937002.930 3
 94  5 15 20  8  0.0040000  0  7  2  7 27 12  9  4 26
  22565100.286    -9779365.696 8  -7559360.764 7
  21586043.473   -17400553.933 8 -14604305.789 9
  24439581.740     5950597.105 5   6074875.239 2
  25010972.314    -3929971.260 5  -3886838.378 2
  24311426.310    -7730510.926 6  -7098269.288 3
  23880018.517   -11215416.776 6  -8473857.951 4
  24295199.323    -6273149.305 6  -5889293.729 3
 94  5 15 20  8 30.0040000  0  7  2  7 27 12  9  4 26
  22572965.071    -9738022.955 8  -7527145.667 7
  21594271.307   -17357315.867 8 -14570613.804 9
  24462478.329     6070924.116 6   6168636.420 2
  24995968.901    -4008786.402 5  -3948252.713 2
  24296514.843    -7808844.805 6  -7159308.667 3
  23864253.331   -11298278.616 6  -8538425.564 4
  24306926.305    -6211522.232 6  -5841272.702 3
 94  5 15 20  9  0.0040000  0  7  2  7 27 12  9  4 26
  22580870.778    -9696497.961 8  -7494788.554 7
  21602571.961   -17313703.444 8 -14536630.114 9
  24485411.582     6191445.350 6   6262548.951 2
  24980980.087    -4087579.643 5  -4009650.023 2
  24281650.743    -7886962.208 6  -7220179.373 3
  23848521.722   -11380923.613 6  -8602824.203 4
  24318727.006    -6149521.476 6  -5792960.481 3
 94  5 15 20  9 30.0040000  0  7  2  7 27 12  9  4 26
  22588809.133    -9654769.296 8  -7462272.740 7
  21610940.577   -17269719.578 8 -14502356.984 9
  24508388.486     6312172.736 6   6356622.089 2
  24965989.625    -4166346.612 5  -4071026.822 2
  24266830.323    -7964842.094 6  -7280864.949 3
  23832839.459   -11463336.102 6  -8667041.666 4
  24330592.162    -6087161.169 6  -5744368.058 3
 94  5 15 20 10  0.0040000  0  7  2  7 27 12  9  4 26
  22596793.745    -9612818.819 8  -7429584.081 7
  21619378.086   -17225379.201 8 -14467806.057 9
  24531397.767     6433115.748 5   6450863.269 2
  24951006.298    -4245082.385 5  -4132379.349 2
  24252057.840    -8042482.264 6  -7341363.768 3
  23817201.175   -11545516.014 6  -8731077.905 4
  24342522.223    -6024472.451 6  -5695519.808 3
 94  5 15 20 10 30.0040000  0  7  2  7 27 12  9  4 26
  22604818.410    -9570631.741 8  -7396711.059 7
  21627882.269   -17180692.528 8 -14432985.289 9
  24554458.402     6554278.940 5   6545276.030 2
  24936032.324    -4323776.923 6  -4193699.734 2
  24237332.214    -8119865.494 6  -7401662.386 3
  23801606.691   -11627470.114 6  -8794938.199 4
  24354509.484    -5961475.957 6  -5646431.683 3
 94  5 15 20 11  0.0040000  0  7  2  7 27 12  9  4 26
  22612897.127    -9528191.727 8  -7363640.947 7
  21636451.536   -17135660.600 8 -14397895.489 9
  24577558.340     6675659.348 5   6639858.025 2
  24921062.607    -4402422.410 6  -4254981.906 2
  24222653.806    -8196986.422 6  -7461756.590 3
  23786057.085   -11709193.706 6  -8858618.854 4
  24366555.535    -5898165.431 6  -5597098.870 3
 94  5 15 20 11 30.0040000  0  7  2  7 27 12  9  4 26
  22621018.385    -9485520.585 8  -7330390.726 7
  21645084.600   -17090279.380 8 -14362533.511 9
  24600689.307     6797243.519 5   6734598.813 2
  24906110.878    -4481012.320 6  -4316220.781 2
  24208027.471    -8273844.245 6  -7521645.794 3
  23770548.552   -11790683.852 6  -8922117.609 4
  24378666.131    -5834510.227 6  -5547497.485 3
 94  5 15 20 12  0.0040000  0  7  2  7 27 12  9  4 26
  22629178.736    -9442637.462 8  -7296975.333 7
  21653790.273   -17044544.557 8 -14326895.999 9
  24623861.615     6919010.632 5   6829482.104 2
  24891167.214    -4559549.344 6  -4377418.416 2
  24193448.174    -8350464.413 6  -7581349.787 3
  23755084.987   -11871935.150 6  -8985430.276 4
  24390849.906    -5770508.837 6  -5497626.315 3
 94  5 15 20 12 30.0040000  0  7  2  7 27 12  9  4 26
  22637375.211    -9399556.026 8  -7263405.402 7
  21662557.074   -16998465.760 8 -14290990.462 9
  24647066.091     7040942.212 5   6924493.601 2
  24876228.495    -4638048.010 6  -4438586.173 2
  24178909.349    -8426871.468 7  -7640887.732 4
  23739672.687   -11952941.561 6  -9048552.103 4
  24403097.177    -5706152.544 6  -5447478.614 3
 94  5 15 20 13  0.0040000  0  7  2  7 27 12  9  4 26
  22645608.262    -9356293.668 8  -7229694.489 7
  21671392.587   -16952048.663 8 -14254821.316 9
  24670302.195     7163039.678 5   7019634.338 2
  24861291.066    -4716519.853 6  -4499733.010 2
  24164408.268    -8503088.964 7  -7700277.964 4
  23724301.788   -12033700.660 6  -9111481.203 4
  24415410.973    -5641438.251 6  -5397051.952 3
 94  5 15 20 13 30.0040000  0  7  2  7 27 12  9  4 26
  22653876.448    -9312848.365 8  -7195841.033 7
  21680286.530   -16905304.909 8 -14218397.620 9
  24693574.244     7285312.644 5   7114911.832 2
  24846367.368    -4794965.328 6  -4560859.355 2
  24149935.757    -8579116.591 7  -7759520.260 4
  23708985.001   -12114204.878 6  -9174211.713 4
  24427792.341    -5576376.850 6  -5346354.827 3
 94  5 15 20 14  0.0040000  0  7  2  7 27 12  9  4 26
  22662184.146    -9269183.485 8  -7161816.474 6
  21689240.102   -16858252.721 8 -14181733.584 9
  24716875.253     7407794.224 5   7210351.889 2
  24831445.618    -4873381.013 6  -4621962.428 2
  24135509.984    -8654940.436 7  -7818603.753 4
  23693711.205   -12194453.963 6  -9236743.420 4
  24440233.638    -5510986.781 6  -5295401.578 3
 94  5 15 20 14 30.0040000  0  7  2  7 27 12  9  4 26
  22670536.334    -9225283.516 8  -7127608.732 6
  21698251.743   -16810900.819 8 -14144836.007 9
  24740232.533     7530509.720 5   7305974.205 2
  24816531.932    -4951757.718 6  -4683035.174 2
  24121126.392    -8730533.791 7  -7877507.632 4
  23678489.693   -12274448.742 7  -9299076.955 4
  24452740.980    -5445254.834 6  -5244181.927 3
 94  5 15 20 15  0.0040000  0  7  2  7 27 12  9  4 26
  22678936.189    -9181152.331 8  -7093220.810 6
  21707320.824   -16763238.364 8 -14107696.447 9
  24763627.318     7653461.640 5   7401780.760 2
  24801624.093    -5030087.109 6  -4744071.011 2
  24106787.618    -8805877.426 7  -7936216.963 4
  23663312.250   -12354201.455 7  -9361221.868 4
  24465314.635    -5379189.556 6  -5192702.553 3
 94  5 15 20 15 30.0040000  0  8  2  7 27 12  9  4 24 26
  22687378.315    -9136780.917 8  -7058645.713 6
  21716451.364   -16715254.024 8 -14070306.054 9
  24787070.068     7776636.115 5   7497760.741 2
  24786733.192    -5108361.820 5  -4805064.298 2
  24092501.848    -8880955.769 7  -7994719.550 4
  23648184.363   -12433702.519 7  -9423170.694 4
  25753055.361    -3023477.41414  -2354048.854 2
  24477951.817    -5312788.664 6  -5140961.686 3
 94  5 15 20 16  0.0040000  0  8  2  7 27 12  9  4 24 26
  22695865.979    -9092176.272 8  -7023888.872 6
  21725650.225   -16666922.628 8 -14032645.242 9
  24810545.047     7900025.752 5   7593908.348 2
  24771841.241    -5186576.601 5  -4866010.828 2
  24078265.094    -8955759.342 7  -8053008.040 4
  23633102.973   -12512953.154 7  -9484924.394 4
  25734785.799    -3119511.922 4  -2428880.732 2
  24490655.072    -5246038.348 6  -5088948.509 3
 94  5 15 20 16 30.0040000  0  8  2  7 27 12  9  4 24 26
  22704396.783    -9047360.984 8  -6988967.906 6
  21734914.622   -16618231.705 8 -13994704.282 9
  24834060.498     8023583.956 5   7690187.311 2
  24756976.482    -5264735.879 5  -4926914.126 2
  24064080.114    -9030293.749 7  -8111086.771 4
  23618072.728   -12591954.371 7  -9546483.730 4
  25716493.602    -3215592.609 4  -2503748.580 2
  24503419.456    -5178940.950 6  -5036664.869 3
 94  5 15 20 17  0.0040000  0  8  2  7 27 12  9  4 24 26
  22712963.952    -9002329.522 8  -6953878.463 6
  21744248.810   -16569180.043 8 -13956482.228 9
  24857594.925     8147285.680 5   7786578.145 2
  24742109.624    -5342839.234 6  -4987773.849 2
  24049948.797    -9104566.326 7  -8168961.483 4
  23603083.555   -12670701.751 7  -9607845.263 4
  25698204.673    -3311722.235 4  -2578654.616 2
  24516247.875    -5111516.393 6  -4984126.338 3
 94  5 15 20 17 30.0040000  0  8  2  7 27 12  9  4 24 26
  22721576.270    -8957069.878 8  -6918611.253 6
  21753651.021   -16519779.162 8 -13917988.036 9
  24881167.576     8271134.491 5   7883083.585 2
  24727256.796    -5420880.671 6  -5048585.315 2
  24035865.177    -9178578.720 7  -8226633.491 4
  23588151.792   -12749176.795 7  -9668994.590 4
  25679903.453    -3407900.453 4  -2653598.487 2
  24529141.499    -5043769.996 6  -4931336.996 3
 94  5 15 20 18  0.0040000  0  8  2  7 27 12  9  4 24 26
  22730231.878    -8911593.354 8  -6883175.020 6
  21763113.430   -16470057.275 8 -13879243.727 9
  24904760.493     8395122.114 5   7979697.166 2
  24712420.337    -5498867.553 6  -5109354.294 2
  24021825.596    -9252346.441 7  -8284114.811 4
  23573269.795   -12827395.343 7  -9729944.058 4
  25661590.211    -3504123.709 4  -2728577.450 2
  24542087.646    -4975732.928 6  -4878321.161 3
 94  5 15 20 18 30.0040000  0  8  2  7 27 12  9  4 24 26
  22738926.878    -8865902.115 8  -6847571.488 6
  21772628.393   -16420043.252 8 -13840271.779 9
  24928379.822     8519246.887 5   8076417.660 2
  24697588.435    -5576802.732 6  -5170082.977 2
  24007832.693    -9325880.323 7  -8341413.921 4
  23558431.867   -12905352.477 7  -9790689.836 4
  25643271.842    -3600379.506 5  -2803581.805 2
  24555089.735    -4907434.237 6  -4825101.486 3
 94  5 15 20 19  0.0040000  0  8  2  7 27 12  9  4 24 26
  22747663.880    -8819990.208 8  -6811796.006 6
  21782203.075   -16369730.078 8 -13801066.712 9
  24952028.200     8643537.018 5   8173266.939 2
  24682772.782    -5654669.506 6  -5230758.366 2
  23993889.196    -9399159.396 7  -8398514.486 4
  23543650.300   -12983026.482 7  -9851214.970 4
  25624953.774    -3696661.684 5  -2878606.726 2
  24568134.754    -4838866.624 6  -4771672.241 3
 94  5 15 20 19 30.0040000  0  8  2  7 27 12  9  4 24 26
  22756440.004    -8773869.807 8  -6775858.054 6
  21791840.173   -16319099.048 8 -13761613.977 9
  24975720.828     8768018.148 5   8270265.073 2
  24667968.521    -5732456.645 6  -5291371.703 2
  23979995.854    -9472167.608 7  -8455403.967 4
  23528928.452   -13060403.185 7  -9911508.456 4
  25606624.613    -3792959.834 5  -2953644.085 2
  24581240.331    -4770015.605 6  -4718022.162 3
 94  5 15 20 20  0.0040000  0  8  2  7 27 12  9  4 24 26
  22765256.511    -8727535.670 8  -6739753.554 6
  21801537.080   -16268140.717 8 -13721906.200 9
  24999450.241     8892690.430 5   8367412.162 2
  24653189.352    -5810160.059 6  -5351919.758 2
  23966158.993    -9544886.710 7  -8512068.196 4
  23514263.264   -13137477.091 7  -9971565.992 4
  25588303.306    -3889263.730 5  -3028685.908 2
  24594397.983    -4700870.155 6  -4664142.662 3
 94  5 15 20 20 30.0040000  0  8  2  7 27 12  9  4 24 26
  22774112.410    -8680995.972 8  -6703488.895 6
  21811294.875   -16216849.501 8 -13681939.029 9
  25023199.649     9017538.002 5   8464695.872 2
  24638412.642    -5887789.585 6  -5412410.285 2
  23952371.748    -9617321.179 7  -8568510.617 4
  23499653.748   -13214245.253 7 -10031385.266 5
  25569970.758    -3985584.438 5  -3103740.827 2
  24607611.935    -4631419.653 6  -4610025.419 3
 94  5 15 20 21  0.0040000  0  8  2  7 27 12  9  4 24 26
  22783007.852    -8634257.657 7  -6667069.454 6
  21821121.922   -16165210.478 8 -13641700.856 9
  25046987.491     9142556.912 5   8562113.072 2
  24623649.482    -5965351.890 6  -5472848.406 3
  23938642.303    -9689483.045 7  -8624740.631 4
  23485100.683   -13290720.279 7 -10090976.144 5
  25551636.500    -4081922.106 5  -3178808.973 2
  24620886.055    -4561660.985 6  -4555668.130 3
 94  5 15 20 21 30.0040000  0  8  2  7 27 12  9  4 24 26
  22791939.838    -8587313.248 7  -6630489.412 6
  21831010.966   -16113239.590 8 -13601204.057 9
  25070822.311     9267741.656 5   8659659.415 2
  24608900.023    -6042852.267 6  -5533238.279 3
  23924957.736    -9761398.883 7  -8680778.930 5
  23470600.381   -13366904.303 7 -10150340.277 5
  25533308.179    -4178264.203 5  -3253880.584 2
  24634218.575    -4491603.581 6  -4501077.982 3
 94  5 15 20 22  0.0040000  0  8  2  7 27 12  9  4 24 26
  22800918.233    -8540141.591 7  -6593732.319 6
  21840965.694   -16060946.615 8 -13560456.310 9
  25094668.403     9393074.736 5   8757321.412 2
  24594166.693    -6120285.851 6  -5593576.105 3
  23911320.148    -9833064.633 7  -8736622.365 4
  23456157.370   -13442797.043 7 -10209477.418 5
  25514970.204    -4274598.666 5  -3328946.246 2
  24647608.776    -4421242.084 6  -4446250.936 3
 94  5 15 20 22 30.0040000  0  8  2  7 27 12  9  4 24 26
  22809933.951    -8492753.862 7  -6556806.853 6
  21850973.366   -16008336.073 8 -13519461.091 9
  25118544.743     9518548.065 5   8855092.683 2
  24579444.395    -6197651.425 6  -5653860.956 3
  23897729.086    -9904491.341 7  -8792279.519 5
  23441771.829   -13518406.737 7 -10268394.000 5
  25496649.857    -4370930.401 5  -3404009.775 2
  24661052.009    -4350584.063 5  -4391192.795 3
 94  5 15 20 23  0.0040000  0  8  2  7 27 12  9  4 24 26
  22818988.193    -8445164.368 7  -6519724.146 6
  21861042.405   -15955427.865 8 -13478233.933 9
  25142442.429     9644160.795 5   8952972.561 2
  24564732.350    -6274949.462 6  -5714093.157 3
  23884180.236    -9975675.129 7  -8847747.379 5
  23427436.233   -13593745.120 7 -10327099.186 5
  25478316.319    -4467259.406 5  -3479071.245 2
  24674549.745    -4279648.909 5  -4335918.715 3
 94  5 15 20 23 30.0040000  0  8  2  7 27 12  9  4 24 26
  22828086.654    -8397376.199 7  -6482486.666 6
  21871161.900   -15902243.815 8 -13436791.825 9
  25166372.703     9769892.818 5   9050945.418 2
  24550043.898    -6352175.914 6  -5774269.591 3
  23870688.436   -10046590.543 7  -8903006.130 5
  23413150.673   -13668809.021 7 -10385590.511 5
  25459979.093    -4563584.889 5  -3554129.913 1
  24688106.629    -4208444.503 5  -4280434.862 3
 94  5 15 20 24  0.0040000  0  8  2  7 27 12  9  4 24 26
  22837211.767    -8349400.936 7  -6445103.372 6
  21881337.126   -15848773.674 8 -13395126.792 9
  25190320.634     9895740.284 5   9149008.179 2
  24535359.434    -6429328.745 6  -5834388.655 3
  23857249.040   -10117205.534 7  -8958030.779 5
  23398920.215   -13743604.229 7 -10443872.443 5
  25441644.806    -4659919.765 4  -3629195.907 2
  24701700.988    -4136976.689 5  -4224745.713 3
 94  5 15 20 24 30.0040000  0  8  2  7 27 12  9  4 24 26
  22846376.752    -8301245.809 7  -6407579.918 6
  21891568.083   -15795011.936 8 -13353234.545 9
  25214293.028    10021723.718 5   9247176.963 2
  24520691.908    -6506404.938 6  -5894447.983 3
  23843870.652   -10187517.391 7  -9012819.207 5
  23384738.382   -13818119.603 7 -10501936.300 5
  25423311.897    -4756275.939 5  -3704278.428 2
  24715350.929    -4065259.934 5  -4168862.592 3
 94  5 15 20 25  0.0040000  0  8  2  7 27 12  9  4 24 26
  22855577.683    -8252897.093 7  -6369905.611 6
  21901854.711   -15740962.988 8 -13311118.496 9
  25238293.813    10147840.910 5   9345450.004 2
  24506037.363    -6583404.934 6  -5954447.946 3
  23830549.794   -10257514.244 7  -9067362.184 5
  23370614.230   -13892344.455 7 -10559773.798 5
  25404975.392    -4852643.939 5  -3779370.289 2
  24729043.979    -3993303.950 5  -4112793.096 3
 94  5 15 20 25 30.0040000  0  8  2  7 27 12  9  4 24 26
  22864818.995    -8204329.608 7  -6332060.861 6
  21912195.812   -15686624.281 8 -13268776.648 9
  25262313.874    10274086.765 5   9443823.191 2
  24491399.187    -6660327.264 6  -6014387.382 3
  23817291.562   -10327192.694 7  -9121657.091 5
  23356546.709   -13966256.771 7 -10617367.778 5
  25386639.335    -4949027.085 5  -3854473.928 2
  24742775.073    -3921106.596 5  -4056535.476 3
 94  5 15 20 26  0.0040000  0  8  2  7 27 12  9  4 24 26
  22874106.955    -8155528.738 7  -6294034.240 6
  21922590.726   -15631995.144 8 -13226208.500 9
  25286364.484    10400474.228 5   9542306.777 2
  24476777.559    -6737167.942 6  -6074263.187 3
  23804087.863   -10396571.741 7  -9175718.653 5
  23342546.971   -14039839.120 7 -10674704.616 5
  25368287.300    -5045433.590 4  -3929595.687 2
  24756563.997    -3848654.318 5  -4000079.254 3
 94  5 15 20 26 30.0040000  0  8  2  7 27 12  9  4 24 26
  22883437.006    -8106481.765 7  -6255815.855 6
  21933037.984   -15577090.404 8 -13183425.598 9
  25310441.596    10527003.013 5   9640900.452 2
  24462172.570    -6813918.665 6  -6134068.930 3
  23790936.987   -10465666.547 7  -9229558.737 5
  23328610.579   -14113069.958 7 -10731767.568 5
  25349940.511    -5141840.913 5  -4004718.119 2
  24770406.404    -3775937.602 5  -3943416.967 3
 94  5 15 20 27  0.0040000  0  8  2  7 27 12  9  4 24 26
  22892821.020    -8057185.764 7  -6217403.417 6
  21943537.615   -15521916.977 8 -13140433.322 9
  25334545.449    10653655.331 5   9739590.366 2
  24447587.457    -6890572.302 6  -6193799.012 3
  23777846.429   -10534474.169 7  -9283175.062 5
  23314743.079   -14185941.848 7 -10788550.811 5
  25331599.089    -5238232.943 5  -4079828.597 2
  24784297.528    -3702943.041 5  -3886538.137 3
 94  5 15 20 27 30.0040000  0  8  2  7 27 12  9  4 24 26
  22902247.904    -8007651.357 7  -6178805.192 6
  21954084.793   -15466486.600 8 -13097240.841 9
  25358671.547    10780437.114 5   9838381.219 2
  24433015.266    -6967123.531 6  -6253449.316 3
  23764806.897   -10602999.160 7  -9336571.138 5
  23300946.061   -14258448.700 7 -10845049.612 5
  25313257.337    -5334620.378 5  -4154935.543 2
  24798242.194    -3629656.401 5  -3829431.772 3
 94  5 15 20 28  0.0040000  0  8  2  7 27 12  9  4 24 26
  22911713.281    -7957903.164 7  -6140040.392 6
  21964683.476   -15410801.270 8 -13053849.679 9
  25382826.395    10907346.182 5   9937271.214 2
  24418472.064    -7043572.006 6  -6313019.514 3
  23751818.208   -10671253.034 7  -9389755.956 5
  23287211.879   -14330616.727 7 -10901284.373 5
  25294917.833    -5430990.160 5  -4230028.770 2
  24812244.211    -3556089.114 5  -3772106.686 3
 94  5 15 20 28 30.0040000  0  8  2  7 27 12  9  4 24 26
  22921218.920    -7907945.745 7  -6101112.576 6
  21975329.736   -15354850.814 8 -13010251.935 9
  25406995.423    11034375.524 4  10036255.002 2
  24403944.181    -7119918.573 6  -6372510.323 3
  23738883.393   -10739213.496 7  -9442712.151 5
  23273541.972   -14402466.312 7 -10957271.018 5
  25276585.584    -5527326.629 5  -4305095.973 2
  24826288.648    -3482262.896 5  -3714579.836 3
 94  5 15 20 29  0.0040000  0  8  2  7 27 12  9  4 24 26
  22930768.359    -7857772.244 7  -6062016.361 6
  21986030.318   -15298621.368 8 -12966436.791 9
  25431197.878    11161524.672 4  10135332.034 2
  24389433.417    -7196165.452 6  -6431923.460 3
  23726010.155   -10806861.735 7  -9495425.045 5
  23259922.491   -14474018.973 7 -11013026.290 5
  25258255.793    -5623638.332 5  -4380143.975 2
  24840390.226    -3408189.353 5  -3656860.276 3
 94  5 15 20 29 30.0040000  0  8  2  7 27 12  9  4 24 26
  22940357.671    -7807374.029 7  -6022745.033 6
  21996783.843   -15242105.905 8 -12922398.785 9
  25455415.772    11288800.459 4  10234507.794 2
  24374946.036    -7272311.910 6  -6491258.330 3
  23713198.554   -10874201.372 7  -9547897.466 5
  23246364.497   -14545284.117 7 -11068557.547 5
  25239933.528    -5719922.465 5  -4455170.429 2
  24854528.348    -3333876.178 5  -3598953.950 3
 94  5 15 20 30  0.0040000  0  8  2  7 27 12  9  4 24 26
  22949991.442    -7756751.246 7  -5983298.754 6
  22007595.049   -15185287.217 8 -12878124.501 9
  25479657.170    11416195.006 4  10333776.064 2
  24360472.446    -7348356.416 6  -6550513.779 3
  23700443.644   -10941226.398 7  -9600124.754 5
  23232855.968   -14616262.777 7 -11123865.543 5
  25221618.157    -5816168.260 5  -4530167.014 2
  24868711.559    -3259341.524 5  -3540875.122 2
 94  5 15 20 30 30.0040000  0  8  2  7 27 12  9  4 24 26
  22959667.603    -7705890.912 7  -5943667.355 6
  22018466.513   -15128169.471 8 -12833617.175 9
  25503924.890    11543710.115 3  10433138.361 2
  24346022.989    -7424295.357 6  -6609686.945 3
  23687752.050   -11007915.151 7  -9652090.005 5
  23219411.206   -14686924.266 7 -11178926.400 5
  25203314.239    -5912388.549 5  -4605143.700 2
  24882933.923    -3184578.567 6  -3482618.343 2
 94  5 15 20 31  0.0040000  0  8  2  7 27 12  9  4 24 26
  22969390.622    -7654801.912 7  -5903857.769 6
  22029388.672   -15070771.012 8 -12788891.115 9
  25528211.917    11671337.045 4  10532587.636 2
  24331592.179    -7500125.035 6  -6668774.986 3
  23675119.636   -11074293.269 7  -9703813.186 5
  23206028.681   -14757244.545 7 -11233721.404 5
  25185008.312    -6008585.244 5  -4680101.974 2
  24897211.749    -3109580.617 6  -3424178.489 2
 94  5 15 20 31 30.0040000  0  8  2  7 27 12  9  4 24 26
  22979155.192    -7603491.768 7  -5863875.863 6
  22040362.634   -15013099.254 8 -12743952.092 9
  25552508.267    11799064.866 4  10632115.720 2
  24317183.194    -7575841.695 6  -6727774.937 3
  23662549.128   -11140360.705 7  -9755294.324 5
  23192716.666   -14827200.745 7 -11288232.680 5
  25166708.950    -6104748.389 5  -4755034.140 2
  24911528.937    -3034339.797 5  -3365549.356 2
 94  5 15 20 32  0.0040000  0  8  2  7 27 12  9  4 24 26
  22988963.981    -7551950.575 7  -5823713.921 6
  22051390.410   -14955144.565 8 -12698792.599 9
  25576852.374    11926904.028 4  10731730.510 2
  24302800.531    -7651432.997 6  -6786677.237 3
  23650041.337   -11206079.561 7  -9806503.784 5
  23179477.741   -14896767.263 7 -11342440.302 6
  25148415.824    -6200853.593 5  -4829921.210 2
  24925889.266    -2958853.715 6  -3306729.099 3
 94  5 15 20 32 30.0040000  0  8  2  7 27 12  9  4 24 26
  22998816.990    -7500162.720 7  -5783359.762 6
  22062473.108   -14896906.380 8 -12653412.206 9
  25601192.853    12054860.696 4  10831436.831 2
  24288440.622    -7726893.672 6  -6845477.721 3
  23637605.316   -11271444.975 7  -9857437.850 5
  23166316.943   -14965942.408 7 -11396342.974 6
  25130146.232    -6296886.648 5  -4904751.987 2
  24940304.427    -2883115.069 5  -3247712.069 2
 94  5 15 20 33  0.0040000  0  8  2  7 27 12  9  4 24 26
  23008720.304    -7448129.982 7  -5742814.801 6
  22073611.986   -14838379.377 8 -12607806.771 9
  25625564.691    12182928.936 4  10931230.038 2
  24274106.766    -7802219.274 6  -6904172.993 3
  23625231.652   -11336458.820 7  -9908098.003 5
  23153224.586   -15034733.812 7 -11449946.626 6
  25111888.212    -6392827.770 5  -4979511.182 2
  24954763.237    -2807124.820 6  -3188498.984 2
 94  5 15 20 33 30.0040000  0  8  2  7 27 12  9  4 24 26
  23018664.990    -7395852.349 7  -5702079.013 6
  22084803.209   -14779560.951 8 -12561974.227 9
  25649952.507    12311121.173 5  11031119.898 2
  24259794.973    -7877412.807 6  -6962765.324 3
  23612931.228   -11401098.817 7  -9958466.795 5
  23140204.030   -15103151.846 7 -11503259.322 6
  25093644.192    -6488681.507 5  -5054202.219 2
  24969273.432    -2730901.100 5  -3129103.945 2
 94  5 15 20 34  0.0040000  0  8  2  7 27 12  9  4 24 26
  23028666.306    -7343331.298 7  -5661153.543 6
  22096046.595   -14720474.257 8 -12515932.664 9
  25674376.479    12439435.942 5  11131105.272 2
  24245511.332    -7952482.708 6  -7021261.325 3
  23600696.818   -11465394.734 7 -10008567.495 5
  23127253.985   -15171218.012 7 -11556297.839 6
  25075407.307    -6584478.161 5  -5128848.893 2
  24983812.976    -2654479.178 5  -3069554.467 2
 94  5 15 20 34 30.0040000  0  8  2  7 27 12  9  4 24 26
  23038704.347    -7290570.821 7  -5620041.490 6
  22107338.068   -14661136.840 8 -12469695.732 9
  25698808.545    12567852.280 5  11231169.845 2
  24231249.905    -8027432.311 6  -7079663.593 3
  23588520.717   -11529372.512 7 -10058420.298 5
  23114364.618   -15238936.088 7 -11609065.139 6
  25057192.097    -6680238.654 5  -5203467.274 2
  24998393.382    -2577867.115 5  -3009856.865 2
 94  5 15 20 35  0.0040000  0  8  2  7 27 12  9  4 24 26
  23048785.977    -7237579.075 7  -5578749.266 5
  22118674.151   -14601564.911 8 -12423276.054 9
  25723257.489    12696362.938 5  11331307.820 2
  24217010.632    -8102256.775 6  -7137968.332 4
  23576406.643   -11593042.084 7 -10108032.924 5
  23101545.313   -15306298.450 7 -11661555.243 6
  25038972.360    -6775980.840 5  -5278071.447 2
  25013005.836    -2501071.518 5  -2950016.226 2
 94  5 15 20 35 30.0040000  0  8  2  7 27 12  9  4 24 26
  23058913.806    -7184347.106 7  -5537269.843 5
  22130055.202   -14541766.817 8 -12376680.152 9
  25747740.220    12824972.173 5  11431522.658 2
  24202795.194    -8176955.396 6  -7196175.036 4
  23564349.680   -11656408.251 7 -10157409.142 5
  23088797.538   -15373298.975 7 -11713763.405 6
  25020755.172    -6871721.906 5  -5352674.756 2
  25027652.347    -2424101.008 5  -2890039.298 2
 94  5 15 20 36  0.0040000  0  8  2  7 27 12  9  4 24 26
  23069096.827    -7130865.412 7  -5495595.804 5
  22141475.975   -14481741.102 8 -12329906.882 9
  25772229.217    12953653.645 4  11531793.781 2
  24188605.057    -8251524.798 6  -7254281.026 4
  23552346.770   -11719482.188 7 -10206557.658 5
  23076117.726   -15439929.367 7 -11765683.144 6
  25002537.503    -6967447.974 5  -5427266.365 2
  25042329.736    -2346939.811 5  -2829913.786 2
 94  5 15 20 36 30.0040000  0  8  2  7 27 12  9  4 24 26
  23079313.754    -7077158.037 7  -5453745.931 5
  22152945.795   -14421479.596 8 -12282949.871 9
  25796722.291    13082392.496 4  11632109.603 2
  24174437.135    -8325963.474 6  -7312285.149 4
  23540405.406   -11782244.906 7 -10255463.655 5
  23063510.914   -15506180.197 7 -11817307.120 6
  24984331.048    -7063130.158 5  -5501823.771 2
  25057056.201    -2269561.747 5  -2769619.272 2
 94  5 15 20 37  0.0040000  0  8  2  7 27 12  9  4 24 26
  23089576.099    -7023223.497 7  -5411719.062 5
  22164458.725   -14360980.081 8 -12235807.407 9
  25821237.040    13211196.911 4  11732476.490 2
  24160297.784    -8400265.543 6  -7370182.862 4
  23528521.184   -11844679.971 7 -10304114.330 5
  23050973.143   -15572055.313 7 -11868638.330 6
  24966130.737    -7158750.798 5  -5576333.256 2
  25071826.766    -2191959.405 5  -2709149.984 2
 94  5 15 20 37 30.0040000  0  8  2  7 27 12  9  4 24 26
  23099885.902    -6969046.598 7  -5369503.298 5
  22176016.803   -14300228.742 8 -12188468.726 9
  25845756.435    13340070.785 4  11832897.508 2
  24146186.073    -8474422.949 6  -7427967.813 4
  23516707.742   -11906754.624 7 -10352484.190 5
  23038509.931   -15637557.182 7 -11919678.705 6
  24947956.899    -7254266.865 5  -5650761.232 2
  25086638.342    -2114126.237 5  -2648500.927 2
 94  5 15 20 38  0.0040000  0  8  2  7 27 12  9  4 24 26
  23110239.174    -6914643.241 7  -5327111.116 5
  22187625.546   -14239212.202 8 -12140923.379 9
  25870294.868    13469008.931 4  11933368.569 2
  24132104.941    -8548427.683 6  -7485633.797 4
  23504966.550   -11968458.870 7 -10400565.414 5
  23026117.740   -15702683.031 7 -11970426.060 6
  24929808.693    -7349652.971 5  -5725087.961 2
  25101489.670    -2036062.582 5  -2587672.188 2
 94  5 15 20 38 30.0040000  0  8  2  7 27 12  9  4 24 26
  23120632.589    -6860027.208 7  -5284553.201 5
  22199289.002   -14177927.443 8 -12093169.026 9
  25894845.591    13598032.946 4  12033906.617 2
  24118054.868    -8622275.001 6  -7543177.145 4
  23493300.846   -12029767.038 7 -10448337.996 5
  23013794.382   -15767429.423 7 -12020877.759 6
  24911678.384    -7444920.303 5  -5799322.156 2
  25116387.047    -1957781.474 5  -2526674.032 2
 94  5 15 20 39  0.0040000  0  8  2  7 27 12  9  4 24 26
  23131070.853    -6805173.083 7  -5241809.736 5
  22211006.780   -14116360.357 8 -12045194.698 9
  25919426.624    13727169.898 4  12134532.630 2
  24104031.146    -8695953.976 6  -7600589.311 4
  23481711.170   -12090666.296 7 -10495791.957 5
  23001552.147   -15831783.266 7 -12071023.562 6
  24893571.729    -7540064.513 5  -5873460.360 2
  25131325.735    -1879295.185 5  -2465515.947 2
 94  5 15 20 39 30.0040000  0  8  2  7 27 12  9  4 24 26
  23141551.537    -6750101.317 7  -5198896.702 5
  22222776.272   -14054504.227 8 -11996995.135 9
  25944007.717    13856412.065 3  12235240.659 2
  24090045.169    -8769470.037 7  -7657874.542 4
  23470199.529   -12151162.320 7 -10542931.698 5
  22989380.123   -15895736.284 7 -12120857.050 6
  24875490.796    -7635098.235 5  -5947512.510 2
  25146295.062    -1800607.850 5  -2404201.214 2
 94  5 15 20 40  0.0040000  0  8  2  7 27 12  9  4 24 26
  23152069.366    -6694820.224 7  -5155820.562 5
  22234601.765   -13992369.193 8 -11948578.227 9
  25968635.937    13985745.748 3  12336019.913 2
  24076082.245    -8842830.790 7  -7715038.732 4
  23458761.727   -12211273.709 7 -10589771.703 6
  22977288.354   -15959279.279 7 -12170371.020 6
  24857422.544    -7730049.836 5  -6021500.632 2
  25161309.658    -1721730.378 5  -2342738.379 2
 94  5 15 20 40 30.0040000  0  7  2  7 12  9  4 24 26
  23162634.412    -6639311.056 7  -5112566.697 5
  22246474.176   -13929974.241 8 -11899958.812 9
  24062152.119    -8916039.773 7  -7772084.670 4
  23447394.946   -12271000.475 7 -10636312.049 6
  22965274.981   -16022412.828 7 -12219565.955 6
  24839368.143    -7824924.845 5  -6095429.090 2
  25176351.355    -1642673.642 5  -2281135.794 2
 94  5 15 20 41  0.0040000  0  7  2  7 12  9  4 24 26
  23173240.859    -6583558.429 7  -5069123.092 5
  22258394.224   -13867335.193 8 -11851149.162 9
  24048250.413    -8989095.590 7  -7829011.238 4
  23436099.726   -12330363.067 7 -10682568.609 6
  22953337.545   -16085135.683 7 -12268440.852 6
  24821326.034    -7919711.648 5  -6169288.813 2
  25191435.982    -1563443.225 5  -2219397.921 2
 94  5 15 20 41 30.0040000  0  7  2  7 12  9  4 24 26
  23183898.511    -6527563.850 7  -5025490.999 5
  22270356.603   -13804465.273 8 -11802159.633 9
  24034377.966    -9061996.510 7  -7885817.117 4
  23424872.888   -12389360.912 8 -10728540.936 6
  22941481.383   -16147446.981 7 -12316995.068 6
  24803306.079    -8014415.917 5  -6243084.259 2
  25206542.554    -1484049.277 5  -2157532.589 2
 94  5 15 20 42  0.0040000  0  7  2  7 12  9  4 24 26
  23194602.481    -6471311.118 7  -4981657.729 5
  22282361.792   -13741379.761 8 -11753002.093 8
  24020532.831    -9134739.168 7  -7942499.669 4
  23413712.844   -12447998.981 8 -10774232.941 6
  22929699.120   -16209350.828 7 -12365231.783 6
  24785298.475    -8109035.807 5  -6316813.949 2
  25221676.287    -1404510.799 5  -2095554.655 2
 94  5 15 20 42 30.0040000  0  8  2  7  5 12  9  4 24 26
  23205351.509    -6414811.695 7  -4937632.214 5
  22294408.622   -13678081.518 8 -11703678.809 8
  26107649.191    -2583705.67813   -758845.267 1
  24006721.932    -9207322.740 7  -7999058.270 4
  23402622.292   -12506283.183 8 -10819649.188 6
  22917996.451   -16270856.630 7 -12413158.330 6
  24767311.437    -8203576.162 5  -6390481.590 2
  25236840.359    -1324820.163 5  -2033458.179 2
 94  5 15 20 43  0.0040000  0  8  2  7  5 12  9  4 24 26
  23216152.522    -6358076.861 7  -4893423.287 5
  22306493.076   -13614564.842 8 -11654185.304 8
  26094577.610    -2652445.433 3   -812408.689 1
  23992941.043    -9279741.542 7  -8055488.487 4
  23391598.503   -12564212.549 8 -10864788.943 6
  22906369.780   -16331964.231 7 -12460774.595 6
  24749331.744    -8298039.390 5  -6464089.183 3
  25252027.425    -1244965.371 5  -1971233.764 2
 94  5 15 20 43 30.0040000  0  8  2  7  5 12  9  4 24 26
  23226991.009    -6301103.796 7  -4849028.725 5
  22318624.508   -13550820.075 8 -11604514.063 8
  26081463.578    -2721221.006 3   -865999.885 2
  23979193.640    -9351990.603 7  -8111786.421 4
  23380644.477   -12621777.646 7 -10909644.845 6
  22894812.631   -16392679.420 7 -12508085.078 6
  24731370.279    -8392420.636 5  -6537632.880 3
  25267260.300    -1164941.236 5  -1908877.435 2
 94  5 15 20 44  0.0040000  0  8  2  7  5 12  9  4 24 26
  23237881.779    -6243892.738 7  -4804448.713 5
  22330799.499   -13486848.789 8 -11554666.335 8
  26068396.734    -2790027.763 3   -919615.520 2
  23965474.088    -9424065.529 7  -8167948.685 4
  23369761.471   -12678976.942 7 -10954215.714 6
  22883336.576   -16452997.537 7 -12555086.180 6
  24713432.707    -8486705.765 5  -6611101.680 3
  25282531.817    -1084732.451 5  -1846377.171 2
 94  5 15 20 44 30.0040000  0  8  2  7  5 12  9  4 24 26
  23248812.662    -6186442.976 7  -4759682.670 5
  22343016.581   -13422651.157 8 -11504642.207 8
  26055283.093    -2858868.741 3   -973257.740 2
  23951795.547    -9495964.316 7  -8223973.696 4
  23358948.377   -12735800.618 7 -10998493.894 6
  22871938.796   -16512902.951 7 -12601765.672 6
  24695515.820    -8580882.536 5  -6684486.086 2
  25297830.317    -1004336.207 5  -1783730.886 2
 94  5 15 20 45  0.0040000  0  8  2  7  5 12  9  4 24 26
  23259791.541    -6128742.380 7  -4714721.226 5
  22355276.444   -13358228.484 8 -11454442.740 8
  26042188.848    -2927729.607 4  -1026915.469 2
  23938146.266    -9567684.268 7  -8279859.341 4
  23348206.513   -12792232.917 7 -11042467.103 6
  22860620.012   -16572386.775 7 -12648116.646 6
  24677615.422    -8674928.350 5  -6757768.459 2
  25313160.803     -923781.105 5  -1720960.755 2
 94  5 15 20 45 30.0040000  0  8  2  7  5 12  9  4 24 26
  23270821.595    -6070788.094 7  -4669562.070 5
  22367577.079   -13293580.875 8 -11404067.986 8
  26029075.056    -2996603.689 4  -1080583.564 2
  23924532.960    -9639223.197 7  -8335603.931 4
  23337543.765   -12848264.386 7 -11086127.986 6
  22849380.433   -16631436.660 7 -12694129.495 6
  24659742.665    -8768836.888 6  -6830943.824 2
  25328511.316     -843071.845 5  -1658070.567 2
 94  5 15 20 46  0.0040000  0  8  2  7  5 12  9  4 24 26
  23281896.169    -6012591.923 7  -4624214.413 5
  22379921.033   -13228709.371 8 -11353518.792 8
  26015970.199    -3065503.804 4  -1134271.914 2
  23910954.461    -9710578.912 7  -8391205.758 4
  23326960.911   -12903885.736 7 -11129469.273 6
  22838233.070   -16690034.982 7 -12739790.503 6
  24641900.427    -8862613.684 6  -6904016.549 2
  25343907.878     -762206.483 5  -1595058.676 2
 94  5 15 20 46 30.0040000  0  8  2  7  5 12  9  4 24 26
  23293018.439    -5954153.677 7  -4578678.173 5
  22392310.196   -13163605.126 8 -11302788.227 8
  26002849.332    -3134442.084 4  -1187989.961 2
  23897410.587    -9781750.306 7  -8446663.967 4
  23316454.025   -12959097.345 7 -11172491.297 6
  22827164.883   -16748187.414 7 -12785104.041 6
  24624076.177    -8956267.232 6  -6976993.205 2
  25359312.473     -681202.853 5  -1531939.127 2
 94  5 15 20 47  0.0040000  0  8  2  7  5 12  9  4 24 26
  23304178.003    -5895486.120 7  -4532963.223 5
  22404739.112   -13098266.523 8 -11251875.041 8
  25989727.086    -3203433.164 5  -1241749.187 2
  23883903.168    -9852735.091 7  -8501976.757 4
  23306031.140   -13013896.507 7 -11215191.919 6
  22816177.819   -16805909.444 7 -12830082.188 6
  24606276.359    -9049801.023 6  -7049876.558 2
  25374761.378     -600061.769 5  -1468712.394 2
 94  5 15 20 47 30.0040000  0  8  2  7  5 12  9  4 24 26
  23315384.395    -5836601.537 7  -4487079.139 5
  22417219.772   -13032703.210 8 -11200786.751 8
  25976580.647    -3272507.840 5  -1295573.663 2
  23870432.443    -9923532.881 7  -8557143.841 4
  23295675.919   -13068289.806 8 -11257576.293 6
  22805273.797   -16863208.786 7 -12874730.988 6
  24588497.647    -9143225.189 6  -7122674.481 2
  25390226.502     -518763.420 5  -1405363.134 2
 94  5 15 20 48  0.0040000  0  8  2  7  5 12  9  4 24 26
  23326633.747    -5777484.212 7  -4441013.734 5
  22429738.595   -12966919.683 8 -11149526.872 8
  25963421.078    -3341674.325 5  -1349469.516 2
  23856994.366    -9994139.905 7  -8612162.269 5
  23285402.152   -13122285.763 7 -11299651.044 6
  22794451.080   -16920091.387 7 -12919055.051 6
  24570743.788    -9236527.073 6  -7195377.192 2
  25405726.911     -437316.906 5  -1341898.420 2
 94  5 15 20 48 30.0040000  0  8  2  7  5 12  9  4 24 26
  23337933.345    -5718110.918 7  -4394748.867 5
  22442296.751   -12900922.459 8 -11098100.472 8
  25950241.721    -3410921.569 5  -1403428.334 2
  23843595.922   -10064550.374 7  -8667027.562 5
  23275202.672   -13175880.050 7 -11341412.795 6
  22783704.120   -16976568.997 7 -12963063.528 7
  24553014.032    -9329683.275 6  -7267966.331 2
  25421261.347     -355731.010 5  -1278325.106 2
 94  5 15 20 49  0.0040000  0  8  2  7  5 12  9  4 24 26
  23349279.920    -5658474.789 7  -4348279.183 5
  22454890.942   -12834730.049 8 -11046521.994 8
  25937051.963    -3480235.888 5  -1457439.457 2
  23830235.132   -10134760.202 7  -8721736.498 5
  23265082.788   -13229063.791 7 -11382854.667 6
  22773035.795   -17032633.926 7 -13006750.451 7
  24535319.142    -9422684.956 6  -7340435.048 2
  25436810.622     -273994.335 5  -1214634.313 2
 94  5 15 20 49 30.0040000  0  8  2  7  5 12  9  4 24 26
  23360680.517    -5598562.790 7  -4301594.523 5
  22467525.126   -12768347.127 8 -10994795.032 8
  25923848.983    -3549591.695 5  -1511482.968 2
  23816916.912   -10204766.613 7  -8776286.917 5
  23255039.291   -13281837.285 7 -11423976.846 6
  22762446.556   -17088270.692 7 -13050103.733 7
  24517654.861    -9515534.421 6  -7412785.152 2
  25452386.549     -192106.590 5  -1150825.773 2
 94  5 15 20 50  0.0040000  0  8  2  7  5 12  9  4 24 26
  23372134.658    -5538371.213 7  -4254692.040 5
  22480193.996   -12701772.740 8 -10942918.916 8
  25910648.251    -3618949.969 5  -1565528.283 2
  23803634.007   -10274566.671 7  -8830676.550 5
  23245075.629   -13334201.028 7 -11464779.758 6
  22751946.595   -17143459.935 7 -13093108.310 7
  24500014.713    -9608230.675 6  -7485015.891 3
  25467986.880     -110092.216 5  -1086918.627 2
 94  5 15 20 50 30.0040000  0  8  2  7  5 12  9  4 24 26
  23383640.782    -5477916.550 7  -4207584.535 5
  22492898.990   -12634999.845 8 -10890888.091 8
  25897463.109    -3688294.055 5  -1619562.554 2
  23790387.378   -10344155.994 7  -8884901.964 5
  23235192.341   -13386139.552 7 -11505251.330 6
  22741529.886   -17198193.150 7 -13135757.530 7
  24482405.144    -9700782.472 6  -7557134.092 3
  25483626.932      -27954.477 5  -1022915.253 2
 94  5 15 20 51  0.0040000  0  8  2  7  5 12  9  4 24 26
  23395193.315    -5417205.312 7  -4160277.081 5
  22505645.746   -12568011.966 8 -10838689.753 8
  25884268.044    -3757617.121 5  -1673580.587 2
  23777190.034   -10413522.834 7  -8938954.026 5
  23225391.826   -13437645.019 8 -11545385.438 6
  22731205.184   -17252435.883 7 -13178024.554 7
  24464813.982    -9793193.517 6  -7629142.594 3
  25499287.521       54310.043 5   -958813.191 2
 94  5 15 20 51 30.0040000  0  8  2  7  5 12  9  4 24 26
  23406796.242    -5356224.397 7  -4112759.536 5
  22518441.098   -12500780.955 8 -10786301.961 8
  25871078.585    -3826918.512 4  -1727581.595 2
  23764034.301   -10482653.893 7  -8992822.356 5
  23215672.584   -13488712.255 8 -11585178.091 6
  22720980.403   -17306173.925 7 -13219898.305 7
  24447263.861    -9885441.943 6  -7701024.370 3
  25514961.450      136695.385 5   -894616.873 2
 94  5 15 20 52  0.0040000  0  8  2  7  5 12  9  4 24 26
  23418451.333    -5294984.575 7  -4065040.218 5
  22531279.050   -12433312.034 8 -10733728.797 8
  25857891.464    -3896229.454 4  -1781589.999 2
  23750925.456   -10551554.296 7  -9046510.954 5
  23206037.495   -13539346.365 8 -11624633.221 6
  22710847.777   -17359429.870 7 -13261396.392 7
  24429736.495    -9977523.355 6  -7772776.015 3
  25530656.214      219188.240 5   -830336.833 2
 94  5 15 20 52 30.0040000  0  8  2  7  5 12  9  4 24 26
  23430152.533    -5233496.179 7  -4017127.213 5
  22544162.031   -12365613.329 8 -10680976.578 8
  25844693.971    -3965591.502 4  -1835638.305 2
  23737854.415   -10620229.813 7  -9100024.302 5
  23196485.177   -13589544.226 8 -11663748.430 6
  22700803.021   -17412216.242 7 -13302528.594 7
  24412245.194   -10069439.378 6  -7844398.810 3
  25546380.179      301796.040 5   -765967.270 2
 94  5 15 20 53  0.0040000  0  8  2  7  5 12  9  4 24 26
  23441900.500    -5171758.381 6  -3969019.880 5
  22557087.763   -12297686.488 8 -10628046.585 8
  25831471.984    -4035016.041 4  -1889735.373 1
  23724828.733   -10688679.133 7  -9153361.448 5
  23187016.413   -13639310.425 8 -11702527.270 6
  22690846.464   -17464524.843 7 -13343288.501 7
  24394788.459   -10161182.907 6  -7915887.150 3
  25562125.789      384526.116 4   -701502.322 2
 94  5 15 20 53 30.0040000  0  8  2  7  5 12  9  4 24 26
  23453694.125    -5109777.624 6  -3920723.197 5
  22570057.235   -12229538.864 8 -10574944.551 8
  25818261.869    -4104489.650 4  -1943870.596 1
  23711845.141   -10756897.725 7  -9206518.771 5
  23177626.403   -13688645.112 8 -11740969.872 6
  22680985.600   -17516365.530 7 -13383683.795 7
  24377362.813   -10252744.828 6  -7987234.006 3
  25577892.743      467394.939 4   -636929.391 2
 94  5 15 20 54  0.0040000  0  8  2  7  5 12  9  4 24 26
  23465533.229    -5047564.537 6  -3872245.488 5
  22583063.460   -12161183.214 8 -10521680.422 7
  25805027.921    -4174001.055 4  -1998035.221 2
  23698908.107   -10824882.273 7  -9259493.725 5
  23168319.886   -13737544.371 8 -11779073.186 6
  22671209.009   -17567727.491 7 -13423706.063 7
  24359975.870   -10344129.184 6  -8058442.509 3
  25593671.900      550413.302 3   -572239.870 1
 94  5 15 20 54 30.0040000  0  8  2  7  5 12  9  4 24 26
  23477414.994    -4985119.591 6  -3823587.129 4
  22596110.728   -12092622.069 8 -10468256.182 7
  25791801.258    -4243530.300 4  -2052213.782 1
  23686016.312   -10892631.755 7  -9312285.490 5
  23159096.111   -13786010.955 8 -11816839.348 6
  22661532.667   -17618582.966 7 -13463333.661 7
  24342619.865   -10435337.014 6  -8129513.476 3
  25609504.839      633568.777 3   -507443.539 1
 94  5 15 20 55  0.0040000  0  8  2  7  5 12  9  4 24 26
  23489342.626    -4922445.321 6  -3774750.071 4
  22609193.101   -12023872.780 8 -10414685.308 7
  25778563.412    -4313058.251 4  -2106391.418 1
  23673168.377   -10960151.587 7  -9364898.342 5
  23149954.660   -13834065.229 8 -11854284.233 6
  22651947.673   -17668945.310 7 -13502577.000 7
  24325294.829   -10526375.220 6  -8200452.228 3
  25625355.885      716844.956 3   -442553.166 2
 94  5 15 20 55 30.0040000  0  8  2  7  5 12  9  4 24 26
  23501313.789    -4859538.168 6  -3725731.531 4
  22622308.122   -11954952.796 8 -10360981.435 7
  25765334.590    -4382602.504 4  -2160581.663 2
  23660360.403   -11027450.647 7  -9417339.143 5
  23140887.707   -13881708.254 8 -11891408.659 6
  22642454.865   -17718839.878 7 -13541455.849 7
  24308002.920   -10617248.293 6  -8271262.308 3
  25641228.397      800217.804 4   -377587.494 2
 94  5 15 20 56  0.0040000  0  8  2  7  5 12  9  4 24 26
  23513332.499    -4796368.417 6  -3676508.365 4
  22635457.499   -11885855.786 8 -10307139.622 7
  25752093.627    -4452176.156 4  -2214794.837 2
  23647599.587   -11094526.045 7  -9469605.666 5
  23131903.377   -13928924.621 8 -11928200.640 6
  22633050.225   -17768264.500 7 -13579968.499 7
  24290741.619   -10707949.602 6  -8341938.570 3
  25657106.305      883667.769 4   -312561.717 2
 94  5 15 20 56 30.0040000  0  8  2  7  5 12  9  4 24 26
  23525405.561    -4732919.961 6  -3627068.063 4
  22648640.033   -11816581.898 8 -10253160.004 7
  25738851.254    -4521786.064 4  -2269036.268 2
  23634876.785   -11161375.082 7  -9521695.802 5
  23123002.179   -13975706.619 8 -11964654.136 6
  22623732.166   -17817234.769 7 -13618127.101 7
  24273511.737   -10798484.144 6  -8412484.916 3
  25672997.853      967189.824 4   -247479.696 2
 94  5 15 20 57  0.0040000  0  8  2  7  5 12  9  4 24 26
  23537536.962    -4669184.747 6  -3577404.296 4
  22661853.805   -11747131.420 8 -10199042.757 7
  25725592.933    -4591445.062 4  -2323315.991 2
  23622198.322   -11227993.975 7  -9573606.610 5
  23114182.734   -14022041.704 8 -12000759.373 6
  22614493.912   -17865774.005 7 -13655949.857 7
  24256317.681   -10888850.500 6  -8482900.174 3
  25688905.891     1050795.272 4   -182332.720 2
 94  5 15 20 57 30.0040000  0  8  2  7  5 12  9  4 24 26
  23549719.059    -4605153.385 6  -3527509.745 4
  22675107.630   -11677491.852 8 -10144778.179 7
  25712319.202    -4661164.224 4  -2377642.505 2
  23609569.295   -11294374.423 7  -9625331.624 5
  23105455.086   -14067904.137 8 -12036496.328 6
  22605339.959   -17913865.732 7 -13693423.901 7
  24239156.211   -10979035.405 6  -8553174.013 3
  25704818.424     1134488.241 5   -117117.584 2
 94  5 15 20 58  0.0040000  0  8  2  7  5 12  9  4 24 26
  23561961.713    -4540824.925 6  -3477383.712 4
  22688399.888   -11607639.583 8 -10090347.846 7
  25699057.733    -4730901.345 5  -2431983.067 2
  23596986.736   -11360493.697 7  -9676853.101 5
  23096819.744   -14113286.922 8 -12071859.526 6
  22596286.436   -17961468.253 7 -13730516.731 7
  24222029.638   -11069024.073 6  -8623294.953 3
  25720782.073     1218289.494 5    -51818.083 2
 94  5 15 20 58 30.0040000  0  8  2  7  5 12  9  4 24 26
  23574254.733    -4476225.944 6  -3427046.879 4
  22701731.928   -11537578.959 8 -10035755.180 7
  25685779.265    -4800650.418 5  -2486332.957 2
  23584454.332   -11426348.435 7  -9728168.486 5
  23088270.803   -14158196.088 8 -12106853.673 7
  22587320.004   -18008566.291 8 -13767216.474 7
  24204934.812   -11158812.070 6  -8693259.550 4
  25736740.355     1302193.515 5     13561.553 2
 94  5 15 20 59  0.0040000  0  8  2  7  5 12  9  4 24 26
  23586594.430    -4411388.294 6  -3376524.052 4
  22715100.423   -11467321.538 8  -9981009.158 7
  25672507.513    -4870427.122 5  -2540704.396 2
  23571972.233   -11491951.816 7  -9779287.978 6
  23079811.409   -14202646.537 8 -12141490.367 7
  22578454.541   -18055162.141 8 -13803524.889 7
  24187898.087   -11248399.344 6  -8763067.745 3
  25752732.065     1386172.734 5     78999.751 2
 94  5 15 20 59 30.0040000  0  8  2  7  5 12  9  4 24 26
  23598972.112    -4346335.690 6  -3325833.761 4
  22728506.482   -11396873.553 8  -9926114.634 7
  25659219.242    -4940226.213 5  -2595093.253 2
  23559534.803   -11557306.644 7  -9830213.796 6
  23071443.092   -14246645.638 8 -12175775.387 7
  22569683.903   -18101241.365 8 -13839430.752 7
  24170893.289   -11337792.606 6  -8832724.757 3
  25768720.326     1470201.667 5    144476.696 2
 94  5 15 21  0  0.0040000  0  8  2  7  5 12  9  4 24 26
  23611391.584    -4281077.259 6  -3274983.086 4
  22741950.255   -11326238.058 8  -9871074.023 7
  25645941.224    -5010042.703 5  -2649495.630 2
  23547143.931   -11622412.610 7  -9880945.691 6
  23063153.771   -14290203.615 8 -12209716.658 7
  22561010.218   -18146824.790 8 -13874950.257 7
  24153910.376   -11426999.246 6  -8902236.319 3
  25784715.243     1554269.586 5    209984.016 2
 94  5 15 21  0 30.0040000  0  8  2  7  5 12  9  4 24 26
  23623854.736    -4215596.446 6  -3223959.095 4
  22755425.507   -11255427.857 8  -9815897.255 7
  25632641.711    -5079888.379 5  -2703920.829 2
  23534803.844   -11687269.772 7  -9931483.720 6
  23054949.860   -14333312.628 8 -12243308.090 7
  22552425.151   -18191935.909 8 -13910101.731 7
  24136966.886   -11516021.100 6  -8971603.928 3
  25800716.815     1638372.249 5    275518.430 2
 94  5 15 21  1  0.0040000  0  8  2  7  5 12  9  4 24 26
  23636354.882    -4149879.623 6  -3172751.224 4
  22768931.067   -11184446.515 8  -9760587.142 7
  25619349.543    -5149761.050 5  -2758367.036 2
  23522508.906   -11751877.600 7  -9981827.466 6
  23046831.271   -14375967.779 8 -12276545.882 7
  22543926.514   -18236595.047 8 -13944901.024 7
  24120067.615   -11604858.526 6  -9040827.825 3
  25816736.105     1722521.609 5    341089.187 2
 94  5 15 21  1 30.0040000  0  8  2  7  5 12  9  4 24 26
  23648911.779    -4083905.709 6  -3121343.022 4
  22782471.313   -11113295.694 8  -9705144.947 7
  25606047.722    -5219652.671 5  -2812827.936 2
  23510263.793   -11816225.489 7 -10031968.663 6
  23038803.128   -14418164.048 8 -12309426.086 7
  22535516.317   -18280796.637 7 -13979343.791 7
  24103195.775   -11693497.686 6  -9109897.236 3
  25832761.062     1806734.270 5    406709.294 2
 94  5 15 21  2  0.0040000  0  8  2  7  5 12  9  4 24 26
  23661523.628    -4017637.291 6  -3069705.336 4
  22796042.108   -11041978.496 8  -9649573.108 7
  25592745.631    -5289563.759 5  -2867304.080 2
  23498071.893   -11880296.615 7 -10081894.200 6
  23030860.757   -14459894.063 8 -12341942.969 7
  22527195.487   -18324527.865 8 -14013420.052 7
  24086372.621   -11781912.628 6  -9178791.905 4
  25848796.091     1891041.303 5    472402.888 2
 94  5 15 21  2 30.0040000  0  8  2  7  5 12  9  4 24 26
  23674192.048    -3951057.549 6  -3017825.024 4
  22809646.960   -10970495.963 8  -9593872.469 7
  25579437.754    -5359497.567 5  -2921797.896 2
  23485930.838   -11944078.965 7 -10131594.724 6
  23023014.828   -14501137.561 8 -12374080.759 7
  22518970.051   -18367748.259 7 -14047098.235 7
  24069594.886   -11870077.218 6  -9247491.496 4
  25864870.872     1975460.208 5    538183.760 2
 94  5 15 21  3  0.0040000  0  8  2  7  5 12  9  4 24 26
  23686915.330    -3884198.155 6  -2965726.868 4
  22823276.904   -10898861.338 8  -9538053.316 7
  25566117.855    -5429479.111 5  -2976328.934 2
  23473847.853   -12007582.398 7 -10181077.903 6
  23015256.170   -14541905.740 8 -12405848.167 7
  22510844.537   -18410445.889 7 -14080369.093 7
  24052863.469   -11957991.328 6  -9315995.951 4
  25880962.233     2059973.283 5    604037.909 2
 94  5 15 21  3 30.0040000  0  8  2  7  5 12  9  4 24 26
  23699686.878    -3817080.447 6  -2913427.382 4
  22836937.127   -10827076.651 7  -9482117.219 7
  25552792.800    -5499521.973 5  -3030907.740 2
  23461819.131   -12070814.226 7 -10230349.436 6
  23007587.569   -14582206.297 8 -12437251.169 7
  22502822.210   -18452607.715 8 -14113222.441 7
  24036181.548   -12045669.275 6  -9384316.352 4
  25897044.299     2144545.871 4    669938.506 2
 94  5 15 21  4  0.0040000  0  8  2  7  5 12  9  4 24 26
  23712509.631    -3749706.734 6  -2860928.402 4
  22850626.311   -10755136.977 7  -9426060.346 7
  25539453.294    -5569606.629 5  -3085519.087 2
  23449836.456   -12133766.424 7 -10279403.091 6
  23000011.453   -14622019.290 8 -12468274.298 7
  22494902.143   -18494225.705 8 -14145652.005 8
  24019541.627   -12133115.248 6  -9452455.981 4
  25913140.066     2229172.700 4    735881.295 2
 94  5 15 21  4 30.0040000  0  8  2  7  5 12  9  4 24 26
  23725374.145    -3682091.268 6  -2808241.090 4
  22864351.978   -10683013.057 7  -9369859.917 7
  25526106.954    -5639707.991 5  -3140143.545 2
  23437911.821   -12196425.802 7 -10328228.570 6
  22992530.732   -14661328.083 8 -12498904.526 7
  22487089.792   -18535291.293 8 -14177651.132 8
  24002942.838   -12220327.330 6  -9520413.378 4
  25929248.005     2313842.682 3    801857.755 2
 94  5 15 21  5  0.0040000  0  8  2  7  5 12  9  4 24 26
  23738286.356    -3614235.645 6  -2755366.605 4
  22878112.392   -10610685.405 7  -9313500.725 7
  25512778.961    -5709794.392 5  -3194756.256 2
  23426046.965   -12258785.390 7 -10376820.436 6
  22985143.037   -14700140.870 8 -12529148.246 7
  22479378.050   -18575814.216 8 -14209227.413 8
  23986389.348   -12307321.707 6  -9588201.114 4
  25945378.338     2398542.307 3    867857.284 2
 94  5 15 21  5 30.0040000  0  8  2  7  5 12  9  4 24 26
  23751247.434    -3546122.865 6  -2702291.735 4
  22891914.687   -10538159.066 7  -9256986.727 7
  25499447.340    -5779854.382 5  -3249348.339 2
  23414239.399   -12320846.679 7 -10425179.861 6
  22977850.285   -14738460.972 8 -12559008.071 7
  22471764.731   -18615809.282 8 -14240392.364 8
  23969878.818   -12394106.940 6  -9655825.924 4
  25961507.952     2483276.425 3    933883.650 2
 94  5 15 21  6  0.0040000  0  8  2  7  5 12  9  4 24 26
  23764259.476    -3477753.797 6  -2649017.219 4
  22905751.278   -10465456.387 7  -9200335.313 7
  25486114.520    -5849903.146 5  -3303931.737 2
  23402482.678   -12382613.877 7 -10473310.139 6
  22970652.718   -14776306.562 8 -12588498.137 7
  22464253.791   -18655291.104 8 -14271157.384 8
  23953396.409   -12480685.278 6  -9723289.503 4
  25977650.996     2568058.473 3    999947.478 2
 94  5 15 21  6 30.0040000  0  8  2  7  5 12  9  4 24 26
  23777319.124    -3409124.868 6  -2595540.169 4
  22919621.356   -10392569.629 7  -9143540.471 7
  25472786.797    -5919953.686 5  -3358516.587 2
  23390786.635   -12444086.140 7 -10521210.591 6
  22963539.033   -14813693.776 8 -12617631.014 7
  22456840.433   -18694250.513 8 -14301515.334 8
  23936963.795   -12567051.114 6  -9790587.479 4
  25993784.208     2652882.516 3   1066043.924 1
 94  5 15 21  7  0.0040000  0  8  2  7  5 12  9  4 24 26
  23790436.364    -3340198.845 6  -2541831.594 4
  22933525.251   -10319497.501 7  -9086601.162 7
  25459453.617    -5990001.485 5  -3413099.257 2
  23379149.592   -12505251.818 7 -10568872.143 6
  22956515.585   -14850599.139 8 -12646388.452 7
  22449526.876   -18732676.460 8 -14331457.610 8
  23920573.422   -12653173.452 6  -9857695.734 4
  26009920.777     2737769.390 3   1132189.404 1
 94  5 15 21  7 30.0040000  0  8  2  7  5 12  9  4 24 26
  23803603.968    -3270991.513 6  -2487903.859 4
  22947458.765   -10246269.176 7  -9029540.145 7
  25446118.729    -6060069.457 4  -3467697.601 2
  23367566.450   -12566121.099 7 -10616302.741 6
  22949582.435   -14887024.205 8 -12674771.606 7
  22442312.460   -18770580.686 8 -14360993.355 8
  23904236.262   -12739038.164 6  -9924603.217 4
  26026102.614     2822713.706 3   1198379.572 1
 94  5 15 21  8  0.0040000  0  8  2  7  5 12  9  4 24 26
  23816821.637    -3201523.336 6  -2433772.867 4
  22961423.697   -10172890.481 7  -8972361.970 6
  25432785.969    -6130159.827 5  -3522313.468 2
  23356039.430   -12626697.578 7 -10663505.162 6
  22942740.122   -14922971.295 8 -12702782.302 7
  22435200.184   -18807960.185 8 -14390120.205 8
  23887948.867   -12824640.448 6  -9991306.254 4
  26042275.068     2907691.631 4   1264595.977 1
